           , 1.998,  2.145,  2.293,  2.441,  2.589,  2.736,  2.884,  3.032,  3.179,  3.327,  3.475,  3.623,  3.770,  3.918,  4.066,  4.213,  4.361,  4.509,  4.657,  4.804,  4.952,  5.100,  5.248,  5.395,  5.543,  5.691,  5.838,  5.986,  6.134,  6.282,  6.429,  6.577,  6.725,  6.872,  7.020,  7.168,  7.316,  7.463,  7.611,  7.759,  7.907,  8.054,  8.202,  8.350,  8.497,  8.645,  8.793,  8.941,  9.088,  9.236,  9.384,  9.531,  9.679,  9.827,  9.975, 10.122, 10.270, 10.418, 10.565, 10.713, 10.861, 11.009, 11.156, 11.304, 11.452, 11.600, 11.747, 11.895, 12.043, 12.190, 12.338, 12.486, 12.634, 12.781, 12.929, 13.077, 13.224, 13.372, 13.520, 13.668, 13.815, 13.963, 14.111, 14.259, 14.406, 14.554, 14.702, 14.849, 14.997, 15.145, 15.293, 15.440, 15.588, 15.736, 15.883, 16.031, 16.179, 16.327, 16.474, 16.622, 16.770, 16.917, 17.065, 17.213, 17.361, 17.508, 17.656, 17.804, 17.952, 18.099, 18.247, 18.395, 18.542, 18.690, 18.838, 18.986, 19.133, 19.281, 19.429, 19.576
1987/09/09 00:05,    2.6,    4.4,    5.1,    6.3,    7.3,    8.0,    7.6,    8.4,    7.8,    7.7,    5.3,    4.4,    4.1,    3.7,    3.6,    4.2,    4.8,    5.6,    5.5,    5.4,    3.7,    3.7,    4.4,    4.4,    3.7,    4.0,    3.3,    2.1,    4.4,    6.1,    7.1,    8.4,    9.2,    9.0,    8.5,    8.0,    7.6,    7.5,    7.5,    7.7,    8.1,    7.6,    8.6,    8.6,    8.0,    7.9,    8.0,    8.7,   10.0,   10.8,   10.2,    6.2,   11.4,   12.9,   13.8,   12.2,   12.4,   13.5,   12.7,   12.6,   12.4,   11.4,    9.7,    7.4,    7.0,    7.6,    8.4,    8.0,    7.4,  999.0,    7.0,    7.1,    7.7,    8.4,    8.1,    5.9,    4.3,    3.8,    4.5,    6.2,    8.2,    8.8,    6.7,    6.4,  999.0,    3.7,    4.2,    5.6,    5.5,    4.0,    5.2,    3.1,    1.1,   -0.1,    0.2,    2.4,    2.9,    3.6,    1.6,    2.4,    7.1,    8.7,    9.0,    7.1,    3.4,    2.2,    3.0,    3.6,    1.0,    2.2,    2.2,    3.7,    5.2,   -1.0,   -2.1,  999.0,  999.0,    2.9,    3.8,    3.6
1987/09/09 00:15,    1.5,    3.3,    3.6,    5.5,    6.6,    7.4,    7.2,    7.7,    7.3,    7.2,    5.3,    3.9,    3.3,    3.3,    2.6,    3.2,    4.5,    5.4,    5.9,    5.1,    3.9,    3.7,    4.3,    4.2,    4.4,    4.5,    3.6,    3.0,    6.2,    7.2,    8.1,    9.4,    9.3,    8.8,    8.7,    8.8,    8.0,    7.7,    8.2,    8.1,    8.8,    8.5,    9.7,    9.3,    9.1,    9.2,    9.0,    9.7,   10.8,   11.4,   11.1,   11.5,   11.9,   13.1,   13.7,   12.0,   12.8,   13.9,   13.1,   13.7,   12.7,   11.3,    8.3,    7.3,    6.8,    7.4,    7.3,    7.1,    6.0,    6.2,    7.0,    6.7,    7.1,    7.7,    7.0,    4.5,    3.1,    3.6,    4.0,    4.8,    8.0,    7.8,    5.1,    4.5,    2.5,    2.9,  999.0,    4.6,    4.9,    3.5,    4.1,    4.7,  999.0,    0.1,    0.7,    2.8,    4.3,    3.0,    2.0,    2.8,    6.9,    8.9,    9.9,    5.5,    3.0,    1.8,    2.8,    4.2,    0.9,    1.0,    1.9,    2.5,    4.6,   -0.6,   -3.0,   -2.7,  999.0,  999.0,    3.4,    3.6
1987/09/09 00:25,    1.6,    3.7,    4.1,    5.9,    6.9,    7.3,    7.6,    8.3,    8.2,    7.6,    6.7,    5.0,    4.6,    3.8,    3.7,    4.2,    4.4,    5.4,    6.5,    6.2,    5.0,    4.8,    4.7,    4.5,    4.9,    5.1,    3.5,    2.9,    5.8,    6.8,    7.9,    9.2,    9.6,    9.0,    8.7,    8.2,    8.1,    7.8,    8.0,    7.5,    7.0,    7.1,    8.2,    8.0,    8.9,    8.8,    8.8,   10.0,   11.2,   11.6,    8.3,   10.8,   12.8,   13.3,   14.0,   12.0,   12.3,   13.4,   14.3,   14.0,   13.4,   13.1,    7.9,    8.0,    6.8,    7.6,    7.9,    5.7,    6.3,    7.0,    5.6,    7.2,    7.5,    7.7,    6.6,    5.2,    2.6,    3.8,    4.8,    5.3,    8.0,    8.0,    6.2,    5.6,    5.4,  999.0,    1.8,    4.8,    5.4,    4.9,    4.3,    5.3,  999.0,    1.1,    0.1,    2.6,    3.6,    2.0,    1.4,    1.8,    5.6,    7.8,    8.3,    6.6,    2.2,    2.4,    3.5,    4.9,  999.0,    2.9,    1.2,    1.9,    3.5,   -1.4,   -3.2,   -2.5,  999.0,    2.5,    3.0,    2.8
1987/09/09 00:35,    2.7,    3.3,    4.1,    6.2,    6.9,    7.2,    7.4,    8.0,    8.0,    7.6,    6.0,    4.7,    4.2,    3.5,    3.7,    3.6,    4.2,    4.5,    5.2,    5.6,    5.0,    4.4,    4.5,    4.5,    4.6,    4.7,    4.1,    2.5,    3.7,    5.3,    6.2,    8.1,    8.6,    7.9,    7.9,    7.6,    7.7,    7.6,    7.8,    7.1,    7.3,    7.4,    8.2,    8.8,    9.0,    9.5,    9.5,   11.4,   12.3,   12.2,    8.3,   12.5,   13.7,   14.3,   14.8,   12.6,   12.6,   14.0,   14.7,   13.9,   13.0,   12.3,   10.0,    7.6,    7.3,    7.9,    7.8,    5.7,    6.4,    7.5,    6.9,    8.8,    9.4,    9.4,    6.9,    6.4,    3.0,    4.6,    5.2,    6.3,    7.7,    8.2,    5.3,    5.6,  999.0,  999.0,    3.5,    3.8,    5.9,    4.2,    4.2,    5.1,  999.0,    1.0,    0.6,    3.0,    4.3,    4.1,    1.2,    2.3,    5.8,    7.9,    8.9,    7.4,  999.0,    2.3,    3.8,    4.7,    1.9,    1.8,    1.4,    1.9,    2.9,   -1.2,   -3.0,   -2.9,  999.0,    2.3,    2.7,    3.1
1987/09/09 00:45,    1.8,    2.3,    3.8,    5.4,    6.8,    7.4,    7.5,    7.4,    7.1,    7.2,    5.8,    5.1,    4.6,    4.0,    4.0,    4.3,    4.8,    5.5,    6.4,    7.0,    4.9,    4.8,    4.9,    4.2,    4.5,    4.0,    3.3,    2.3,    3.0,    5.5,    6.6,    8.1,    8.3,    8.1,    8.3,    8.0,    7.9,    7.5,    7.4,    6.9,    7.5,    7.7,    8.1,    7.8,    8.1,    8.8,    8.3,    9.5,   11.5,   12.4,    9.3,   12.3,   13.6,   13.9,   13.9,   13.0,   11.4,   12.7,   13.7,   13.7,   12.5,   11.7,   10.2,    8.1,    7.3,    7.6,    7.4,    6.4,    6.7,    6.6,    6.3,    8.6,    7.2,    7.9,    7.6,    5.6,    3.8,    3.2,    4.7,    5.3,    6.9,    8.0,    5.7,    6.1,    2.7,    2.9,    2.7,    3.1,    4.3,    3.0,    3.7,    3.5,  999.0,   -0.5,   -0.6,    2.2,    3.7,    2.2,    1.7,    2.4,    6.8,    8.7,    8.9,    6.7,    3.1,    2.2,    3.7,    4.3,    1.7,    1.1,    1.4,    2.0,    3.5,    2.5,   -3.2,   -3.0,  999.0,    1.5,    2.9,    1.9
1987/09/09 00:55,    2.1,    3.7,    5.0,    7.0,    8.0,    8.4,    8.1,    8.1,    7.9,    7.1,    5.8,    5.2,    4.3,    3.5,    3.3,    3.6,    4.0,    4.8,    5.9,    6.6,    5.0,    5.0,    4.7,    4.8,    4.8,    3.9,    2.6,    2.6,    3.4,    5.7,    7.1,    8.2,    8.3,    7.7,    7.5,    7.6,    7.6,    7.4,    7.4,    7.0,    7.6,    7.8,    7.8,    8.8,    8.8,    8.8,    8.3,    9.4,   11.5,   12.5,   10.9,   12.1,   13.3,   14.0,   14.0,   12.8,   11.2,   12.2,   13.2,   13.3,   13.0,   11.8,   10.0,    8.7,    7.1,    7.0,    7.0,    6.4,    6.3,    5.2,  999.0,    3.7,    5.9,    7.1,    7.5,    7.0,    4.5,    2.7,    4.6,    5.2,    6.6,    7.9,    5.8,    5.7,    2.5,  999.0,    2.6,  999.0,    4.3,    2.6,    2.9,  999.0,  999.0,   -1.3,   -0.6,    3.2,    3.8,    2.0,    1.9,    2.7,    7.6,    8.9,    9.4,    8.6,    5.1,    2.1,    3.0,    3.6,    0.7,    0.6,    0.6,    2.3,    3.3,    2.1,   -3.3,   -2.9,  999.0,  999.0,  999.0,    2.5
1987/09/09 01:05,    2.2,    2.8,    4.1,    5.6,    7.0,    7.6,    7.7,    7.5,    7.8,    7.4,    6.4,    5.8,    4.5,    4.0,    3.7,    4.0,    4.7,    5.4,    6.9,    7.4,    6.0,    5.5,    5.4,    5.5,    4.4,    3.4,    2.9,    3.0,    4.2,    6.0,    7.5,    8.3,    9.0,    7.7,    8.0,    7.6,    7.9,    7.2,    7.7,    7.1,    7.1,    7.8,    7.8,    8.5,    9.3,    9.4,    9.2,   10.9,   11.6,   11.8,  999.0,  999.0,  999.0,  999.0,   12.7,   11.5,   11.5,   12.3,   13.2,   13.5,   13.1,   12.5,   10.6,    8.4,    7.4,    7.8,    7.3,    6.9,    5.3,  999.0,  999.0,    9.6,    7.0,    7.1,    7.4,    6.5,    6.4,    2.5,    5.6,    6.1,    7.5,    8.1,    7.3,    4.6,    2.5,    2.7,    2.7,    3.3,    3.2,    2.9,    3.3,  999.0,  999.0,   -1.3,    0.3,    3.7,    4.7,    5.0,    1.3,    3.7,    6.5,    8.2,    8.3,    6.0,    2.3,    1.9,    2.8,    2.9,    0.6,    2.4,    1.5,    2.9,    3.9,    3.6,   -2.8,   -2.5,  999.0,  999.0,    1.5,  999.0
1987/09/09 01:15,    2.5,    3.4,    4.5,    6.1,    7.1,    7.3,    6.9,    7.0,    7.1,    5.9,    5.1,    3.3,    3.4,    3.2,    2.6,    3.5,    3.8,    4.8,    6.3,    7.1,    6.0,    5.8,    5.6,    5.6,    4.5,    3.9,    2.9,    3.8,    5.2,    7.0,    8.2,    8.6,    8.4,    7.6,    7.2,    7.5,    7.7,    6.8,    7.2,    7.2,    6.5,    6.8,    7.3,    8.1,    9.1,    9.2,    8.8,   10.7,   10.5,   11.6,   11.2,   12.1,   12.5,   12.8,   12.3,   11.4,   10.8,   12.0,   12.6,   13.1,   12.6,   11.9,    9.7,    8.2,    7.6,    7.8,    6.6,    5.9,    5.3,    4.6,  999.0,    3.2,    7.1,    7.7,    7.5,    5.2,    6.5,    2.1,    4.9,    5.9,    8.0,    8.9,    6.4,    6.0,  999.0,  999.0,    3.6,    3.5,    4.7,    3.2,    4.3,    0.9,  999.0,   -2.2,   -0.5,    3.6,    4.6,    3.9,    1.8,    2.6,    6.0,    8.3,    8.5,    6.4,    2.1,    1.8,    3.9,    2.9,    1.7,    1.5,    2.5,    4.7,    4.6,    3.1,   -3.7,   -3.8,  999.0,  999.0,  999.0,    1.3
1987/09/09 01:25,    2.4,    4.2,    5.4,    7.1,    7.9,    7.7,    7.8,    7.6,    7.2,    6.1,    5.5,    4.9,    3.9,    4.1,    4.1,    4.3,    4.2,    4.6,    5.6,    6.7,    6.5,    5.9,    6.2,    6.2,    5.4,    4.8,    4.2,    5.1,    6.4,    8.2,    8.8,    9.6,    8.6,    7.3,    7.8,    8.1,    8.1,    7.5,    7.4,    7.9,    6.8,    6.5,    7.6,    8.7,    9.5,   10.1,    9.9,   11.7,   12.8,   11.8,   12.4,   12.8,   13.1,   13.2,   12.9,   12.6,   11.2,   12.5,   13.5,   13.5,   13.3,   12.6,    9.8,    9.0,    7.9,    7.4,    7.6,    7.4,    5.0,    4.1,    5.3,  999.0,    7.2,    8.0,    6.2,    6.8,    7.2,    2.8,    5.5,    6.4,    7.7,    8.9,    6.0,    5.1,  999.0,    3.6,    4.2,    4.2,    4.0,    2.6,    2.6,   -2.2,   -1.6,   -0.7,   -0.7,    3.0,    3.6,    2.5,    0.9,    1.7,    6.1,    7.9,    8.5,    1.9,    3.1,    2.5,    3.2,    2.3,    1.2,    1.4,    2.1,    3.9,    3.6,    3.4,   -3.2,   -3.3,   -1.0,  999.0,  999.0,    1.9
1987/09/09 01:35,    3.7,    4.9,    6.7,    8.7,    9.2,    8.4,    8.5,    8.0,    7.6,    6.6,    5.6,    5.2,    4.2,    4.0,    4.4,    4.3,    4.5,    4.7,    5.3,    6.7,    6.8,    6.2,    6.2,    5.8,    4.9,    4.7,    4.6,    5.4,    7.0,    8.1,    8.4,    9.1,    8.3,    7.2,    8.2,    7.8,    7.5,    7.3,    7.4,    7.6,    7.4,    6.2,    7.0,    8.0,    8.5,    9.0,    8.6,   10.0,   12.7,   12.2,   12.7,   12.9,   13.5,   13.6,   13.8,   13.4,   12.1,   12.0,   13.6,   14.6,   12.9,   12.9,   11.1,    9.5,    8.8,    8.2,    7.8,    6.7,    5.2,    5.0,    5.7,    6.3,    6.7,    7.9,    7.2,    7.8,    5.5,    5.1,    5.1,    5.8,    7.4,    8.5,    4.8,    6.0,    3.8,    4.1,    4.6,    5.1,    5.3,    4.3,    3.9,  999.0,    1.0,    0.2,    1.5,    4.4,    3.6,    1.8,    1.3,    2.5,    5.8,    7.5,    8.7,    3.2,    1.7,    2.0,    2.2,    1.7,    1.4,    1.6,    2.6,    4.7,    4.3,    3.8,   -2.6,   -2.9,  999.0,  999.0,  999.0,  999.0
1987/09/09 01:45,    3.5,    4.6,    5.9,    7.5,    8.4,    8.0,    8.7,    8.7,    7.0,    5.9,    5.0,    4.6,    3.8,    3.8,    4.1,    4.4,    4.4,    4.0,    4.7,    6.0,    6.9,    6.1,    5.6,    5.1,    4.2,    4.5,    5.4,    6.2,    6.7,    7.1,    7.5,    8.8,    8.4,    7.4,    7.4,    7.6,    7.5,    7.1,    7.2,    7.3,    7.4,    6.9,    7.6,    8.1,    8.0,    8.4,    8.4,    9.0,   11.1,   11.5,   11.5,   12.2,   12.7,   12.7,   12.7,   11.0,   11.1,   11.0,   12.6,   12.0,   12.8,   11.3,    9.4,    8.5,    8.1,    7.6,    6.6,    5.5,    4.6,    4.4,    5.7,    6.0,    7.0,    7.6,    7.5,    6.0,    5.1,    4.2,    3.7,    4.3,    5.6,    7.0,    4.9,    3.0,    2.8,    3.5,    5.9,    4.4,    3.9,    3.6,    4.0,    0.7,   -0.9,   -1.0,    1.3,    3.1,    3.9,    2.9,    1.4,    2.4,    5.7,    7.9,    9.1,    2.6,    2.4,    2.4,    2.7,    1.2,    1.6,    3.2,    2.5,    4.8,    5.7,    4.2,    1.4,   -2.6,  999.0,  999.0,  999.0,  999.0
1987/09/09 01:55,    4.0,    3.9,    4.8,    6.6,    7.1,    7.7,    9.0,    8.7,    7.9,    6.1,    5.3,    5.3,    4.6,    5.3,    5.8,    5.4,    4.8,    4.2,    4.3,    5.7,    6.4,    5.8,    5.0,    5.1,    4.9,    3.8,    4.0,    5.6,    6.6,    7.2,    7.2,    8.3,    8.3,    7.6,    7.3,    8.0,    8.2,    7.8,    7.5,    7.6,    6.8,    7.2,    7.2,    8.0,    8.5,    8.8,    9.3,   10.1,   11.8,   11.2,   11.9,   11.9,   11.9,   12.4,   11.6,   11.0,   10.1,   10.7,   12.3,   11.1,   10.4,    9.0,    7.1,    6.5,    6.3,    6.8,    5.4,    4.5,    4.5,    5.7,  999.0,  999.0,    6.0,    7.1,    7.4,    7.6,    4.4,    4.4,    4.4,    4.7,    6.5,    8.6,    5.4,    5.1,    5.3,    4.9,    7.3,    4.5,    4.9,    4.6,    4.7,    3.9,    0.3,    0.0,    0.8,    2.9,    4.4,    2.0,    1.4,    1.8,    5.9,    7.5,    6.6,    1.7,    2.1,    2.9,    3.3,    0.3,    3.3,    2.7,    2.6,    2.3,    4.9,    3.7,   -0.1,   -1.8,  999.0,  999.0,    1.3,  999.0
1987/09/09 02:05,    4.4,    4.3,    5.2,    6.7,    8.3,    8.4,    8.8,    9.1,    8.0,    7.6,    6.1,    5.4,    4.8,    5.0,    5.4,    5.3,    4.6,    4.1,    4.1,    5.3,    6.7,    6.0,    5.1,    4.8,    4.6,    3.7,    3.9,    4.9,    6.3,    6.8,    7.3,    7.6,    8.2,    7.3,    6.9,    7.5,    7.9,    7.5,    7.6,    7.2,    7.2,    7.5,    7.8,    8.2,    8.7,    9.1,    9.1,   10.5,   11.9,   11.3,   11.8,   12.4,   12.7,   12.5,   11.4,    9.8,   10.5,   11.7,   11.6,   11.1,   10.8,  999.0,    9.3,    6.8,    7.6,    8.0,    6.6,    5.8,    5.8,    6.7,    7.1,    7.1,    7.5,    7.3,    7.9,    1.9,    4.5,    5.1,    4.8,    5.0,    6.0,    8.3,    8.1,    4.7,    3.7,    5.3,    4.9,    3.5,    4.1,    3.0,    2.7,    1.2,   -0.3,   -0.8,    0.5,    1.0,    3.1,    1.8,    1.3,    2.2,    6.1,    7.7,    7.4,    1.3,    1.5,    3.0,    3.1,    1.4,    1.7,    0.9,    1.9,    3.8,    4.3,    2.4,   -0.8,   -1.2,   -1.2,  999.0,  999.0,  999.0
1987/09/09 02:15,    3.4,    5.1,    6.1,    7.4,    7.8,    8.2,    8.8,    8.6,    7.1,    7.5,    6.3,    4.6,    3.8,    4.8,    5.6,    5.5,    4.5,    3.4,    3.7,    5.1,    6.3,    5.6,    5.1,    4.8,    4.7,    3.9,    3.7,    4.9,    6.2,    6.9,    7.8,    8.1,    8.8,    8.0,    8.0,    8.2,    8.1,    8.0,    8.0,    8.1,    7.4,    7.3,    7.4,    7.7,    7.8,    7.8,    8.1,    9.0,   11.2,   11.5,   12.1,   12.3,   12.7,   13.0,   10.6,   11.0,   11.3,   12.0,   12.3,   10.9,   11.5,    8.1,    7.5,    7.6,    7.3,    6.5,    6.6,    4.9,    6.2,    6.4,    8.2,    8.5,    8.3,    7.9,    8.7,    5.1,    4.9,    4.8,    4.9,    5.9,    8.1,    9.4,    8.6,  999.0,    4.0,    5.8,    4.3,    4.9,    5.4,    3.0,  999.0,    1.9,   -0.1,    0.2,  999.0,    2.5,  999.0,    3.2,    1.9,    2.7,    5.7,    7.8,    7.5,    1.4,    1.7,    2.1,    4.1,    2.4,    2.1,    2.5,    2.3,    3.0,    4.9,    3.8,   -0.6,   -1.1,   -1.2,  999.0,  999.0,  999.0
1987/09/09 02:25,    2.7,    4.5,    6.0,    7.3,    7.8,    8.9,    9.0,    9.0,    8.3,    7.7,    6.7,    5.4,    4.8,    5.9,    6.2,    6.1,    5.9,    5.1,    4.7,    6.4,    7.8,    8.0,    6.9,    6.7,    6.6,    5.5,    4.6,    4.3,    5.3,    6.4,    7.1,    7.3,    7.9,    7.5,    7.1,    7.2,    6.6,    7.8,    8.5,    8.8,    8.5,    7.7,    8.0,    7.9,    7.5,    7.7,    7.2,    8.7,   10.4,   15.2,   12.0,   12.5,   13.0,   13.2,   10.7,   10.9,   11.1,   12.4,   12.0,    9.6,    8.9,    8.8,    7.2,    6.8,    6.3,    5.6,    5.0,    5.0,    5.6,    6.3,    7.2,    7.4,    8.0,    7.9,    6.3,    6.5,    5.2,    5.5,    5.8,    6.9,    8.6,    9.5,    8.8,    3.9,    4.6,  999.0,    3.6,    4.5,    3.9,    2.5,    1.5,  999.0,   -0.4,   -0.3,    1.4,    2.9,   -3.4,  999.0,    2.1,    3.2,    6.0,    7.7,    7.0,    1.4,    0.6,    0.8,    2.9,    3.3,    1.5,    2.5,    2.8,    3.5,    4.3,    5.1,    0.1,   -1.1,   -0.9,  999.0,  999.0,    0.5
1987/09/09 02:35,    3.3,    5.3,    5.9,    7.0,    7.6,    7.7,    8.6,    8.7,    7.2,    7.5,    5.7,    5.3,    3.6,    4.5,    5.3,    5.4,    5.4,    5.0,    5.3,    7.3,    8.8,    8.9,    8.0,    7.6,    7.5,    6.5,    5.8,    4.4,    4.6,    5.6,    6.6,    7.3,    7.7,    7.7,    7.6,    7.0,    6.8,    7.7,    8.7,    8.3,    8.2,    7.8,    8.3,    8.1,    8.1,    7.9,    8.4,    9.1,   11.1,   14.3,   13.5,   13.5,   13.6,   13.4,   11.3,   11.7,   12.2,   12.8,   12.2,   10.8,    9.8,    8.2,    7.0,    5.6,    4.2,    3.4,    4.8,    4.5,    5.1,    6.9,    7.0,    7.7,    8.3,    7.7,    5.4,    5.9,    4.6,    5.3,    4.5,    6.2,    7.2,    8.3,    5.4,    4.7,    3.4,    3.5,    3.7,    3.5,    3.0,    4.0,    2.2,    1.6,    0.6,   -0.0,    1.3,    4.0,    5.3,    3.3,    2.1,    2.1,    5.9,    7.6,    5.5,    1.1,    0.7,    2.1,    3.6,    3.3,    2.1,    1.6,    2.0,    1.8,    3.7,    3.6,    0.3,   -1.0,   -0.6,  999.0,  999.0,  999.0
1987/09/09 02:45,    4.7,    6.2,    7.1,    7.4,    7.8,    8.1,    8.4,    8.5,    7.4,    6.8,    6.3,    5.3,    4.5,    4.2,    4.8,    5.5,    5.5,    5.3,    5.5,    6.9,    8.5,    9.3,    7.9,    7.4,    7.8,    5.7,    4.6,    4.2,    4.5,    5.1,    6.1,    7.1,    6.8,    7.5,    7.3,    7.3,    7.3,    8.2,    8.8,    8.2,    7.9,    8.0,    7.8,    7.6,    7.5,    7.8,    7.1,    7.3,    9.1,   11.5,   12.0,   12.4,   12.0,   11.6,   11.2,   11.0,   11.4,   12.2,   11.7,    9.4,    8.7,    7.1,    6.3,    6.4,    4.9,    4.8,  999.0,    3.4,    5.1,    5.6,    6.0,    6.7,    8.0,    7.0,  999.0,    5.4,    3.7,    3.9,    3.7,    4.8,    6.6,    7.5,    2.4,    2.7,    4.9,    4.3,    2.0,    2.8,    2.8,  999.0,  999.0,    3.0,    0.7,    0.3,    1.9,    4.3,    5.0,    4.3,    1.8,    2.2,    6.0,    7.1,    4.1,    0.7,   -0.0,    1.8,    3.5,    4.7,    1.7,    1.9,    1.4,    1.7,    2.9,    2.9,   -0.5,   -0.9,  999.0,  999.0,  999.0,  999.0
1987/09/09 02:55,    4.3,    6.0,    6.8,    7.6,    8.0,    8.5,    9.3,    8.8,    7.9,    6.9,    6.3,    5.4,    5.2,    5.2,    6.1,    6.3,    6.1,    5.2,    5.5,    6.1,    7.2,    7.9,    7.4,    6.4,    5.8,    5.0,    4.1,    3.8,    3.8,    4.8,    6.4,    6.7,    6.3,    7.0,    6.9,    6.5,    6.6,    7.8,    8.7,    7.7,    6.8,    6.5,    6.3,    6.6,    7.0,    8.4,    8.8,    9.0,    9.8,   11.4,   12.2,   11.8,   11.7,   11.5,   11.0,   10.1,   10.2,   10.1,   10.3,    7.3,    7.9,    6.6,    6.2,    5.4,    4.7,    3.6,  999.0,    4.8,    4.4,    4.7,    5.8,    7.1,    7.8,    7.8,    5.0,    5.5,    5.3,    4.4,    4.8,  999.0,    7.3,    8.2,    5.7,    3.9,    4.6,    4.4,    1.7,  999.0,  999.0,  999.0,    3.1,    1.3,    2.0,    1.3,    2.7,    4.4,    4.2,    3.6,    1.8,    1.4,    5.5,    6.6,    6.5,  999.0,   -0.0,   -0.4,    3.4,    4.4,    2.4,    2.0,    2.3,    3.0,    2.9,    1.8,    0.6,   -0.3,   -0.6,  999.0,  999.0,  999.0
1987/09/09 03:05,    4.4,    4.9,    5.8,    6.5,    7.1,    7.8,    8.2,    8.3,    6.7,    6.6,    5.9,    5.3,    4.8,    5.9,    6.8,    6.4,    5.3,    5.2,    6.0,    6.5,    7.1,    7.5,    7.6,    7.2,    6.0,    6.0,    5.3,    4.6,    4.2,    4.6,    6.2,    7.8,    7.3,    7.5,    7.7,    7.4,    8.4,    9.5,    9.6,    8.7,    8.5,    8.2,    8.0,    7.7,    6.7,    6.2,    7.0,    9.0,   10.8,   11.2,   11.6,   10.6,   11.3,   11.3,   10.8,   10.2,    9.8,    9.8,    9.9,    8.1,    7.8,    6.6,    6.9,    6.0,    5.9,    5.3,    4.9,    4.7,    5.2,    5.6,    6.7,    7.8,    8.4,    8.0,    5.3,    5.4,    5.1,    4.4,    5.3,  999.0,    7.7,    8.1,    4.8,  999.0,  999.0,    4.1,    2.6,    2.4,    1.6,    2.8,    1.9,    2.6,    1.5,    1.2,    3.2,    4.7,  999.0,    4.5,    1.8,    2.4,    4.7,    6.6,    7.2,    1.5,    0.4,    1.3,    3.7,    5.0,    4.3,    1.9,    2.2,    1.6,    2.4,    1.5,    0.8,   -1.0,  999.0,    1.2,  999.0,  999.0
1987/09/09 03:15,    3.7,    4.6,    5.4,    6.4,    7.2,    7.5,    8.2,    7.8,    7.1,    7.1,    5.5,    5.5,    5.3,    5.9,    6.3,    5.3,    5.1,    5.2,    5.8,    6.2,    6.6,    6.9,    7.1,    6.6,    5.8,    5.8,    5.3,    4.4,    4.2,    4.3,    5.1,    6.3,    6.6,    6.9,    6.9,    7.3,    8.3,    9.4,   10.6,   10.3,   10.0,    9.6,    9.0,    8.5,    7.4,    7.2,    7.3,    9.5,   11.2,   11.7,   10.9,   10.7,   10.3,   10.6,   10.5,   10.5,   10.2,    9.8,    9.5,    8.4,    8.0,    8.1,    6.8,    6.3,    6.0,    5.4,    4.3,    5.5,    6.0,    6.8,    7.8,    8.0,    7.7,  999.0,    5.3,    5.3,    5.4,    5.1,    6.4,  999.0,    8.1,    7.7,  999.0,    3.7,    2.9,    3.8,    2.7,    3.1,    3.5,    3.9,    2.4,    2.1,    1.1,    1.4,    2.1,    3.8,    4.4,    2.9,    1.8,    2.3,    3.2,    5.8,    6.5,    0.6,    0.0,    2.4,    4.3,    5.7,    4.6,    2.1,    1.7,    1.6,    2.8,    2.5,    1.9,    0.2,  999.0,  999.0,  999.0,  999.0
1987/09/09 03:25,    3.2,    3.7,    4.8,    5.2,    6.4,    7.2,    7.6,    7.8,    7.7,    7.8,    6.3,    6.3,    5.8,    6.5,    6.7,    6.6,    5.4,    5.3,    5.8,    6.3,    6.8,    7.4,    7.5,    7.1,    6.4,    5.8,    4.6,    3.5,    4.0,    4.3,    5.7,    6.1,    6.1,    6.8,    7.3,    7.2,    8.0,    9.3,   10.2,   10.2,    9.2,    8.7,    9.0,    8.4,    7.8,    7.6,    6.7,    7.8,   10.3,   11.4,   10.8,   10.3,    9.7,    9.0,    9.7,    9.8,    9.9,    8.5,    9.0,    9.3,    8.1,    9.2,    8.5,    7.8,    6.5,    6.8,    6.3,    5.9,    6.7,    7.5,    7.8,    8.0,    8.2,    6.0,    4.9,    4.9,    5.7,    5.1,    6.2,    7.8,    8.8,    7.8,    3.6,    3.5,    3.0,  999.0,    2.0,    2.7,    5.5,    4.7,    3.0,  999.0,    0.8,    1.5,    2.2,    3.8,    5.4,    5.3,    1.9,    2.3,    4.1,    5.7,    6.1,    2.0,    0.6,    2.0,    4.9,    5.9,    5.0,    2.4,    1.8,    2.4,    2.5,    2.4,    1.1,    0.4,  999.0,  999.0,  999.0,  999.0
1987/09/09 03:35,    3.6,    3.0,    4.2,    5.6,    6.8,    7.3,    7.9,    7.8,    7.7,    7.8,    6.0,    6.3,    6.2,    6.4,    6.1,    5.4,    4.9,    4.9,    5.4,    5.9,    6.3,    6.3,    7.0,    6.4,    5.8,    5.6,    4.5,    4.2,    4.7,    5.0,    6.6,    6.5,    6.1,    7.0,    7.3,    7.5,    8.6,   10.4,   10.8,   10.7,    9.9,   10.0,    8.0,    7.3,    7.3,    7.5,    7.2,    8.2,   10.4,   11.2,   11.2,   10.5,    9.3,    8.5,    8.5,    9.1,    9.5,    7.7,    8.1,    8.8,    7.9,    8.2,    7.7,    6.6,    6.2,    6.2,    5.6,    5.9,    6.6,    7.0,    8.2,    6.6,    7.6,    4.1,    4.1,    3.9,    4.9,    4.5,    5.7,    7.3,    7.8,    5.8,    4.5,    2.7,    2.4,    3.8,  999.0,    3.0,    3.5,    2.9,  999.0,    1.7,    1.7,    1.4,    1.7,    3.8,    5.4,    4.5,    2.4,    1.8,    4.9,    5.8,    4.9,    2.8,    0.6,    1.8,    4.9,    6.0,    4.1,    3.1,    1.6,    1.6,    2.1,    2.0,    1.1,    1.0,  999.0,  999.0,  999.0,  999.0
1987/09/09 03:45,    2.7,    3.7,    5.4,    6.2,    6.7,    7.1,    7.4,    7.4,    7.1,    7.3,    5.5,    5.5,    5.3,    5.0,    4.5,    4.3,    3.9,    4.3,    4.6,    4.6,    4.8,    4.8,    4.7,    4.2,    4.4,    4.1,    4.3,    4.3,    4.5,    5.2,    6.8,    6.4,    6.1,    6.5,    7.6,    8.1,    9.1,   10.6,   10.9,   11.1,   10.7,    9.1,    6.6,    5.9,    5.9,    5.9,    6.1,    7.8,    9.6,   10.0,    9.8,    7.9,    7.4,    7.9,    7.7,    7.6,    8.2,    7.2,    7.4,    8.6,    8.3,    7.8,    7.8,    7.9,    6.9,    6.8,    7.2,    6.0,    7.0,    7.2,    7.5,    8.0,    7.7,    5.1,    4.0,    4.6,    4.0,    3.8,    5.4,    6.2,    8.1,    7.7,    2.8,    3.3,    2.8,    3.1,  999.0,    3.8,  999.0,  999.0,    2.7,    1.8,    2.4,    2.7,    3.6,    5.8,    7.1,    6.8,    3.5,    3.8,    4.6,    6.8,    4.6,    1.4,    1.1,    1.2,    4.1,    5.5,    2.9,    2.2,    1.6,    1.6,    1.6,    1.3,    0.1,    0.9,    2.7,  999.0,  999.0,  999.0
1987/09/09 03:55,    4.5,    4.4,    5.8,    6.2,    6.8,    7.2,    7.2,    7.6,    6.9,    7.1,    5.7,    5.5,    5.1,    5.3,    4.8,    3.9,    4.3,    4.6,    4.6,    4.6,    4.7,    5.5,    5.6,    6.0,    5.2,    5.0,    4.4,    4.3,    4.6,    4.9,    6.8,    6.5,    6.1,    6.7,    7.0,    8.2,    9.3,   10.7,   10.3,    9.9,    8.7,    7.4,    7.1,    6.7,    6.6,    5.9,    7.1,    9.0,   10.1,   10.3,    9.1,    7.9,    7.6,    7.8,    7.7,    8.0,    7.9,    7.4,    7.3,    8.2,    8.5,    8.4,    8.0,    8.4,    8.6,    7.5,    7.8,    7.5,    8.0,    8.2,    8.3,    8.2,    8.5,    4.7,    4.4,    5.0,    4.8,    3.8,    5.4,    7.4,    7.7,    7.4,    4.2,    2.7,    0.9,    2.1,    3.6,  999.0,  999.0,  999.0,    1.3,    0.8,    2.3,    3.0,    4.0,    6.2,    6.4,    5.1,    3.2,    3.9,    5.0,    6.5,    5.1,    0.3,    0.6,    1.7,    4.5,    4.9,    2.2,    2.1,    1.5,    2.2,    2.0,    1.7,    0.8,    0.3,    2.4,    2.1,  999.0,  999.0
1987/09/09 04:05,    3.5,    4.0,    5.4,    6.1,    6.9,    7.1,    6.9,    7.1,    6.9,    7.2,    6.7,    6.0,    6.3,    6.2,    5.8,    5.4,    5.6,    5.6,    5.4,    5.2,    5.7,    6.0,    6.7,    6.9,    6.4,    6.0,    5.9,    6.1,    6.0,    5.6,    6.4,    7.0,    6.9,    7.3,    9.0,    9.9,   11.2,   11.8,   11.0,   10.0,    9.1,    8.2,    7.6,    6.7,    6.1,    6.7,    8.0,   10.0,   11.2,   10.7,    9.6,    8.8,    8.6,    8.3,    7.9,    7.5,    7.8,    7.6,    7.4,    7.2,    7.8,    8.3,    8.8,    9.1,    8.8,    8.6,    8.7,    8.0,  999.0,    8.6,    7.7,    8.6,    8.2,    7.1,    6.0,    6.3,    5.4,    3.9,    5.0,    5.8,  999.0,    7.5,    5.0,    2.5,    1.9,    1.6,    3.5,  999.0,  999.0,  999.0,    0.6,   -0.0,    0.2,    1.4,    2.6,    4.7,    5.7,    3.1,    2.7,    3.7,    5.5,    7.5,    6.3,    0.7,    0.5,    2.6,    4.5,    5.1,    1.3,    2.2,    2.4,    2.4,    2.1,    1.7,    1.6,    1.6,    1.3,    2.8,    0.4,  999.0
1987/09/09 04:15,    3.3,    2.5,    4.6,    5.0,    6.0,    5.8,    5.8,    6.1,    6.1,    5.8,    6.0,    5.3,    5.5,    6.0,    5.6,    5.2,    5.3,    5.4,    5.3,    4.8,    4.7,    5.3,    6.5,    6.8,    6.2,    5.8,    5.3,    5.1,    5.1,    5.9,    7.1,    7.0,    6.6,    6.9,    8.6,    9.6,   10.5,   10.4,   10.9,   11.0,   10.0,    9.0,    8.8,    8.0,    6.6,    6.2,    6.3,    8.7,   10.0,   10.7,   10.3,    9.7,    9.3,    9.4,    8.7,    8.5,    8.7,    9.5,    9.7,    9.3,    9.5,    8.8,    8.7,    8.0,    8.5,    8.3,    8.1,    8.2,    7.9,    6.9,    7.2,    7.7,    8.6,    6.7,    5.6,    5.0,    3.9,    3.4,    5.2,    6.8,    5.8,    6.0,    2.9,    2.1,    0.2,    0.7,    3.7,    0.7,  999.0,  999.0,    1.4,    0.6,    1.5,    2.3,    3.6,    5.3,    6.3,    4.1,    3.3,    4.6,    5.9,    7.6,    7.1,    1.0,    0.9,    1.8,    3.9,    3.6,    1.9,    1.8,    1.9,    2.2,    3.1,    1.6,    0.9,    0.5,    0.0,    1.5,  999.0,  999.0
1987/09/09 04:25,    3.7,    4.3,    5.0,    5.3,    5.9,    5.5,    5.8,    6.1,    6.2,    6.1,    5.9,    4.9,    5.1,    5.5,    4.6,    4.8,    5.2,    5.4,    4.9,    4.8,    4.3,    4.7,    5.2,    5.6,    5.5,    5.4,    4.8,    5.3,    5.4,    6.1,    6.7,    6.6,    6.9,    7.1,    8.1,    9.3,    9.9,   10.5,   10.8,   10.3,    9.6,    8.8,    8.3,    7.7,    7.6,    5.9,    6.4,    8.7,    9.8,   10.1,    9.8,    9.6,    8.9,    9.0,    8.6,    9.0,    9.6,   10.0,   10.0,    9.8,   10.6,    8.3,    9.2,    8.5,    8.8,    8.2,    8.3,    8.1,    8.4,    7.6,    7.9,    8.8,    8.3,    7.2,    5.3,    5.3,    4.1,    3.7,    5.3,    6.8,    6.5,    6.2,    4.7,    2.1,    0.3,    0.1,    2.8,    1.2,    3.0,  999.0,    2.6,    0.9,    1.4,    2.9,    4.6,    6.1,    6.9,    5.7,    3.6,    4.2,    6.0,    7.1,    6.8,    2.7,    0.5,    1.1,    3.2,    2.8,  999.0,    2.0,    1.8,    2.9,    2.3,    1.7,    0.9,    2.1,  999.0,    2.8,    1.6,  999.0
1987/09/09 04:35,    3.0,    3.8,    4.6,    4.8,    5.0,    4.5,    4.9,    5.6,    5.6,    5.8,    4.7,    4.1,    3.8,    4.6,    4.1,    3.9,    4.1,    4.3,    4.6,    4.6,    4.5,    5.1,    5.6,    5.8,    6.0,    6.1,    6.3,    6.5,    6.2,    6.4,    7.1,    7.3,    7.1,    7.4,    8.7,    9.1,    8.6,    9.4,    9.8,    8.9,    8.1,    8.1,    7.5,    7.6,    7.3,    6.1,    7.0,    8.6,   10.1,   10.6,   10.6,    9.6,    9.3,    8.7,    8.0,    8.3,    8.7,    8.9,    9.1,    8.7,    8.7,    9.2,    8.6,    7.7,    8.0,    7.7,    8.1,    8.1,    7.5,    7.7,    7.7,    8.3,    8.0,    6.8,    4.5,    4.9,    3.4,    3.1,    5.1,    6.8,  999.0,    5.6,    5.3,    1.3,    1.2,   -0.4,    3.6,    3.5,    2.4,  999.0,  999.0,    1.0,    2.2,    3.0,    4.9,    6.1,    5.7,    5.3,    3.5,    4.3,    6.0,    6.9,    5.0,    1.0,    0.5,    1.5,    3.5,    2.7,    1.8,    1.2,    2.0,    2.0,    2.5,    1.5,    1.2,    1.9,    1.8,    2.9,    2.9,  999.0
1987/09/09 04:45,    3.1,    3.5,    4.3,    4.8,    4.8,    4.3,    4.6,    5.3,    5.3,    5.9,    4.2,    3.5,    3.8,    3.9,    3.3,    2.8,    3.0,    3.8,    4.8,    5.1,    5.1,    5.2,    5.7,    5.7,    6.2,    6.1,    5.6,    6.0,    5.8,    5.8,    6.1,    6.5,    6.3,    7.0,    8.8,    9.6,    9.0,    9.9,   10.7,    8.5,    8.6,    8.8,    8.6,    7.9,    6.0,    6.2,    6.7,    9.0,   10.7,   10.8,   10.9,   10.4,    9.2,    9.0,    9.2,    8.9,    9.1,    9.7,    9.0,    9.9,    9.6,    8.6,    8.6,    8.3,    8.7,    7.9,    7.7,    8.1,    7.7,    7.5,    7.7,    8.8,    8.1,    6.0,    4.8,    5.2,    3.2,    2.7,    4.5,    5.3,    6.8,  999.0,    4.3,    2.7,    1.8,   -0.7,    1.5,    2.4,  999.0,  999.0,    2.3,    1.4,    1.1,    2.6,    4.3,    5.8,    3.6,    4.4,    3.2,    3.8,    6.4,    6.6,    3.5,    0.9,    1.4,    2.8,    3.9,    5.2,    2.4,    2.3,    2.7,    2.4,    2.3,    1.4,    1.2,    2.8,    2.6,    2.4,  999.0,  999.0
1987/09/09 04:55,    3.0,    3.8,    4.5,    5.1,    5.4,    4.9,    5.3,    6.4,    6.1,    6.2,    4.4,    4.1,    3.7,    3.7,    3.5,    3.2,    3.8,    4.8,    5.3,    5.6,    6.2,    6.4,    6.5,    6.8,    7.6,    6.9,    6.3,    5.9,    6.2,    5.9,    6.0,    6.8,    7.0,    6.6,    8.7,    9.6,    9.8,   10.6,   10.5,    9.6,    8.8,    9.0,    9.5,    7.5,    5.7,    5.5,    6.3,    8.7,    9.9,    9.3,    9.5,    8.9,    8.2,    8.8,    7.7,    8.7,    9.3,    9.9,    9.4,   10.0,   10.0,    9.3,    8.7,    8.8,    9.1,    8.6,    8.6,    8.1,    7.9,    7.8,    7.3,    8.5,    7.6,    4.6,    4.1,    4.2,    2.2,    2.3,    4.0,    6.0,  999.0,    5.9,    6.0,    1.1,    0.1,   -0.9,    1.1,    3.3,    2.4,    2.6,  999.0,  999.0,    1.7,    2.4,    4.5,    7.4,    5.4,    2.5,    3.4,    3.7,    5.9,    6.3,    2.2,    0.2,    0.9,    1.4,    3.7,    4.1,    2.7,    3.0,    3.0,    1.7,    0.8,    1.0,    1.6,    2.9,    1.4,    2.4,    1.7,  999.0
1987/09/09 05:05,    3.7,    4.1,    4.7,    5.6,    5.3,    5.8,    5.9,    6.3,    5.5,    5.3,    4.7,    4.4,    4.9,    4.4,    4.1,    3.7,    3.4,    4.2,    4.8,    4.7,    5.2,    5.9,    5.9,    6.7,    7.2,    6.1,    5.5,    5.4,    5.7,    5.9,    6.6,    7.3,    7.3,    6.5,    7.9,    8.6,    9.4,    9.5,    9.9,   10.1,    9.8,    9.9,    9.6,    7.7,    6.2,    6.1,    6.9,    9.0,    9.6,    9.4,    9.1,    9.0,    8.4,    8.8,    9.0,    8.8,    9.8,   10.6,   10.0,   10.7,   10.7,   10.3,    9.7,    8.7,    9.3,    9.1,    8.7,    8.5,    8.0,    7.9,    7.4,    8.3,    8.6,    6.9,    4.2,    3.9,    2.3,    3.3,    4.5,    7.0,  999.0,    6.0,    4.8,    2.7,    0.9,   -0.4,    1.6,    3.7,    2.7,  999.0,    3.3,    2.2,    2.9,    3.5,    5.8,    5.9,  999.0,    4.0,    3.4,    3.7,    4.3,    6.9,    3.5,    0.8,    0.6,    1.6,    3.4,    4.1,    2.7,    3.2,    3.0,    2.5,    0.7,    1.6,    1.4,    1.4,    2.4,    4.2,  999.0,    1.9
1987/09/09 05:15,    3.6,    3.8,    4.0,    4.6,    5.1,    5.4,    5.5,    5.8,    5.6,    5.4,    4.7,    4.3,    5.3,    5.4,    4.6,    4.1,    4.8,    5.8,    5.5,    5.6,    6.2,    7.1,    6.4,    7.0,    7.6,    6.8,    6.8,    6.9,    6.6,    6.6,    7.1,    7.3,    7.5,    6.8,    7.9,    9.6,   10.0,   10.1,   11.0,   10.4,   10.6,   10.6,   10.3,    8.3,    5.4,    5.9,    6.2,    7.7,    9.2,   10.2,    9.9,    9.2,    8.7,    9.4,    9.2,    9.2,   10.4,   11.0,   10.7,   11.0,   11.1,   10.9,    9.2,    8.8,    9.3,    9.5,    8.4,    7.5,    8.5,    8.3,    8.3,    9.0,   10.2,    6.0,    4.7,    3.6,    2.4,    3.9,    5.5,    7.2,    8.2,    6.2,    4.8,    2.9,   -0.4,   -0.5,    0.5,    2.5,    1.2,  999.0,  999.0,    0.5,    1.6,    2.8,    6.2,    6.4,  999.0,  999.0,    3.1,    4.1,    4.9,    7.1,    5.0,    1.6,    1.0,    1.6,    3.4,    3.4,    2.5,    3.1,    2.8,    1.7,    0.1,    0.3,    1.4,    2.1,    2.1,    3.6,  999.0,  999.0
1987/09/09 05:25,    3.7,    3.7,    4.2,    4.4,    5.2,    6.1,    5.8,    5.9,    5.8,    5.6,    4.9,    4.4,    4.9,    5.1,    3.8,    3.3,    3.3,    4.3,    3.9,    3.5,    4.1,    6.3,    6.5,    7.3,    7.4,    6.7,    6.4,    6.7,    6.7,    6.2,    7.0,    7.2,    7.2,    7.5,    9.1,    9.7,   10.1,   10.1,   10.5,   10.5,   10.9,   10.7,   11.5,    8.3,    7.5,    6.7,    5.3,    7.1,    8.8,   10.1,    9.7,    8.4,    8.5,    8.5,    9.0,    9.1,    9.9,    9.9,    9.8,   10.7,   11.3,   11.3,    8.5,    8.8,    9.6,    8.0,    8.7,    8.1,    7.7,    7.1,    8.1,    8.3,  999.0,    6.8,    4.9,    4.4,    3.6,    3.7,    5.2,    7.0,    8.3,  999.0,    5.0,    3.4,    2.0,    0.5,    1.6,    2.7,    2.6,    2.4,    1.3,    1.2,    1.7,    3.5,    5.3,  999.0,  999.0,  999.0,    3.4,    4.2,    4.7,    6.9,    6.0,    2.0,    0.9,    1.2,    3.0,    3.8,    1.5,    2.2,    1.8,    1.9,    0.6,    2.1,    2.1,    3.4,    2.7,    3.7,    3.7,  999.0
1987/09/09 05:35,    3.5,    3.1,    4.4,    4.5,    4.6,    5.8,    5.8,    6.0,    6.0,    6.0,    5.0,    5.0,    6.1,    6.1,    4.6,    4.6,    5.7,    5.7,    4.8,    3.3,    3.2,    5.4,    6.1,    5.9,    5.8,    5.2,    5.7,    6.1,    6.4,    6.2,    6.6,    6.7,    6.5,    6.7,    8.1,    9.6,    9.5,    9.9,    9.8,   10.4,   10.0,   10.0,   10.0,    8.0,    7.0,    6.0,    5.4,    7.5,    9.8,   10.5,    9.7,    8.5,    8.2,    8.8,    9.4,    9.6,   10.4,   10.9,   10.7,   11.7,   11.9,   11.1,   10.0,    9.0,   10.0,    9.2,    7.8,    8.4,    8.3,    7.2,    9.0,    9.0,    8.8,    6.6,    4.7,    4.1,    3.3,    2.9,    3.8,    5.7,    7.7,    6.8,    6.3,    4.8,    1.7,    0.0,    0.5,    2.4,    4.0,  999.0,    2.0,    2.3,    3.1,    4.9,    6.8,  999.0,    2.9,    3.2,    4.1,    4.2,    5.6,    7.5,    5.3,    1.8,    1.0,    1.1,    3.1,    2.3,    1.4,    2.4,    2.8,    2.5,    1.9,    0.1,    2.2,    2.9,    4.1,    3.9,  999.0,  999.0
1987/09/09 05:45,    3.3,    3.6,    3.6,    4.0,    3.9,    5.0,    5.4,    5.5,    5.4,    4.9,    4.7,    4.0,    5.1,    5.1,    4.2,    4.1,    5.3,    4.4,    4.1,    3.8,    4.3,    7.0,    7.3,    6.7,    6.6,    6.1,    6.3,    6.1,    6.2,    5.8,    6.3,    6.3,    6.9,    7.3,    8.6,    9.8,   10.6,   10.7,   10.4,   10.2,   10.2,   10.3,    9.7,    7.9,    6.4,    5.7,    6.6,    9.5,   11.0,   10.8,   10.8,    9.3,    8.3,    9.2,    9.7,    9.6,   10.4,   11.4,   11.7,   11.8,   12.6,   11.0,   10.3,   10.0,   10.0,   10.0,    8.4,    9.2,    9.0,    8.7,  999.0,  999.0,  999.0,    7.5,    5.6,    4.5,    3.6,    1.2,    3.4,    5.0,    6.2,  999.0,    5.8,    5.0,    3.3,    0.7,    0.4,    0.7,    2.9,    2.6,    3.1,    1.7,    2.8,    3.5,    5.8,    4.8,  999.0,  999.0,    3.5,    4.0,    5.2,    7.1,    3.6,    1.3,    0.7,    1.8,    3.0,    2.4,    1.0,    2.5,    2.7,    2.5,    2.7,   -0.1,    1.8,    1.2,    3.6,    3.9,  999.0,  999.0
1987/09/09 05:55,    2.5,    2.5,    2.7,    3.2,    3.4,    4.5,    4.9,    5.0,    5.5,    5.8,    5.9,    5.8,    6.7,    6.7,    5.0,    4.8,    6.3,    4.4,    3.9,    3.8,    4.8,    7.0,    7.4,    7.5,    7.6,    6.9,    6.5,    6.1,    5.7,    5.9,    6.1,    6.7,    7.2,    7.8,    9.3,   11.0,   11.9,   11.2,   10.9,   11.4,   11.2,   11.5,   10.0,    9.2,    6.7,    6.4,    6.6,    8.5,    9.5,    9.0,    9.0,    9.1,    8.0,    8.7,    9.1,    9.2,   10.3,   11.4,   11.6,   11.5,   11.8,   10.7,    9.8,   10.2,    9.4,    8.8,    7.7,    8.3,    7.7,  999.0,  999.0,  999.0,    6.3,    7.1,    4.4,    3.4,    1.8,    1.2,    2.1,    3.8,    4.8,  999.0,  999.0,    4.8,    2.1,    1.9,   -1.0,   -0.2,    2.1,    1.8,    2.1,    1.9,    0.2,    3.3,    5.6,    4.5,    4.7,    2.5,    3.8,    4.4,    5.3,    7.6,    5.5,    1.4,    1.2,    1.8,    3.0,    2.4,    1.6,    2.7,    3.8,    4.1,    3.3,    1.9,    2.9,    3.6,  999.0,    2.4,  999.0,  999.0
1987/09/09 06:05,    3.4,    3.1,    3.4,    4.0,    3.6,    4.3,    4.9,    5.3,    5.8,    6.0,    5.6,    5.9,    7.2,    7.1,    6.1,    4.4,    5.2,    4.6,    3.6,    3.1,    4.5,    6.1,    6.0,    6.0,    6.5,    6.2,    5.2,    5.0,    5.5,    5.4,    5.2,    6.0,    6.1,    6.5,    8.2,    9.3,   11.2,   11.5,   11.4,   11.6,   10.5,   11.0,   10.1,    9.8,    6.9,    7.7,    8.6,    9.4,   10.3,   10.2,    9.4,    8.9,    8.4,    8.9,    9.0,    8.8,    9.8,   10.7,   11.8,   11.7,   10.6,    9.5,   11.0,   10.5,    9.5,    9.4,    8.4,    8.5,    7.6,    9.3,    9.2,  999.0,    9.5,    7.6,    6.0,    5.0,    3.3,    1.7,    2.0,    3.4,    4.8,    7.2,    6.8,    6.9,    3.6,  999.0,    0.4,    1.3,    3.2,    3.0,    3.5,    2.3,    3.3,    4.4,    6.5,    6.5,  999.0,    2.9,    3.6,    4.3,    4.4,    6.9,    4.7,   -0.3,    0.7,    2.0,    2.2,    3.3,    1.4,    2.1,    3.4,    4.0,    2.4,    1.4,    4.2,    4.8,    5.7,    1.0,    3.1,  999.0
1987/09/09 06:15,    3.3,    2.9,    3.5,    4.1,    4.0,    4.2,    5.3,    5.7,    5.8,    5.6,    5.4,    5.6,    6.8,    6.5,    5.6,    4.4,    4.8,    3.9,    3.7,    2.6,    3.0,    5.3,    5.8,    5.8,    6.1,    5.7,    4.2,    4.0,    4.1,    4.1,    4.4,    5.3,    6.6,    7.4,    8.7,   10.1,   10.6,   10.2,   10.9,   10.7,   10.6,   10.2,    9.6,    8.5,    8.2,    9.1,    8.3,    9.2,   10.3,   11.2,    9.3,    9.5,    7.4,    7.8,    9.0,    8.9,    8.8,    9.8,   11.0,   11.9,   10.6,  999.0,   10.9,   11.2,   10.8,   10.1,    9.8,    8.8,    9.9,    8.4,    9.5,  999.0,    9.1,    9.0,    5.8,    5.7,    4.6,    1.2,    2.1,    2.6,    3.7,    6.4,    7.6,    6.5,    3.3,    1.1,    0.8,    0.8,    3.0,    3.1,    2.4,    2.1,    3.3,    3.6,    4.3,    5.6,  999.0,    3.3,    3.9,    4.2,    4.4,    6.0,    4.0,  999.0,    0.4,    1.8,    2.7,    2.1,    1.6,    1.6,    2.3,    4.2,    1.2,    1.3,    4.5,    5.2,  999.0,  999.0,  999.0,    2.0
1987/09/09 06:25,    3.7,    3.5,    3.0,    3.9,    3.7,    4.0,    4.7,    5.4,    5.0,    5.2,    5.0,    5.1,    5.8,    5.8,    4.9,    4.6,    4.9,    4.9,    3.9,    3.2,    3.4,    5.5,    6.1,    6.2,    6.1,    5.9,    4.9,    4.6,    3.5,    4.3,    4.7,    6.0,    7.1,    8.2,    9.1,   10.2,   10.2,   10.7,   10.8,   11.2,   10.6,    9.7,    9.0,    8.1,    8.3,    6.4,    6.9,    9.0,   10.8,   10.7,   10.2,   10.3,    8.4,    8.5,    9.6,    9.2,    9.8,    9.7,   10.4,   11.4,   12.1,   11.8,   10.9,   10.7,   10.3,   10.1,   10.4,    8.9,    9.3,    9.0,    9.4,   10.1,   10.5,    8.6,    5.7,    5.7,    4.7,    1.4,    2.8,    2.5,    3.9,    6.0,    6.4,    7.3,    3.4,    2.7,    1.1,    1.5,    3.8,    3.6,    2.6,    3.4,    3.6,    4.3,  999.0,    6.2,    4.4,    3.3,    4.2,    4.7,    5.4,    6.3,    4.5,    1.0,  999.0,    1.6,    2.4,    3.2,    2.3,    3.1,    4.0,    5.0,    1.4,    2.6,    5.9,    5.6,  999.0,  999.0,  999.0,  999.0
1987/09/09 06:35,    3.6,    3.4,    3.6,    3.7,    3.9,    4.3,    5.1,    5.6,    5.6,    5.6,    5.1,    5.5,    6.3,    6.7,    5.1,    4.6,    5.4,    5.3,    4.0,    2.9,    3.1,    5.4,    6.1,    6.1,    6.5,    5.7,    5.0,    5.0,    4.2,    4.6,    5.5,    6.4,    7.6,    8.4,   10.2,   10.9,   10.8,   10.4,   11.3,   11.5,    9.6,    8.9,    7.9,    7.7,    6.3,    5.3,    6.3,    8.5,   10.5,   10.1,   10.1,   10.1,    7.5,    7.8,    8.5,    8.9,    9.4,    9.6,   10.1,   11.0,   11.4,   11.5,   10.2,   11.0,   10.5,   10.1,    8.9,    8.8,    9.0,    8.3,    9.2,  999.0,  999.0,    9.2,    6.2,    5.2,    2.8,    0.2,    1.3,    1.5,    2.2,    3.9,    6.2,    6.4,    4.6,    2.8,    1.6,    2.0,    4.2,    3.3,    1.6,    2.8,    3.0,    4.2,    6.7,    3.0,    3.4,    3.7,    4.4,    5.6,    5.8,    6.5,    4.1,    1.6,    1.0,    1.5,    2.5,    3.7,    3.1,    4.0,    4.9,    5.6,    2.1,    3.1,    4.9,  999.0,  999.0,  999.0,  999.0,  999.0
1987/09/09 06:45,    4.1,    3.2,    3.1,    3.0,    3.0,    3.7,    5.0,    5.3,    5.1,    5.5,    4.6,    5.5,    6.1,    6.0,    4.0,    4.1,    4.4,    4.0,    3.3,    2.7,    3.4,    5.8,    6.2,    6.4,    6.9,    5.5,    5.1,    5.3,    4.3,    4.3,    5.7,    6.7,    7.3,    7.8,    9.1,   10.2,   10.7,   11.0,   11.7,   12.2,    9.6,    8.8,    8.2,    8.3,    6.3,    6.1,    6.6,    8.1,    9.9,   10.6,    9.8,    9.2,    8.0,    7.8,    9.0,    8.9,    9.3,    9.9,   10.6,   11.2,   12.0,   13.0,   11.3,   11.2,   11.1,   11.1,   10.3,    9.0,    7.3,    8.2,    9.1,  999.0,    7.9,    7.2,    6.2,    4.1,    0.3,   -1.7,    0.1,    1.1,    2.0,    4.1,    6.7,    6.9,    4.9,    2.7,    2.4,    3.7,    4.1,    3.8,    2.7,    3.5,    3.8,    4.9,    5.3,  999.0,    2.1,    2.8,    3.2,    4.4,    4.7,    5.0,    3.8,    1.7,    0.4,    1.5,    3.4,    2.2,    3.6,    4.7,    5.8,    6.5,    2.4,    3.2,    5.7,    7.5,  999.0,  999.0,    1.0,    1.5
1987/09/09 06:55,    3.9,    3.5,    3.7,    3.9,    4.4,    4.6,    5.3,    5.5,    4.9,    5.4,    4.8,    5.6,    6.5,    6.2,    4.3,    4.4,    4.9,    4.2,    2.1,    2.7,    3.4,    5.2,    5.5,    5.6,    6.1,    5.2,    4.6,    4.4,    4.6,    4.9,    6.2,    6.7,    7.4,    7.5,    8.7,   10.6,   11.6,   11.8,   12.0,   12.5,   10.2,    8.8,    8.0,    8.0,    5.2,    4.8,    5.2,    7.3,    9.4,   10.0,    9.7,    9.0,    7.7,    8.1,    8.8,    9.7,    9.6,   10.0,   10.1,   10.9,   11.9,   12.2,   11.0,   10.5,   10.5,   11.1,    9.4,    9.2,  999.0,    8.4,    9.1,  999.0,    8.1,    7.2,    5.8,    2.8,   -0.4,   -1.3,  999.0,    0.6,    2.2,    4.3,    5.5,    6.2,    3.9,    2.8,    2.6,    3.1,    3.9,    3.3,    2.4,    2.8,    3.4,    4.7,    7.6,  999.0,    3.1,    2.1,    3.6,    4.7,    4.4,    4.8,    4.9,    2.3,    0.9,    2.1,    3.2,    3.6,    3.4,    4.9,    5.0,    5.0,    2.3,    3.7,    6.3,    5.9,  999.0,    2.0,  999.0,  999.0
1987/09/09 07:05,  999.0,  999.0,  999.0,  999.0,  999.0,  999.0,  999.0,  999.0,  999.0,  999.0,  999.0,  999.0,  999.0,  999.0,  999.0,  999.0,  999.0,  999.0,  999.0,  999.0,  999.0,  999.0,    6.7,    6.5,    7.0,    6.8,    5.9,    5.6,    5.0,    5.5,    6.6,    6.6,    6.3,    6.4,    7.1,   10.0,   10.8,   11.3,   10.7,   10.8,    9.5,    8.9,    8.1,    6.7,    5.7,    5.8,    5.4,    6.0,    7.7,    9.3,    9.6,    8.6,    7.4,    8.1,    8.6,    9.5,   10.2,   10.7,   11.1,   12.2,   12.3,   12.6,   11.6,   11.4,   11.5,   11.1,   10.6,  999.0,  999.0,    8.9,    9.3,  999.0,    9.5,    7.3,    5.6,    2.8,   -0.8,   -1.6,   -0.4,   -0.4,    2.0,    3.3,    5.4,    4.2,    4.1,    1.5,    1.2,    6.9,    3.3,    4.9,    3.3,    2.6,    3.5,    5.1,  999.0,    5.6,    2.7,    3.2,    3.9,    5.0,    5.2,    5.0,    4.5,    2.5,    1.5,    1.7,    3.8,    2.7,    3.0,    4.0,    4.7,    5.4,    2.3,    3.4,    6.2,    5.8,  999.0,  999.0,  999.0,  999.0
1987/09/09 07:15,  999.0,  999.0,  999.0,  999.0,  999.0,  999.0,  999.0,  999.0,  999.0,  999.0,  999.0,  999.0,  999.0,  999.0,  999.0,  999.0,  999.0,  999.0,  999.0,  999.0,  999.0,  999.0,    6.2,    6.4,    7.0,    6.5,    5.9,    5.7,    5.4,    5.7,    6.2,    6.4,    6.7,    7.1,    8.7,   11.2,   11.6,   12.7,   11.7,   11.6,   10.5,    9.6,    9.3,    7.6,    7.2,    7.3,    6.2,    7.0,    9.2,   10.3,   10.5,    8.8,    8.4,    8.8,   10.0,    9.9,   10.8,   11.4,   11.5,   12.1,   12.0,   12.7,   11.0,   10.3,   10.9,   10.8,    9.2,  999.0,  999.0,    9.2,  999.0,  999.0,    8.7,    7.3,    5.8,    2.0,    0.2,   -0.2,   -0.5,    1.3,    2.5,    4.7,    6.7,    5.1,    4.8,    2.3,    2.5,    3.8,    4.9,    4.8,    3.5,    3.6,    3.9,    5.1,    6.7,  999.0,    3.0,    2.9,    3.7,    4.9,    5.5,    5.2,    4.6,    1.3,    1.2,    2.4,    4.1,    3.4,    3.8,    3.8,    3.7,    3.3,    1.9,    3.5,    5.6,    5.2,    4.6,    2.3,  999.0,  999.0
1987/09/09 07:25,  999.0,  999.0,  999.0,  999.0,  999.0,  999.0,  999.0,  999.0,  999.0,  999.0,  999.0,  999.0,  999.0,  999.0,  999.0,  999.0,  999.0,  999.0,  999.0,  999.0,  999.0,  999.0,    5.5,    5.6,    5.8,    6.0,    5.7,    5.0,    5.2,    5.4,    5.7,    6.1,    6.5,    7.4,    8.7,   11.2,   11.3,   11.8,   11.3,   11.3,   10.9,   10.3,    8.9,    7.1,    7.5,    6.2,    6.3,    6.6,    8.4,    9.6,    9.5,    9.3,    8.4,    8.8,    9.9,    9.5,   10.7,   11.7,   12.4,   12.8,   12.8,   12.0,   10.5,   10.4,   10.6,    9.8,  999.0,  999.0,    7.3,    7.9,  999.0,  999.0,    8.2,    7.9,    6.2,    3.2,    0.2,   -0.9,    0.3,    1.1,    3.1,    4.8,    5.2,    4.8,    3.3,    1.8,    2.4,    3.5,    3.7,    4.2,    3.8,    3.1,    4.0,    5.4,    7.4,  999.0,    4.8,  999.0,    2.8,    4.6,    5.5,    5.1,    3.6,    1.3,    1.4,    2.5,    4.7,    2.8,    3.7,    4.7,    4.4,    2.5,    1.4,    2.8,    6.0,    4.5,    3.1,   -0.9,  999.0,  999.0
1987/09/09 07:35,  999.0,  999.0,  999.0,  999.0,  999.0,  999.0,  999.0,  999.0,  999.0,  999.0,  999.0,  999.0,  999.0,  999.0,  999.0,  999.0,  999.0,  999.0,  999.0,  999.0,  999.0,  999.0,    5.1,    4.9,    5.5,    6.1,    5.9,    5.2,    5.2,    5.3,    5.5,    5.9,    6.6,    7.1,    8.3,   10.6,   11.5,   11.5,   11.5,   11.0,   11.1,   10.6,    8.7,    8.2,    8.4,    6.8,    7.2,    7.6,    8.8,   10.2,   10.0,    9.5,    8.8,    9.5,   10.2,    9.6,   10.6,   11.7,   11.9,   12.5,   12.0,   11.7,   10.6,    9.4,   10.0,    9.9,    9.0,  999.0,  999.0,    8.7,    8.9,  999.0,    8.5,    7.3,    5.5,    3.1,    0.6,   -1.3,    0.1,    1.1,    3.5,    5.2,    6.0,    5.1,    4.1,    1.7,    2.5,    3.1,    3.4,    3.6,    2.9,    2.3,    4.3,    5.7,    6.7,    5.8,    4.0,    3.4,    3.7,    4.4,    5.5,    4.9,    3.8,    2.1,    1.5,    3.4,    4.7,    3.9,    5.0,    5.1,    5.9,    2.0,    0.9,    4.4,    5.5,    5.7,    3.6,    2.2,   -0.7,  999.0
1987/09/09 07:45,  999.0,  999.0,  999.0,  999.0,  999.0,  999.0,  999.0,  999.0,  999.0,  999.0,  999.0,  999.0,  999.0,  999.0,  999.0,  999.0,  999.0,  999.0,  999.0,  999.0,  999.0,  999.0,    5.5,    5.8,    6.0,    6.0,    5.2,    4.8,    5.0,    5.1,    4.8,    5.1,    5.4,    6.4,    8.0,   10.9,   11.7,   12.0,   11.8,   11.2,   12.0,   10.7,    9.3,    8.6,    6.6,    6.5,    6.7,    6.2,    7.9,    8.9,    9.6,    9.0,    8.8,    9.3,    9.9,    9.1,   10.2,   11.0,   11.5,   12.0,   11.6,   11.7,    9.7,    9.5,    9.2,    9.4,    9.3,  999.0,  999.0,    8.0,    9.1,  999.0,    8.5,    7.4,    5.4,    1.6,   -1.9,   -1.2,    0.1,    0.8,    3.5,    5.7,    6.5,    5.2,    5.6,    1.5,    2.7,    3.5,    4.0,    3.5,    3.8,    3.5,    4.9,    5.6,    6.3,    5.4,    4.0,    3.3,    3.8,    5.1,    5.6,    5.2,    4.2,    1.2,    1.5,    3.7,    4.4,    3.7,    3.7,    3.4,    4.5,    1.1,   -1.1,    4.0,    5.3,    4.5,    5.0,    1.8,   -0.3,   -0.2
1987/09/09 07:55,  999.0,  999.0,  999.0,  999.0,  999.0,  999.0,  999.0,  999.0,  999.0,  999.0,  999.0,  999.0,  999.0,  999.0,  999.0,  999.0,  999.0,  999.0,  999.0,  999.0,  999.0,  999.0,    5.7,    6.1,    6.3,    5.9,    4.8,    4.6,    4.9,    4.2,    4.2,    5.0,    5.6,    6.7,    8.8,   11.0,   11.6,   12.3,   11.8,   12.2,   12.8,   11.2,   10.4,    9.2,    7.6,    7.2,    7.1,    7.0,    8.1,    9.4,    9.5,    9.6,    8.9,    9.6,   10.5,    9.9,   10.0,   11.0,   11.5,   11.4,   11.7,   11.7,    9.6,    9.8,    9.2,    8.4,  999.0,  999.0,  999.0,    8.6,    8.4,  999.0,    8.5,    6.9,    4.1,    1.2,   -1.2,   -1.4,    0.2,    1.3,    3.9,    6.1,    5.8,    4.7,    1.9,    1.7,    2.6,    4.3,    3.5,    3.7,    4.2,    2.9,    4.0,    5.8,    6.4,    4.2,    4.2,    3.3,    3.9,    4.9,    5.9,    5.5,    3.4,    1.7,    2.0,    4.2,    5.1,    4.2,    4.4,    4.1,    4.7,    3.3,   -0.7,    3.2,    4.6,    5.0,  999.0,  999.0,   -0.9,  999.0
1987/09/09 08:05,  999.0,  999.0,  999.0,  999.0,  999.0,  999.0,  999.0,  999.0,  999.0,  999.0,  999.0,  999.0,  999.0,  999.0,  999.0,  999.0,  999.0,  999.0,  999.0,  999.0,  999.0,  999.0,    5.6,    5.8,    6.1,    5.3,    4.6,    4.3,    4.3,    4.0,    4.8,    5.4,    5.8,    7.0,    9.3,   10.0,   10.4,   10.9,   11.3,   10.9,   11.7,   10.7,   10.6,    9.2,    8.7,    7.4,    7.6,    7.2,    8.2,    8.9,    8.7,    9.9,   10.0,   10.4,   11.0,  999.0,   10.2,   11.2,   11.7,   12.1,   12.1,   11.6,    9.5,    9.9,    9.4,    8.4,  999.0,  999.0,  999.0,  999.0,    9.5,   11.7,    8.5,    6.7,    3.9,    0.3,   -2.2,   -1.0,   -0.2,    1.7,    3.5,    5.2,    5.9,    4.7,  999.0,    1.5,    2.9,    3.7,    3.7,    4.3,    4.0,    3.0,    3.9,    5.7,  999.0,  999.0,    3.7,    3.6,    3.1,    4.9,    5.6,    5.2,    3.6,    1.2,    2.5,    4.4,    4.9,    4.1,    5.0,    4.8,    5.3,    0.9,  999.0,    2.2,    3.8,    4.6,    4.2,  999.0,  999.0,    0.4
1987/09/09 08:15,  999.0,  999.0,  999.0,  999.0,  999.0,  999.0,  999.0,  999.0,  999.0,  999.0,  999.0,  999.0,  999.0,  999.0,  999.0,  999.0,  999.0,  999.0,  999.0,  999.0,  999.0,  999.0,    5.9,    5.8,    5.7,    4.9,    3.9,    4.1,    4.2,    4.2,    5.0,    5.5,    5.4,    6.5,    9.4,   10.7,   11.0,   11.3,   11.4,   11.9,   11.3,   11.4,   11.4,    9.1,    9.0,    8.1,    8.0,    7.2,    8.4,    9.2,    8.5,    9.7,    9.9,    9.9,   11.1,  999.0,   11.3,   10.8,   11.6,   11.7,   11.5,   11.9,   10.1,   10.2,   10.1,   10.2,  999.0,  999.0,  999.0,  999.0,    9.2,    9.2,    8.2,    6.4,    2.5,   -0.4,   -3.2,   -2.1,   -1.2,    0.6,    2.3,    4.9,    6.0,    4.7,  999.0,    1.5,    2.4,    3.7,    4.1,    4.5,    4.1,    3.8,    4.2,    6.3,    9.1,    6.4,    4.6,    3.1,    3.6,    5.3,    6.0,    6.0,    2.2,    1.1,    1.9,    3.8,    5.3,    3.0,    3.6,    4.6,    5.6,    1.2,   -0.9,    1.2,    2.9,    4.4,    4.1,   -1.1,   -0.5,    0.6
1987/09/09 08:25,  999.0,  999.0,  999.0,  999.0,  999.0,  999.0,  999.0,  999.0,  999.0,  999.0,  999.0,  999.0,  999.0,  999.0,  999.0,  999.0,  999.0,  999.0,  999.0,  999.0,  999.0,  999.0,    5.6,    6.1,    5.6,    4.6,    3.9,    3.6,    3.9,    4.0,    5.5,    5.6,    5.7,    6.8,   10.4,   10.8,   10.7,   11.2,   11.8,   12.0,   11.0,   11.0,   10.3,   10.2,    9.0,    8.2,    8.0,    7.4,    8.4,    8.9,    8.9,    9.8,    9.7,    9.7,   10.3,  999.0,  999.0,  999.0,   11.5,   11.5,   11.7,   12.5,   12.4,   10.8,   10.7,    9.8,    9.1,  999.0,  999.0,    8.8,    9.6,    9.8,    8.2,    6.7,    3.2,    0.7,   -1.4,   -1.6,   -0.3,    1.6,    3.1,    4.8,    5.8,    4.6,    2.5,    0.8,    1.5,    2.8,    3.1,    4.0,    2.9,    2.9,    4.2,    6.4,  999.0,  999.0,    4.4,    3.5,    3.8,    5.6,    6.7,    5.5,    6.4,    0.8,    1.6,    3.5,    5.1,    4.1,    4.1,    4.5,    5.1,    2.2,   -1.7,    0.7,  999.0,    4.0,    3.1,   -1.1,   -1.1,    0.1
1987/09/09 08:35,  999.0,  999.0,  999.0,  999.0,  999.0,  999.0,  999.0,  999.0,  999.0,  999.0,  999.0,  999.0,  999.0,  999.0,  999.0,  999.0,  999.0,  999.0,  999.0,  999.0,  999.0,  999.0,    6.0,    6.0,    5.7,    4.4,    3.7,    3.8,    3.7,    4.2,    5.8,    6.1,    6.9,    8.0,   10.3,   10.5,   10.5,   10.9,   11.2,   11.0,   10.9,   11.1,   10.1,    9.1,    8.8,    8.2,    8.1,    7.9,    9.0,    9.1,    9.1,   10.1,   10.9,   10.8,   11.2,   11.1,   11.5,   13.0,   11.8,   12.0,   11.9,   12.4,   12.5,   10.9,   10.1,    9.6,    9.4,   10.2,  999.0,   10.7,   10.2,   10.4,    8.7,    7.6,    4.9,    2.2,   -0.7,   -2.3,   -1.1,   -0.1,    2.6,    4.1,    5.1,    4.9,    2.8,    1.3,    2.5,    3.2,    3.0,    3.8,    3.4,    2.4,    3.7,    6.0,  999.0,    3.0,    2.4,    3.1,    4.2,    6.2,    5.8,    4.4,    1.8,    0.8,    1.6,    3.7,    4.9,    3.9,    4.1,    4.7,    5.5,    2.4,   -0.7,    1.0,    3.8,    3.8,    0.9,   -1.1,   -1.2,    0.4
1987/09/09 08:45,  999.0,  999.0,  999.0,  999.0,  999.0,  999.0,  999.0,  999.0,  999.0,  999.0,  999.0,  999.0,  999.0,  999.0,  999.0,  999.0,  999.0,  999.0,  999.0,  999.0,  999.0,  999.0,    6.7,    6.6,    6.1,    5.0,    4.7,    3.7,    3.8,    4.2,    6.0,    6.2,    7.0,    8.8,    9.7,   10.5,   10.5,   11.0,   10.9,    9.6,    9.9,   10.7,    9.4,    8.2,    8.5,    8.1,    8.0,    8.1,    8.6,    8.6,    8.8,    9.8,   10.3,   10.2,   10.7,   10.9,   11.5,   11.9,   11.9,   12.0,   10.5,  999.0,   11.2,   10.8,    9.1,    8.3,    9.1,    9.3,  999.0,  999.0,    9.8,    9.7,    9.9,    7.8,    4.9,    2.6,   -0.7,   -2.1,   -0.9,    0.5,    2.7,    3.8,    5.0,    5.1,    1.1,    1.5,    2.2,    3.7,    2.5,    3.2,    2.6,    2.9,    4.0,    5.6,    6.2,    3.0,    2.8,    1.0,    3.4,    5.6,    6.0,    4.9,    1.9,    1.2,    2.0,    4.1,    6.0,    4.4,    5.1,    5.7,    6.5,    3.6,   -0.7,    1.0,    3.9,    3.6,    3.3,   -1.9,   -0.8,    1.2
1987/09/09 08:55,  999.0,  999.0,  999.0,  999.0,  999.0,  999.0,  999.0,  999.0,  999.0,  999.0,  999.0,  999.0,  999.0,  999.0,  999.0,  999.0,  999.0,  999.0,  999.0,  999.0,  999.0,  999.0,    6.1,    6.4,    5.9,    4.7,    3.9,    3.6,    3.4,    4.6,    5.9,    6.1,    6.5,    6.6,    8.4,    9.4,    9.8,   10.5,   10.9,    9.9,    8.9,   10.2,    8.7,    8.2,    8.1,    8.5,    8.1,    8.2,    8.4,    9.1,    9.3,    9.7,   10.1,   10.6,   11.0,   10.9,   11.4,   12.1,   12.2,   12.2,   11.1,   10.7,   11.4,   10.1,    9.3,    8.7,    8.3,  999.0,  999.0,    9.5,   10.2,   10.6,    8.8,    6.4,    4.7,    2.1,   -1.1,   -1.4,   -0.4,    0.5,    2.3,    5.0,    4.8,    4.2,    3.4,    1.4,    1.9,    2.6,    3.0,    3.8,    1.8,    2.4,    3.8,    5.6,  999.0,    3.9,    2.6,    2.8,    2.8,    5.9,    6.6,    4.4,    2.0,    1.9,    2.2,    4.5,    6.7,    5.6,    6.2,    6.5,    7.6,    6.9,   -0.5,    0.9,    3.9,    3.5,    3.1,    0.0,  999.0,   -1.0
1987/09/09 09:05,  999.0,  999.0,  999.0,  999.0,  999.0,  999.0,  999.0,  999.0,  999.0,  999.0,  999.0,  999.0,  999.0,  999.0,  999.0,  999.0,  999.0,  999.0,  999.0,  999.0,  999.0,  999.0,    6.3,    6.4,    5.3,    4.7,    4.1,    4.1,    4.0,    4.9,    6.0,    6.3,    6.9,    7.1,    8.3,    9.6,   10.2,   11.2,   11.1,    9.4,    8.6,    9.3,    9.4,    8.0,    8.3,    8.5,    7.7,    7.7,    8.9,    9.6,    8.8,    9.5,   10.1,   10.8,   10.6,   10.7,   11.1,   11.5,   12.1,   12.1,   11.9,   10.7,   11.9,   11.5,   10.4,    9.7,    9.0,  999.0,  999.0,    9.2,   11.0,   10.8,    8.9,    7.3,    3.6,    1.2,   -0.6,   -3.1,   -1.0,   -0.5,    1.5,    2.4,    3.7,    3.5,   -0.1,    0.0,    1.9,    1.4,    1.2,    1.5,    1.7,    2.0,    4.4,    5.5,    4.5,    3.3,    2.2,    3.2,    4.6,    6.6,    5.7,    5.3,    2.3,    2.1,    3.0,    4.7,    6.2,    5.0,    5.5,    6.7,    7.0,    5.7,   -1.3,    0.4,    3.6,    4.3,    3.3,  999.0,   -2.4,   -0.1
1987/09/09 09:15,  999.0,  999.0,  999.0,  999.0,  999.0,  999.0,  999.0,  999.0,  999.0,  999.0,  999.0,  999.0,  999.0,  999.0,  999.0,  999.0,  999.0,  999.0,  999.0,  999.0,  999.0,  999.0,    5.9,    6.4,    5.0,    4.6,    3.6,    3.4,    3.9,    5.1,    6.3,    6.9,    6.6,    6.9,    8.0,    8.9,   10.1,   10.6,    9.7,    9.0,    7.7,    8.6,    8.9,    7.8,    8.2,    7.9,    6.8,    7.2,    8.7,    9.4,    9.4,    9.6,   10.4,   11.3,   11.3,   11.2,   11.4,   12.0,   12.3,   12.9,   13.0,   11.3,   12.1,   11.6,   11.1,   10.0,    9.8,   10.8,   10.7,   11.3,   11.5,   10.7,    9.7,    7.9,    5.1,    2.9,    0.5,   -0.8,   -0.2,    0.6,    1.9,    3.4,    4.6,    3.8,    1.7,    0.3,    1.3,    2.7,    4.2,    2.6,    2.1,    1.9,    3.3,    5.8,    5.3,    2.6,    1.5,    1.9,    4.1,    6.9,    6.5,    4.0,    2.0,    1.8,    2.7,    4.8,    5.6,    5.2,    5.8,    6.3,    6.8,  999.0,   -1.4,    1.9,    4.3,    5.2,    3.5,  999.0,   -1.2,   -0.1
1987/09/09 09:25,  999.0,  999.0,  999.0,  999.0,  999.0,  999.0,  999.0,  999.0,  999.0,  999.0,  999.0,  999.0,  999.0,  999.0,  999.0,  999.0,  999.0,  999.0,  999.0,  999.0,  999.0,  999.0,    5.8,    5.9,    4.6,    4.2,    3.8,    3.5,    3.5,    5.0,    6.7,    6.8,    6.7,    7.1,    8.2,    9.8,   10.5,   10.8,   10.5,    9.3,    9.1,    9.2,    8.7,    8.7,    9.2,    7.7,    6.7,    7.5,    8.4,    9.0,    9.7,   10.0,   10.8,   11.0,   11.5,   11.7,   11.5,   12.0,   12.2,   12.9,   13.1,   11.7,   11.7,   12.1,   11.3,   10.0,    9.8,    9.8,   10.8,   10.3,   11.1,    9.8,    8.1,    7.1,    3.8,    2.1,    0.8,   -0.7,   -0.4,    0.0,    2.2,    3.7,    4.1,    4.8,    1.1,   -0.2,    0.6,    2.5,    2.3,    3.5,    2.2,    2.0,    2.9,    5.0,    6.4,    3.3,    1.3,    1.7,    3.9,    6.9,    6.8,    3.3,    2.7,    2.1,    3.2,    4.9,    4.7,    4.7,    5.0,    5.5,    5.4,    0.9,   -1.9,    1.2,    4.0,    4.9,    3.0,  999.0,   -1.4,    1.1
1987/09/09 09:35,  999.0,  999.0,  999.0,  999.0,  999.0,  999.0,  999.0,  999.0,  999.0,  999.0,  999.0,  999.0,  999.0,  999.0,  999.0,  999.0,  999.0,  999.0,  999.0,  999.0,  999.0,  999.0,    6.4,    5.4,    4.7,    4.3,    3.1,    3.0,    3.8,    5.9,    6.3,    5.9,    5.5,    5.7,    6.3,    7.8,    9.3,   10.2,   10.7,   11.0,    9.6,    9.6,    9.0,    9.6,    8.3,    7.5,    7.2,    7.2,    8.1,    8.9,    8.9,    9.7,   10.7,   11.5,   11.3,   11.5,   11.2,   11.7,   12.3,   13.0,   13.2,   12.4,   11.9,   12.3,   11.7,   10.8,   10.5,   11.6,   11.4,   11.8,   11.1,    9.4,    8.4,    6.2,    4.0,    2.4,    1.1,   -0.0,   -0.7,    0.2,    2.3,    4.1,    4.5,    4.1,    0.3,    0.1,    0.5,    3.0,    2.7,    3.1,    2.6,    1.6,    2.5,    5.1,    6.9,    3.0,    0.7,    1.4,    3.2,    6.1,    6.7,    3.9,    2.2,    2.2,    3.9,    5.2,    4.0,    4.1,    5.3,    4.4,    4.3,    1.9,   -2.7,   -1.2,    2.7,    4.0,    2.5,  999.0,   -1.4,   -0.4
1987/09/09 09:45,  999.0,  999.0,  999.0,  999.0,  999.0,  999.0,  999.0,  999.0,  999.0,  999.0,  999.0,  999.0,  999.0,  999.0,  999.0,  999.0,  999.0,  999.0,  999.0,  999.0,  999.0,  999.0,    7.4,    6.2,    5.3,    3.9,    3.2,    3.0,    4.1,    5.1,    5.5,    4.3,    4.8,    5.1,    5.1,    6.5,    9.0,   10.4,   11.0,   11.6,   10.4,   10.2,   10.3,   10.5,    8.4,    8.4,    6.4,    6.9,    6.2,    7.8,    8.9,   10.2,   11.0,   11.5,   11.5,   11.3,   11.3,   12.2,   12.6,   12.8,   12.6,   11.7,   11.1,   10.9,   10.2,    9.3,    9.2,   10.4,    9.0,   10.3,    9.6,    8.5,    7.4,    5.4,    3.1,    1.4,   -0.6,   -0.0,   -0.7,    0.2,    2.1,    4.1,    4.5,    2.8,    0.5,    0.0,   -0.2,    1.3,    2.3,    3.4,    2.6,    1.9,    2.9,    5.5,    8.1,    6.1,    4.4,    2.5,    3.0,    6.3,    7.2,    5.2,    1.3,    1.6,    3.2,    5.0,    4.8,    2.8,    4.4,    4.7,    4.1,    2.0,   -2.7,   -1.9,    2.5,    3.9,    2.9,    1.5,   -0.6,    1.7
1987/09/09 09:55,  999.0,  999.0,  999.0,  999.0,  999.0,  999.0,  999.0,  999.0,  999.0,  999.0,  999.0,  999.0,  999.0,  999.0,  999.0,  999.0,  999.0,  999.0,  999.0,  999.0,  999.0,  999.0,    6.6,    5.9,    5.8,    4.3,    4.0,    4.0,    4.5,    5.1,    5.2,    4.9,    4.3,    4.4,    4.6,    7.4,    9.6,   10.9,   11.2,   12.0,   11.0,   11.0,   11.1,   11.5,    9.3,    9.2,    7.4,    7.0,    6.6,    8.4,   10.1,   11.4,   12.3,   12.7,   12.8,   12.1,   12.1,   12.6,   13.2,   14.0,   12.1,   12.3,   12.4,   11.7,   10.4,    9.7,    9.0,   10.7,    9.3,   10.2,   10.4,    9.5,    7.6,    5.9,    3.5,    1.5,   -1.3,   -2.0,   -0.7,   -0.1,    1.4,    3.8,    4.6,    3.3,  999.0,    0.3,   -0.1,    1.8,    2.8,    3.2,    2.4,    2.3,    3.2,    5.3,    8.4,    7.4,    6.0,    2.9,    3.5,    6.2,    6.9,    4.7,    0.4,    1.3,    3.2,    5.2,    4.3,    1.7,    3.7,    3.9,    3.8,    3.5,   -1.8,   -1.9,    3.2,    4.2,    3.3,    2.1,    0.4,    2.6
1987/09/09 10:05,  999.0,  999.0,  999.0,  999.0,  999.0,  999.0,  999.0,  999.0,  999.0,  999.0,  999.0,  999.0,  999.0,  999.0,  999.0,  999.0,  999.0,  999.0,  999.0,  999.0,  999.0,  999.0,    5.7,    5.4,    5.5,    3.7,    4.1,    4.0,    4.6,    5.5,    5.4,    5.0,    4.8,    5.6,    6.4,    7.7,    8.9,    9.3,    9.9,   10.1,    9.1,   10.1,   10.4,   11.6,    9.3,    8.7,    7.7,    7.0,    6.7,    7.9,   10.1,   11.0,   11.9,   12.5,   12.8,   11.3,   11.3,   12.1,   13.0,   13.2,   11.3,   11.7,   10.7,   10.3,    9.5,    9.4,    9.0,   10.7,    9.6,   10.5,   11.2,    9.0,    7.0,    6.3,    3.7,    0.9,   -1.5,   -1.2,   -1.1,   -0.0,    2.0,    4.4,    5.2,    5.5,    1.4,    0.6,    0.3,    1.2,    2.0,    2.8,    2.4,    2.2,    2.9,    5.5,    8.2,    6.4,    4.1,    2.0,    2.8,    5.9,    6.2,    3.2,    0.6,    1.3,    3.6,    5.7,    4.7,    3.5,    4.6,    5.6,    3.8,    3.8,   -1.4,   -1.2,    3.0,    3.3,    3.3,  999.0,    0.1,    3.8
1987/09/09 10:15,  999.0,  999.0,  999.0,  999.0,  999.0,  999.0,  999.0,  999.0,  999.0,  999.0,  999.0,  999.0,  999.0,  999.0,  999.0,  999.0,  999.0,  999.0,  999.0,  999.0,  999.0,  999.0,    6.5,    5.8,    5.2,    4.0,    3.8,    4.0,    4.7,    5.0,    5.3,    4.9,    4.6,    5.0,    6.8,    7.9,    9.2,   10.4,   10.9,   10.2,    8.5,    9.1,    9.6,    9.7,    8.4,    7.2,    7.3,    6.7,    6.8,    7.6,    9.5,   10.5,   12.0,   12.2,   12.3,   10.7,   11.6,   11.9,   13.0,   13.3,   12.4,   11.9,   11.1,   11.0,    9.6,    9.9,    9.8,    9.5,   10.1,   11.1,   11.2,    8.9,    7.2,    5.5,    3.1,   -0.0,   -1.0,   -0.4,    0.2,    0.4,    2.2,    4.1,    5.6,    3.5,    2.5,   -0.3,   -0.3,    0.8,    2.3,    3.1,    2.6,    1.7,    2.0,    4.5,    7.3,    5.9,    3.6,    1.5,    3.4,    6.4,    6.3,    2.4,    1.5,    1.3,    3.5,    6.5,    4.1,    3.2,    4.7,    5.1,    4.1,    4.2,    1.4,   -1.5,    2.8,    3.4,    3.5,    3.8,    0.5,    4.1
1987/09/09 10:25,  999.0,  999.0,  999.0,  999.0,  999.0,  999.0,  999.0,  999.0,  999.0,  999.0,  999.0,  999.0,  999.0,  999.0,  999.0,  999.0,  999.0,  999.0,  999.0,  999.0,  999.0,  999.0,    7.2,    6.1,    5.7,    4.3,    4.4,    4.7,    4.3,    4.7,    4.9,    4.6,    4.8,    5.3,    6.9,    8.5,    9.3,   10.6,   11.0,    9.6,    9.3,   10.1,   10.6,   11.3,    9.5,    9.3,    8.3,    8.4,    7.1,    8.0,    9.4,   10.0,   11.6,   11.8,   12.0,   10.6,   11.5,   11.7,   12.5,   13.3,   13.3,   12.3,   11.3,   10.9,    9.9,    9.9,   10.5,   10.8,   10.9,   11.6,   10.2,    7.8,    6.0,    2.3,    1.7,   -0.6,   -1.3,   -1.1,   -0.7,   -0.5,    2.0,    4.4,    4.9,    3.9,    1.4,    0.5,    0.1,    0.2,    2.1,    2.1,    3.0,    2.1,    2.9,    4.0,    7.2,    7.1,    4.4,    2.7,    4.2,    7.4,    7.1,    2.3,    1.3,    1.7,    4.6,    6.0,    4.1,  999.0,    3.5,    6.1,    4.3,    4.6,   -1.0,   -1.6,    2.7,    3.3,    4.4,    4.4,    0.7,    4.0
1987/09/09 10:35,  999.0,  999.0,  999.0,  999.0,  999.0,  999.0,  999.0,  999.0,  999.0,  999.0,  999.0,  999.0,  999.0,  999.0,  999.0,  999.0,  999.0,  999.0,  999.0,  999.0,  999.0,  999.0,    6.1,    5.3,    4.7,    4.2,    4.3,    4.3,    4.7,    4.6,    4.7,    5.5,    5.9,    6.6,    7.8,    8.6,    9.3,   10.2,   10.5,    9.9,    9.0,    9.4,   10.3,   10.4,    9.1,    9.3,    7.8,    7.7,    7.9,    8.0,    9.2,   10.4,   11.7,   11.5,   11.6,   11.0,   10.6,   11.1,   11.8,   12.6,   12.8,   12.4,   12.0,   11.5,   10.9,   10.2,   10.1,   10.2,   11.1,   11.5,    8.6,    7.2,    5.0,    3.7,    1.3,   -0.7,  999.0,   -0.9,   -0.1,    0.7,    3.1,    5.0,    5.3,    2.7,    2.3,    0.7,   -0.1,    1.5,    2.8,    3.5,    2.8,    2.4,    3.1,    4.1,    6.7,    7.4,    3.1,    1.9,    4.1,    7.2,    7.0,    3.9,  999.0,    2.2,    4.6,    6.1,    4.3,    2.5,    3.7,    4.9,    5.2,    5.6,   -0.6,   -1.4,    2.2,    3.7,    4.6,    2.0,    1.4,    3.8
1987/09/09 10:45,  999.0,  999.0,  999.0,  999.0,  999.0,  999.0,  999.0,  999.0,  999.0,  999.0,  999.0,  999.0,  999.0,  999.0,  999.0,  999.0,  999.0,  999.0,  999.0,  999.0,  999.0,  999.0,    6.1,    5.4,    4.5,    3.6,    4.2,    4.1,    4.1,    3.9,    3.9,    4.7,    5.3,    5.8,    6.4,    6.9,    8.0,    9.3,    8.8,    8.9,    8.4,    9.0,    9.7,    9.4,    9.0,    9.1,    8.2,    7.7,    8.2,    7.4,    9.0,   10.3,   11.6,   12.2,   12.4,   12.0,   10.9,   11.6,   12.0,   12.8,   13.4,   13.3,   12.5,   12.3,   11.5,   10.1,  999.0,    9.8,   10.4,   10.4,   10.1,    7.8,    5.9,    4.0,    1.7,   -1.0,   -2.3,   -0.9,    0.2,    0.5,    3.1,    4.4,    4.4,    4.0,    2.4,    0.1,   -0.1,   -0.4,   -0.2,    2.2,    1.7,    0.8,    2.0,    3.4,    6.9,    5.6,    1.9,    1.9,    5.1,    8.1,    8.3,    3.9,    1.6,    2.6,    4.8,    6.9,    5.2,    2.3,    4.7,    5.0,    5.1,    4.9,   -1.7,   -0.4,    2.2,    3.7,    4.9,    3.9,    1.2,  999.0
1987/09/09 10:55,  999.0,  999.0,  999.0,  999.0,  999.0,  999.0,  999.0,  999.0,  999.0,  999.0,  999.0,  999.0,  999.0,  999.0,  999.0,  999.0,  999.0,  999.0,  999.0,  999.0,  999.0,  999.0,    5.5,    5.3,    4.7,    4.6,    4.7,    4.4,    4.2,    4.4,    4.4,    4.8,    5.3,    5.8,    5.8,    6.4,    8.8,    9.5,    8.7,    9.1,    8.6,    8.9,   10.0,    9.7,    9.4,    9.3,    8.0,    8.1,    7.8,    7.3,    8.4,   10.3,   11.6,   12.1,   12.2,   11.1,   10.1,   11.0,   11.8,   12.5,   13.5,   13.2,   12.6,   11.8,   11.5,   10.3,  999.0,   10.3,    9.7,   10.3,   11.2,    7.6,    5.6,    3.8,    1.8,   -0.9,   -0.9,   -1.1,   -0.9,    0.7,    3.3,    3.5,    6.5,  999.0,    1.1,    0.9,   -1.3,    0.1,    0.9,    2.5,    2.4,    0.3,    1.3,    4.0,    6.2,    6.9,    1.3,    1.4,    4.8,    8.3,    7.7,    4.4,    1.3,    2.9,    5.8,    7.5,    6.0,    3.5,    5.6,    4.5,    4.6,    3.1,   -1.4,   -0.9,    3.0,    3.9,    6.0,  999.0,    1.7,    3.8
1987/09/09 11:05,  999.0,  999.0,  999.0,  999.0,  999.0,  999.0,  999.0,  999.0,  999.0,  999.0,  999.0,  999.0,  999.0,  999.0,  999.0,  999.0,  999.0,  999.0,  999.0,  999.0,  999.0,  999.0,    5.1,    3.9,    3.1,    2.9,    3.7,    3.2,    3.0,    3.6,    3.8,    4.1,    4.6,    5.1,    5.4,    5.7,    9.2,    8.7,    9.2,    9.1,    8.8,    9.5,   10.0,    8.5,    8.4,    7.8,    6.6,    7.3,    6.4,    6.6,    8.7,   10.2,   11.5,   12.3,   12.5,   12.1,   10.9,   11.7,   12.6,   13.3,   13.0,   12.8,   12.3,   12.6,   12.2,   11.4,  999.0,  999.0,    9.7,   10.5,   11.0,    8.4,    6.0,    3.5,    1.1,   -0.9,    0.4,    0.7,   -0.5,    1.5,    2.5,    4.0,    5.1,    4.7,    3.2,    0.3,   -0.4,    0.3,    2.3,    1.6,    2.3,    0.7,    2.1,    4.3,    6.7,    3.3,    1.7,    2.1,    3.5,    7.7,    8.8,    4.1,    1.8,    3.5,    5.6,    7.1,    6.3,    4.6,    5.5,    4.6,    3.6,    2.6,   -1.1,   -0.5,  999.0,    3.6,    5.0,  999.0,  999.0,    2.1
1987/09/09 11:15,  999.0,  999.0,  999.0,  999.0,  999.0,  999.0,  999.0,  999.0,  999.0,  999.0,  999.0,  999.0,  999.0,  999.0,  999.0,  999.0,  999.0,  999.0,  999.0,  999.0,  999.0,  999.0,    6.0,    4.7,    4.1,    3.5,    4.3,    4.2,    4.1,    3.6,    3.8,    5.0,    4.3,    5.0,    5.7,    5.7,    8.0,    8.6,    9.1,    9.2,    9.4,   10.0,   10.1,    8.6,    8.9,    7.1,    6.0,    6.8,    7.1,    7.5,    8.0,    9.9,   11.4,   13.0,   13.2,   11.5,   10.8,   11.8,   12.2,   12.5,   12.8,   12.3,   13.0,   11.8,   11.3,   10.2,   10.2,    8.8,   10.3,   10.5,   10.0,    7.0,    4.4,    3.3,    0.6,   -1.5,   -0.3,   -1.0,   -1.0,    0.0,    2.5,    2.8,    5.0,    4.3,    2.6,   -0.8,   -0.5,    0.3,    2.0,    2.8,    1.6,   -0.2,    1.5,    3.6,    7.0,    4.9,    2.4,    1.3,    2.9,    6.7,    8.2,    4.3,    2.1,    3.8,    6.5,    8.0,    6.6,    2.7,    5.6,    5.5,    4.6,    2.7,   -0.6,  999.0,    3.5,    4.1,    5.6,    5.7,    1.6,  999.0
1987/09/09 11:25,  999.0,  999.0,  999.0,  999.0,  999.0,  999.0,  999.0,  999.0,  999.0,  999.0,  999.0,  999.0,  999.0,  999.0,  999.0,  999.0,  999.0,  999.0,  999.0,  999.0,  999.0,  999.0,    5.3,    4.4,    3.9,    4.0,    4.5,    4.3,    4.3,    4.2,    4.5,    4.9,    4.8,    5.4,    5.7,    5.8,    7.8,    8.4,    8.4,    8.4,    8.7,    8.7,    8.7,    7.9,    7.4,    5.1,    5.8,    6.4,    6.9,    6.7,    7.8,    9.1,   11.3,   12.3,   12.0,   11.2,   10.5,   11.8,   11.9,   12.4,   12.6,   12.2,   12.3,   12.2,   11.1,   10.5,    9.5,    9.5,   10.6,   10.7,    9.8,    6.4,    5.2,    2.7,    0.2,   -0.5,   -0.7,   -0.5,   -0.3,    0.8,    2.0,    3.2,    5.1,    2.7,    2.4,    0.7,   -0.3,    1.2,    2.7,    3.2,    1.5,   -0.0,    0.8,    4.3,    6.4,    6.1,    1.6,    1.1,    2.9,    7.0,    8.5,    4.0,    2.3,    4.5,    7.5,    7.4,    6.1,    3.9,    4.5,    5.1,    3.6,    2.3,   -1.0,    0.7,    3.0,    4.1,    5.3,    5.7,    4.3,    3.1
1987/09/09 11:35,  999.0,  999.0,  999.0,  999.0,  999.0,  999.0,  999.0,  999.0,  999.0,  999.0,  999.0,  999.0,  999.0,  999.0,  999.0,  999.0,  999.0,  999.0,  999.0,  999.0,  999.0,  999.0,    5.3,    4.3,    4.2,    5.0,    5.3,    5.1,    4.8,    4.7,    4.5,    4.6,    4.4,    4.9,    5.4,    6.6,    8.5,    9.4,    8.8,    9.5,    9.9,    9.2,    9.1,    8.6,    7.0,    6.1,    6.2,    6.7,    6.9,    7.3,    7.5,    8.8,   10.8,   12.4,   12.1,   11.8,   10.3,   11.2,   11.4,   12.1,   12.6,   13.0,   12.5,   11.5,   11.0,   10.9,    9.8,   10.1,   10.3,    9.9,    8.3,    5.7,    4.3,    1.5,   -0.9,   -0.7,  999.0,   -0.5,   -0.1,    0.7,    1.7,    3.6,    5.0,    3.6,    1.6,    0.6,    0.7,    1.7,    3.5,  999.0,    2.3,    0.6,    0.5,    3.9,    6.4,    5.7,    1.9,    0.7,    2.0,    5.2,    7.6,    4.8,    3.0,    4.9,    6.5,    7.7,    6.6,    4.2,    4.8,    6.2,    4.0,    1.8,   -1.5,   -0.7,    3.5,    2.8,    4.2,    6.5,    1.9,    2.9
1987/09/09 11:45,  999.0,  999.0,  999.0,  999.0,  999.0,  999.0,  999.0,  999.0,  999.0,  999.0,  999.0,  999.0,  999.0,  999.0,  999.0,  999.0,  999.0,  999.0,  999.0,  999.0,  999.0,  999.0,    4.0,    3.5,    3.6,    4.3,    4.3,    4.3,    4.2,    4.5,    4.5,    4.4,    4.2,    4.6,    5.6,    7.6,    9.2,    9.4,    8.8,    8.9,    9.3,    9.5,    8.8,    8.7,    8.0,    6.7,    6.8,    7.6,    8.1,    7.9,    7.5,    8.8,   11.0,   12.7,   13.1,   11.8,   11.4,   11.6,   12.0,   12.5,   13.0,   14.1,   13.7,   13.2,   11.7,   11.0,   10.3,   10.0,   10.6,    9.3,    7.2,    5.9,    4.1,    1.1,   -0.6,    0.0,    0.8,   -0.1,    0.4,    1.6,    2.8,    4.3,    5.0,    4.8,    2.0,    1.5,    0.4,    3.1,    3.9,    5.0,    3.5,    1.4,    1.3,    3.9,    6.8,    6.7,    2.1,    0.5,    2.1,    4.7,    7.5,    4.8,    2.1,    5.0,    6.3,    6.9,    6.5,    2.5,    4.8,    4.4,    4.7,    3.1,   -1.1,    0.3,    3.3,    3.5,    4.8,    5.9,    3.2,    3.8
1987/09/09 11:55,  999.0,  999.0,  999.0,  999.0,  999.0,  999.0,  999.0,  999.0,  999.0,  999.0,  999.0,  999.0,  999.0,  999.0,  999.0,  999.0,  999.0,  999.0,  999.0,  999.0,  999.0,  999.0,    4.6,    4.2,    4.1,    4.3,    4.1,    4.2,    4.6,    4.7,    4.4,    3.8,    4.0,    4.3,    6.0,    7.6,    8.6,    9.0,    8.6,    8.8,    9.6,    8.4,    7.7,    7.8,    7.2,    6.7,    6.7,    7.4,    7.8,    7.2,    7.2,    8.7,   10.8,   13.2,   12.4,   11.9,   11.2,   12.3,   12.4,   13.1,   13.7,   13.8,   14.6,   13.5,   12.6,   11.7,   10.7,   10.5,   10.9,   10.1,    7.7,    6.1,    4.2,    1.2,   -0.4,    0.3,    0.1,    0.3,   -0.0,    1.1,    2.9,    4.3,    4.3,    3.5,    2.0,    0.5,    0.9,    1.5,    3.3,    2.1,    3.4,    2.5,    1.2,    3.3,    6.8,    7.1,    3.9,    0.4,    2.4,    4.9,    6.9,    3.3,    2.5,    4.5,    6.4,    7.6,    5.4,    2.0,    4.2,    3.8,    4.7,    2.8,   -0.0,   -1.2,    3.4,    3.1,    4.6,    5.4,  999.0,    3.9
1987/09/09 12:05,  999.0,  999.0,  999.0,  999.0,  999.0,  999.0,  999.0,  999.0,  999.0,  999.0,  999.0,  999.0,  999.0,  999.0,  999.0,  999.0,  999.0,  999.0,  999.0,  999.0,  999.0,  999.0,    6.1,    4.5,    4.5,    4.7,    4.7,    5.4,    5.3,    4.8,    4.0,    3.6,    4.2,    5.0,    5.9,    7.3,    7.9,    8.4,    8.0,    8.0,    8.6,    7.9,    8.0,    8.1,    8.1,    7.2,    6.3,    7.5,    7.1,    7.1,    7.5,    8.4,   10.7,   12.7,   13.0,   12.5,   11.2,   11.8,   12.4,   12.6,   13.1,   13.4,   14.3,   14.0,   12.1,   11.1,   12.1,   10.1,   10.2,    9.3,    6.1,    5.9,    3.0,    0.9,   -0.4,   -0.5,   -0.5,   -0.5,   -0.4,    0.9,    1.6,    2.9,    2.9,  999.0,    0.9,    1.2,    0.4,    1.0,    1.1,    2.6,    3.2,    1.0,    0.1,    1.7,    5.9,    6.6,    3.0,    0.8,    2.7,    5.5,    7.2,    2.9,    3.4,    5.5,    6.9,    7.2,  999.0,    3.5,  999.0,    5.1,    4.8,    4.1,    1.4,   -0.6,    3.6,    3.1,    3.7,    3.2,    2.6,    3.5
1987/09/09 12:15,  999.0,  999.0,  999.0,  999.0,  999.0,  999.0,  999.0,  999.0,  999.0,  999.0,  999.0,  999.0,  999.0,  999.0,  999.0,  999.0,  999.0,  999.0,  999.0,  999.0,  999.0,  999.0,    6.2,    4.9,    4.6,    4.5,    4.2,    3.6,    3.7,    3.9,    3.7,    3.6,    3.7,    4.1,    5.2,    6.3,    7.4,    7.9,    7.5,    7.1,    7.8,    7.8,    8.0,    7.6,    7.9,    7.5,    5.9,    6.4,    6.5,    6.5,    6.9,    8.6,   10.8,   13.5,   13.2,   12.9,   11.5,   11.8,   12.8,   12.6,   13.6,   13.8,   13.7,   13.6,   12.0,   11.2,   10.8,    9.9,   10.0,    8.5,    6.3,    4.8,    2.3,   -0.4,   -1.4,   -0.5,   -0.9,   -2.1,   -0.6,    0.4,    1.6,    2.8,    3.5,    1.8,    1.7,    0.9,    0.7,    1.9,    3.0,    3.0,    3.4,    1.3,    0.9,    3.5,    6.5,    5.7,    2.1,   -0.2,    3.1,    6.5,    7.4,    3.8,    3.7,    5.4,    7.2,    7.0,    5.6,  999.0,    4.2,    3.9,    3.2,    4.2,    1.7,    1.6,    4.0,    3.1,    4.3,    6.4,    2.9,    3.5
1987/09/09 12:25,  999.0,  999.0,  999.0,  999.0,  999.0,  999.0,  999.0,  999.0,  999.0,  999.0,  999.0,  999.0,  999.0,  999.0,  999.0,  999.0,  999.0,  999.0,  999.0,  999.0,  999.0,  999.0,    5.9,    4.8,    4.7,    4.4,    3.8,    3.4,    3.3,    3.1,    2.8,    2.1,    2.7,    3.3,    5.1,    6.3,    7.3,    7.8,    8.1,    7.2,    7.8,    8.6,    8.5,    9.1,    8.7,    8.1,    5.7,    5.7,    6.9,    6.5,    6.6,    8.1,   10.5,   12.4,   11.9,   12.1,   11.4,   11.7,   12.2,   12.5,   12.9,   13.2,   13.3,   11.9,   11.3,   10.8,   10.0,   10.6,    8.8,    6.9,    5.4,    4.0,    2.0,   -0.4,   -1.1,   -0.5,   -1.2,   -1.8,   -0.6,   -0.4,   -0.1,    2.4,    3.1,    2.8,    2.0,    0.5,    0.2,    2.3,    2.8,    3.1,    2.7,    1.2,    0.7,    2.2,    6.0,    7.2,    3.0,    0.2,    2.2,    5.9,    7.1,    3.2,    4.6,    6.2,    7.9,    8.0,    6.2,    3.7,  999.0,    2.6,    4.8,    4.2,    2.1,    0.9,    4.0,    5.1,    4.7,  999.0,    3.4,    3.4
1987/09/09 12:35,  999.0,  999.0,  999.0,  999.0,  999.0,  999.0,  999.0,  999.0,  999.0,  999.0,  999.0,  999.0,  999.0,  999.0,  999.0,  999.0,  999.0,  999.0,  999.0,  999.0,  999.0,  999.0,    5.7,    4.4,    4.7,    3.7,    4.2,    4.0,    3.2,    3.6,    3.8,    2.3,    2.6,    3.8,    5.3,    6.6,    8.0,    8.6,    8.9,    8.0,    8.1,    8.5,    7.8,    8.9,    8.0,    7.9,    6.4,    6.1,    5.9,    7.2,    7.5,    8.6,   11.0,   12.9,   12.6,   11.9,   11.1,   11.6,   12.0,   12.4,   13.6,   13.4,   13.1,   11.9,   10.9,   11.0,   10.4,   10.5,    9.1,    7.4,    4.8,    4.2,    2.5,    0.1,   -0.3,   -0.1,   -0.5,   -1.2,    0.1,   -0.0,    2.5,    3.7,    3.3,    2.5,    1.3,    0.5,    0.2,    1.5,    2.8,    2.9,    2.7,    1.9,    0.5,    1.5,    5.8,    7.5,    4.2,    0.2,    3.1,    5.7,    7.1,    3.3,    4.4,    6.0,    7.4,    7.7,    5.5,  999.0,    4.0,    3.5,    4.2,    4.1,    2.4,    1.4,    4.0,    5.7,    4.8,    4.3,    2.7,    4.0
1987/09/09 12:45,  999.0,  999.0,  999.0,  999.0,  999.0,  999.0,  999.0,  999.0,  999.0,  999.0,  999.0,  999.0,  999.0,  999.0,  999.0,  999.0,  999.0,  999.0,  999.0,  999.0,  999.0,  999.0,    6.3,    4.7,    5.2,    4.3,    4.8,    4.8,    3.9,    4.3,    3.4,    2.7,    3.0,    3.7,    5.0,    6.5,    7.5,    8.1,    8.0,    7.5,    7.0,    6.7,    7.5,    8.4,    7.5,    7.5,    5.5,    5.5,    6.2,    6.8,    6.3,    8.5,   11.3,   13.6,   12.3,   12.3,   11.1,   11.6,   12.2,   12.5,   13.4,   13.6,   13.3,   11.5,   10.9,   10.8,   10.3,   10.5,    9.5,  999.0,    6.0,    5.0,    2.8,    2.3,    1.2,    1.3,   -0.2,    0.3,    0.7,    1.4,    3.7,    3.7,    3.5,    2.3,    1.4,    0.4,   -0.9,    5.6,    1.0,    3.5,    2.7,    2.2,    0.7,    1.1,    5.4,    6.9,    4.3,    1.3,    3.1,    5.9,    7.1,    3.2,    4.6,    7.0,    7.9,    7.0,    3.4,  999.0,    5.7,    2.7,    4.4,    4.0,    2.7,    1.8,    3.9,    5.7,    5.2,    5.4,    4.7,    4.0
1987/09/09 12:55,  999.0,  999.0,  999.0,  999.0,  999.0,  999.0,  999.0,  999.0,  999.0,  999.0,  999.0,  999.0,  999.0,  999.0,  999.0,  999.0,  999.0,  999.0,  999.0,  999.0,  999.0,  999.0,    6.1,    4.3,    5.2,    4.5,    4.9,    4.7,    4.4,    4.5,    3.9,    2.8,    3.3,    4.2,    5.4,    6.7,    8.0,    8.4,    8.4,    8.2,    7.6,    7.1,    8.0,    8.6,    8.3,    7.6,    7.5,    6.5,    7.3,    7.7,    7.2,    8.4,    9.9,   12.1,   12.9,   12.0,   12.5,   12.0,   12.2,   11.7,   12.8,   13.5,   13.1,   12.4,   11.3,   10.5,   10.6,   10.1,    8.4,    5.4,    4.5,    4.4,    3.0,    1.4,    1.1,    0.5,   -0.6,   -1.1,    0.9,    1.7,    3.3,    3.7,    3.5,    2.9,    2.3,    1.2,   -0.3,    0.1,    2.0,    2.9,    3.0,    2.7,    0.7,    1.5,    5.0,    6.5,    4.2,    0.3,    3.4,    6.3,    7.0,    3.7,    5.5,    7.6,    7.2,    6.0,    3.4,    1.7,    5.4,    5.1,    2.1,    4.7,    2.8,    1.8,    2.0,    5.2,    5.1,  999.0,  999.0,  999.0
1987/09/09 13:05,  999.0,  999.0,  999.0,  999.0,  999.0,  999.0,  999.0,  999.0,  999.0,  999.0,  999.0,  999.0,  999.0,  999.0,  999.0,  999.0,  999.0,  999.0,  999.0,  999.0,  999.0,  999.0,    6.2,    4.6,    5.2,    4.9,    5.3,    5.0,    4.7,    3.9,    2.9,    2.1,    3.1,    4.2,    5.6,    6.4,    7.6,    8.2,    8.0,    7.9,    7.7,    7.3,    8.0,    8.9,    8.3,    6.8,    6.9,    6.6,    7.1,    7.8,    7.7,    8.6,   10.6,   12.3,   12.8,   12.9,   12.6,   11.2,   11.1,   11.9,   12.1,   12.1,   12.8,   12.6,   11.2,   10.3,    9.3,    9.7,    9.4,    6.8,    5.0,    3.7,    3.3,    2.1,    0.5,    0.2,   -0.6,   -1.1,    1.0,    2.0,    2.6,    3.8,    3.2,    2.7,    1.0,    0.8,    0.1,    1.0,    2.0,    3.1,    2.7,   -0.1,    0.9,    2.7,    6.6,    6.4,    2.6,    1.8,    4.1,    7.3,    7.5,    2.9,    4.7,    6.2,    7.3,    5.7,    2.6,    0.6,    4.1,    4.5,    1.4,    3.9,    3.5,    1.8,    1.9,    4.7,    4.9,    4.8,    5.3,    5.6
1987/09/09 13:15,  999.0,  999.0,  999.0,  999.0,  999.0,  999.0,  999.0,  999.0,  999.0,  999.0,  999.0,  999.0,  999.0,  999.0,  999.0,  999.0,  999.0,  999.0,  999.0,  999.0,  999.0,  999.0,    5.7,    4.4,    4.9,    4.2,    4.4,    3.8,    3.6,    3.0,    2.3,    1.9,    2.1,    3.1,    4.8,    5.5,    6.8,    7.8,    7.2,    7.4,    6.7,    6.8,    7.3,    7.8,    7.5,    6.4,    6.5,    6.5,    7.5,    7.9,    8.5,    9.7,   11.8,   13.2,   13.5,   12.5,   10.6,   11.2,   11.0,   11.7,   12.4,   13.0,   13.4,   13.6,   11.0,    9.7,    9.5,    9.8,    8.8,    7.8,    5.5,    4.7,    3.6,    1.8,    1.2,    1.7,    0.9,    0.0,    0.4,    2.4,    2.9,    3.8,    3.5,    3.1,    1.8,    0.6,   -0.1,    2.0,    1.9,    2.3,    2.6,    1.0,    0.7,    3.1,    6.3,    5.8,    1.1,    2.9,    5.7,    7.6,    8.3,    2.9,    4.6,    6.3,    7.7,    6.2,    2.0,  999.0,    3.7,    4.2,    1.7,    2.7,    2.2,    2.3,    1.8,    4.8,    5.2,    4.7,    4.8,    5.3
1987/09/09 13:25,  999.0,  999.0,  999.0,  999.0,  999.0,  999.0,  999.0,  999.0,  999.0,  999.0,  999.0,  999.0,  999.0,  999.0,  999.0,  999.0,  999.0,  999.0,  999.0,  999.0,  999.0,  999.0,    6.0,    4.9,    5.3,    5.3,    4.8,    4.5,    3.8,    3.3,    2.0,    1.0,    1.7,    2.8,    4.7,    5.5,    6.6,    7.9,    8.0,    7.4,    6.7,    6.8,    7.3,    7.7,    7.0,    7.3,    6.2,    6.7,    6.8,    7.5,    8.8,   10.3,   12.3,   13.3,   12.3,   11.6,   10.8,   11.0,   10.9,   11.1,   12.0,   13.1,   13.1,   11.9,   10.6,    9.0,    9.2,   10.1,    9.3,  999.0,    5.3,    4.4,    3.6,    1.3,    0.6,    0.2,    0.9,   -0.6,    0.3,    1.9,    2.7,    3.1,    3.4,    3.6,    1.9,   -0.0,   -0.6,    0.4,    1.9,    2.2,    3.0,    1.0,    0.9,    3.3,    6.9,    6.0,    1.1,    2.3,    5.9,    7.6,    7.3,    2.9,    4.7,    6.3,    8.8,    7.0,    2.6,    1.8,    2.8,    2.9,    0.9,    1.9,    3.4,    1.4,    1.7,    4.5,    4.9,    4.2,    3.2,    5.3
1987/09/09 13:35,  999.0,  999.0,  999.0,  999.0,  999.0,  999.0,  999.0,  999.0,  999.0,  999.0,  999.0,  999.0,  999.0,  999.0,  999.0,  999.0,  999.0,  999.0,  999.0,  999.0,  999.0,  999.0,    6.6,    5.5,    5.8,    5.6,    5.1,    4.6,    4.0,    3.8,    3.1,    1.5,    2.6,    3.3,    5.7,    6.8,    7.8,    9.1,    8.2,    7.6,    7.9,    8.2,    8.5,    8.6,    8.7,    7.0,    6.7,    7.2,    8.0,    8.1,    9.6,   10.8,   12.3,   13.5,   13.6,   12.4,   11.7,   10.7,   11.6,   11.3,   11.9,   12.7,   13.6,   11.8,   10.5,    9.5,   10.4,   10.7,   10.3,    6.4,    5.7,    4.3,    2.7,    2.4,    0.8,    0.8,    1.2,   -0.3,    0.2,    2.2,    2.2,    3.4,    3.0,    3.3,    1.9,    0.3,   -0.8,   -0.2,    1.2,    1.2,    2.1,    1.2,    1.2,    4.1,    6.8,    5.7,    1.6,    2.9,    5.8,    7.9,    6.6,    2.9,    4.4,    6.2,    8.1,    5.8,    2.0,    0.7,    3.1,    2.0,    0.7,    1.9,    3.8,    1.8,    1.8,    5.2,    5.5,    5.6,  999.0,    5.8
1987/09/09 13:45,  999.0,  999.0,  999.0,  999.0,  999.0,  999.0,  999.0,  999.0,  999.0,  999.0,  999.0,  999.0,  999.0,  999.0,  999.0,  999.0,  999.0,  999.0,  999.0,  999.0,  999.0,  999.0,    7.0,    5.1,    5.5,    4.7,    4.1,    4.0,    3.0,    2.8,    2.5,    1.6,    2.4,    3.8,    5.2,    5.7,    6.1,    7.9,    6.5,    7.2,    7.1,    7.8,    8.2,    8.1,    8.2,    6.4,    7.0,    6.9,    7.6,    7.7,    8.8,   10.2,   10.7,   11.9,   12.4,   11.9,   11.5,   10.9,   11.3,   12.4,   12.0,   12.2,   12.5,   12.2,   10.9,    9.8,   10.7,   10.5,    8.6,    8.6,    5.0,    4.5,    2.6,    2.4,    0.9,    1.3,    1.5,   -0.7,   -0.9,    1.7,    1.6,    1.6,    1.6,    2.2,    2.1,    2.0,   -1.4,   -1.0,    0.6,    1.7,    1.6,    0.6,    0.6,    4.9,    7.6,    6.6,    1.3,    3.7,    7.0,    7.7,    6.1,    2.3,    3.6,    5.8,    7.8,    5.4,    2.1,    1.2,    4.3,    3.5,    1.0,    3.4,    3.4,    1.9,    2.2,    4.9,    4.6,    5.8,    4.5,    5.6
1987/09/09 13:55,  999.0,  999.0,  999.0,  999.0,  999.0,  999.0,  999.0,  999.0,  999.0,  999.0,  999.0,  999.0,  999.0,  999.0,  999.0,  999.0,  999.0,  999.0,  999.0,  999.0,  999.0,  999.0,    6.2,    5.2,    5.0,    4.9,    4.2,    3.7,    3.1,    2.7,    2.3,    1.1,    2.0,    2.8,    4.4,    5.4,    5.5,    7.4,    6.1,    7.6,    6.9,    7.7,    7.9,    8.8,    7.9,    7.2,    7.2,    7.7,    8.0,    7.2,    8.6,   10.0,   10.2,   12.0,   12.6,   11.9,   11.2,   10.4,   10.4,   11.0,   10.3,   11.6,   11.8,   12.2,   11.1,   10.1,   10.3,   10.0,    9.1,    7.2,    5.3,    4.3,    2.7,    1.9,    0.2,    0.2,    0.4,   -1.8,   -0.9,    1.9,    1.9,    2.0,    1.2,    1.4,    1.4,    1.3,   -0.9,    0.0,    1.4,    2.8,    2.3,    1.3,    2.8,    7.5,    7.9,  999.0,    1.6,    4.1,    6.7,    8.7,    6.2,    2.5,    2.6,    4.8,    6.9,    6.2,    2.0,    1.4,    3.8,    4.3,    1.7,    3.7,    4.0,    2.2,    2.9,    4.5,    3.9,    3.6,    4.9,    6.3
1987/09/09 14:05,  999.0,  999.0,  999.0,  999.0,  999.0,  999.0,  999.0,  999.0,  999.0,  999.0,  999.0,  999.0,  999.0,  999.0,  999.0,  999.0,  999.0,  999.0,  999.0,  999.0,  999.0,  999.0,    6.8,    6.4,    5.5,    5.8,    4.6,    4.2,    2.8,    2.9,    2.9,    1.7,    1.6,    2.2,    3.9,    5.2,    5.2,    6.8,    6.6,    6.4,    6.3,    7.2,    7.7,    8.3,    7.9,    6.0,    6.4,    6.9,    6.8,    5.8,    7.5,    8.5,    9.2,   10.6,   11.5,   11.5,   11.5,   10.2,   10.7,   10.6,   10.7,   11.1,   11.5,   11.4,   11.2,    9.2,    9.1,   10.3,    9.1,  999.0,    5.2,    4.7,    2.6,    1.2,   -0.4,   -0.9,    0.1,   -1.4,   -1.6,    0.3,    1.6,    1.4,    1.7,    1.6,    2.4,    1.3,   -0.5,    0.7,    1.4,    3.7,    2.2,    1.3,    2.5,    7.0,    8.6,    2.2,    1.9,    4.0,    6.9,    8.1,    5.9,    1.9,    2.3,    4.4,    6.9,    7.2,  999.0,    1.2,    3.9,    3.8,  999.0,    4.3,    3.6,    2.2,    2.6,    4.6,    4.4,    4.9,    2.5,    4.9
1987/09/09 14:15,  999.0,  999.0,  999.0,  999.0,  999.0,  999.0,  999.0,  999.0,  999.0,  999.0,  999.0,  999.0,  999.0,  999.0,  999.0,  999.0,  999.0,  999.0,  999.0,  999.0,  999.0,  999.0,    6.6,    6.7,    5.2,    5.3,    4.4,    4.4,    3.0,    3.6,    3.7,    2.4,    2.7,    3.8,    5.9,    6.6,    6.8,    7.9,    7.7,    8.2,    8.3,    8.4,    8.9,    9.6,    9.5,    7.6,    7.5,    7.8,    6.4,    6.7,    7.3,    8.5,   10.0,   11.0,   12.7,   12.2,   12.3,   11.3,   11.9,   12.0,   10.5,   11.2,   11.7,   11.3,   11.5,    9.8,    9.9,   10.1,   10.2,    8.0,    5.4,    5.3,    3.5,    1.8,   -0.1,    0.1,    0.7,   -1.1,   -1.8,    0.1,    1.6,    1.5,    2.0,    0.9,    1.6,    1.6,    0.1,    1.3,    2.7,    3.0,    1.7,    0.6,    1.8,    6.7,    7.5,    1.7,    1.2,    2.8,    6.0,    7.4,    5.7,    1.5,    1.9,    5.2,    8.1,    8.0,  999.0,    1.7,    3.7,    3.8,    1.2,    3.3,    2.9,    2.2,    3.0,    4.3,    4.6,    5.1,  999.0,    7.1
1987/09/09 14:25,  999.0,  999.0,  999.0,  999.0,  999.0,  999.0,  999.0,  999.0,  999.0,  999.0,  999.0,  999.0,  999.0,  999.0,  999.0,  999.0,  999.0,  999.0,  999.0,  999.0,  999.0,  999.0,    5.5,    5.8,    3.9,    4.1,    3.3,    2.9,    1.5,    2.0,    2.8,    1.5,    2.6,    3.6,    5.7,    5.8,    6.4,    7.5,    7.7,    8.1,    8.2,    8.3,    8.6,    9.3,    9.2,    8.0,    8.1,    8.3,    6.7,    7.4,    7.5,    8.9,    9.9,   10.8,   12.4,   12.6,   11.5,   11.4,   10.8,   12.0,   10.9,   11.3,   11.4,   12.8,   12.0,   10.9,   10.1,   10.3,   10.1,    9.9,    5.9,    5.6,    3.5,    1.2,   -0.2,   -1.3,   -0.5,   -0.6,   -0.9,   -0.2,    0.9,    1.2,    1.5,    1.1,    1.4,    1.2,   -0.0,    1.1,    2.0,    2.5,    2.4,    0.6,    1.3,    6.1,    7.3,    3.0,    2.3,    3.1,    5.8,    6.8,    6.5,    1.9,    2.6,    5.5,    8.6,    6.5,    2.6,    1.9,    3.1,    2.9,    1.0,    3.2,    3.1,    1.3,    3.3,    4.4,    4.8,    5.1,  999.0,    6.5
1987/09/09 14:35,  999.0,  999.0,  999.0,  999.0,  999.0,  999.0,  999.0,  999.0,  999.0,  999.0,  999.0,  999.0,  999.0,  999.0,  999.0,  999.0,  999.0,  999.0,  999.0,  999.0,  999.0,  999.0,    4.6,    5.0,    4.0,    3.9,    3.0,    2.4,    1.1,    1.9,    2.7,    1.5,    2.5,    3.9,    5.6,    5.7,    6.7,    6.9,    7.0,    7.3,    7.9,    7.7,    8.3,    8.6,    9.1,    7.6,    7.9,    7.5,    7.3,    6.9,    7.1,    8.0,    9.8,   10.4,   11.8,   12.4,   11.1,   10.9,   10.0,   10.8,   11.6,   10.7,   11.9,   12.6,   11.6,   11.3,    9.6,    9.8,    9.6,  999.0,    6.8,    6.1,    4.0,    1.5,   -0.3,   -1.9,  999.0,   -0.9,   -1.0,   -0.3,    1.3,    0.9,    1.5,    0.1,    1.2,    1.1,    0.1,    1.0,    2.6,    2.6,    2.1,    1.5,    1.8,    6.6,    7.4,    2.8,    2.0,    3.1,    5.8,    7.4,    7.0,    1.8,    3.1,    6.4,    8.7,    6.3,    3.5,    0.9,    2.8,    3.0,    2.7,    3.2,    3.1,    1.8,    3.7,    4.6,    4.5,    6.3,  999.0,  999.0
1987/09/09 14:45,  999.0,  999.0,  999.0,  999.0,  999.0,  999.0,  999.0,  999.0,  999.0,  999.0,  999.0,  999.0,  999.0,  999.0,  999.0,  999.0,  999.0,  999.0,  999.0,  999.0,  999.0,  999.0,    5.5,    6.1,    5.2,    4.5,    3.8,    3.1,    1.7,    2.9,    3.5,    1.9,    2.4,    4.1,    5.9,    6.6,    7.2,    7.1,    7.6,    7.4,    8.2,    7.8,    8.1,    8.5,    9.0,    7.4,    8.0,    8.4,    7.4,    7.5,    7.4,    8.3,    9.5,    9.8,   10.8,   11.9,   11.4,   10.5,    9.7,   10.6,   10.6,   10.7,   11.4,   11.4,   11.6,    8.9,    8.6,    8.7,    9.8,  999.0,    5.6,    5.8,    2.8,    1.1,   -1.5,   -2.9,   -2.7,   -1.7,   -1.5,    0.7,    1.5,    2.1,  999.0,   -0.0,    1.8,    2.2,    0.9,    1.7,    2.7,    3.2,    3.2,    2.0,    2.6,    6.8,    8.6,  999.0,    2.1,    2.6,    5.8,    7.6,    7.6,    1.6,    2.1,    4.5,    8.3,    7.3,    4.4,    0.8,    2.8,    1.9,    1.9,    4.2,    2.8,    1.7,    3.6,    4.4,    5.6,    5.2,  999.0,  999.0
1987/09/09 14:55,  999.0,  999.0,  999.0,  999.0,  999.0,  999.0,  999.0,  999.0,  999.0,  999.0,  999.0,  999.0,  999.0,  999.0,  999.0,  999.0,  999.0,  999.0,  999.0,  999.0,  999.0,  999.0,    5.3,    5.5,    4.3,    3.4,    3.4,    2.3,    2.1,    3.1,    2.3,    1.1,    1.5,    3.7,    5.3,    6.1,    6.7,    6.9,    7.5,    6.8,    6.9,    7.1,    7.1,    7.3,    7.6,    5.9,    6.4,    7.0,    6.6,    6.6,    6.4,    7.3,    8.5,    9.8,   10.7,   11.3,   11.0,   10.3,    8.8,    9.9,    9.8,    9.4,   10.8,   11.4,   11.2,    9.3,    8.7,    8.6,    9.3,    5.4,    5.1,    2.9,    1.7,   -0.6,   -3.9,   -4.4,   -2.7,   -2.5,   -2.6,   -0.5,    0.7,    1.1,    0.1,    0.5,    1.6,    1.7,    1.6,    3.1,    2.7,    3.1,    3.6,    2.0,    2.8,    7.8,    8.0,  999.0,    2.7,    2.6,    5.1,    6.6,    6.4,    0.8,    1.5,    4.2,    8.0,    7.8,    4.3,    0.4,    1.5,    2.7,    0.7,    4.5,    2.9,    2.6,    4.4,    5.5,    5.8,    5.6,  999.0,    7.8
1987/09/09 15:05,  999.0,  999.0,  999.0,  999.0,  999.0,  999.0,  999.0,  999.0,  999.0,  999.0,  999.0,  999.0,  999.0,  999.0,  999.0,  999.0,  999.0,  999.0,  999.0,  999.0,  999.0,  999.0,    5.3,    5.5,    4.3,    3.5,    3.6,    3.0,    3.0,    3.4,    1.8,    1.0,    1.2,    3.5,    5.2,    6.3,    7.0,    7.4,    7.7,    7.5,    7.5,    7.7,    7.3,    7.7,    8.0,    5.9,    6.6,    7.3,    7.2,    7.0,    7.0,    7.5,    9.2,   10.4,   11.3,   11.1,   11.9,   10.7,    8.7,    9.9,   10.5,    9.3,   10.2,   11.0,   10.4,    9.4,    8.8,    9.4,    9.4,    5.3,    5.0,    3.7,    1.8,   -1.1,   -3.7,   -3.6,   -2.5,   -2.6,   -2.4,   -1.2,   -0.1,    0.7,   -0.0,   -0.3,    1.1,    1.2,    1.1,    2.4,    2.4,    1.9,    1.1,    1.1,    1.7,    7.2,    7.5,  999.0,    2.0,    2.3,    4.8,    6.3,    7.0,    1.9,    2.3,    5.4,    9.1,    8.9,    1.8,    0.0,    1.8,  999.0,    2.0,    2.7,    2.5,    1.7,    2.7,    5.1,    5.1,    5.2,  999.0,    7.3
1987/09/09 15:15,  999.0,  999.0,  999.0,  999.0,  999.0,  999.0,  999.0,  999.0,  999.0,  999.0,  999.0,  999.0,  999.0,  999.0,  999.0,  999.0,  999.0,  999.0,  999.0,  999.0,  999.0,  999.0,    4.9,    4.4,    2.9,    2.5,    2.8,    2.0,    2.3,    2.2,    0.9,    1.4,    2.3,    4.2,    5.9,    7.5,    7.9,    8.5,    8.9,    8.2,    8.7,    8.0,    8.5,    8.9,    9.0,    7.9,    8.0,    8.3,    7.7,    7.8,    8.1,    8.0,    9.8,   11.4,   11.5,   12.1,   11.7,   11.3,    9.8,   10.7,   11.6,   11.1,   10.9,   11.6,   11.3,   10.1,    9.4,   10.0,    7.5,    6.0,    6.0,    4.0,    3.0,   -0.4,   -3.1,   -4.1,   -2.9,   -1.7,   -1.9,   -0.7,    0.3,    1.2,   -0.2,    0.5,    1.0,    0.1,   -0.0,    1.8,    1.2,    1.1,    0.2,    0.1,    1.2,    4.5,    6.5,  999.0,    1.8,    2.2,    4.7,    6.2,    6.4,    1.6,    2.1,    6.4,    9.6,    7.5,   -0.2,   -0.1,    0.6,    2.0,  999.0,    2.0,    2.7,    1.5,    3.6,    4.8,    5.1,  999.0,    5.7,    8.1
1987/09/09 15:25,  999.0,  999.0,  999.0,  999.0,  999.0,  999.0,  999.0,  999.0,  999.0,  999.0,  999.0,  999.0,  999.0,  999.0,  999.0,  999.0,  999.0,  999.0,  999.0,  999.0,  999.0,  999.0,    4.4,    4.2,    2.7,    1.8,    2.4,    1.6,    2.5,    2.7,    1.5,    2.1,    4.2,    6.1,    7.4,    8.2,    9.0,    9.4,    9.1,    8.6,    8.1,    8.2,    8.6,    8.9,    7.2,    7.2,    7.8,    8.2,    7.7,    8.0,    8.0,    8.1,    9.4,   10.9,   11.8,   11.8,   11.8,   10.5,    9.4,   10.3,   11.1,   10.9,   10.9,   10.3,   11.2,   10.1,    9.5,    9.8,    9.3,  999.0,    5.0,    4.2,    2.7,    0.2,   -2.7,   -3.4,   -2.5,   -2.2,   -2.1,    0.3,    0.3,    1.0,   -0.1,    0.0,    0.6,   -0.1,    0.2,    1.8,    1.2,    0.8,    0.2,   -0.6,    0.9,    5.5,    7.1,    1.0,    2.2,    2.1,    5.6,    6.6,  999.0,    1.7,    1.6,    6.5,    9.6,    8.0,    3.3,    0.5,    1.3,  999.0,    0.9,  999.0,    1.8,    2.0,    4.7,    5.1,    5.4,  999.0,    6.2,    7.0
1987/09/09 15:35,  999.0,  999.0,  999.0,  999.0,  999.0,  999.0,  999.0,  999.0,  999.0,  999.0,  999.0,  999.0,  999.0,  999.0,  999.0,  999.0,  999.0,  999.0,  999.0,  999.0,  999.0,  999.0,    6.0,    5.9,    4.5,    3.6,    3.8,    2.6,    2.7,    1.9,    1.3,    1.4,    3.4,    5.4,    6.6,    7.4,    8.2,    8.6,    8.2,    7.8,    7.9,    8.2,    7.7,    6.9,    5.9,    6.7,    6.8,    7.2,    7.2,    7.0,    7.2,    7.7,    9.2,   10.5,   11.8,   11.2,   11.1,    8.7,    9.4,    9.3,   10.1,   10.4,    9.6,    9.5,    9.9,    9.4,    9.5,    9.2,    8.4,    6.7,    4.9,    4.0,    2.8,    0.2,   -2.5,   -3.8,   -1.6,  999.0,   -0.7,   -0.2,    0.7,    1.1,    1.4,    0.9,    1.1,    1.0,    1.1,    2.2,    1.9,    1.2,    1.0,   -0.1,    0.4,    4.5,    6.8,    3.4,    1.9,    3.4,    5.9,    6.9,    4.1,    1.2,    2.1,    6.7,    9.4,    6.2,    2.0,   -0.4,  999.0,  999.0,  999.0,    2.0,    2.3,    1.8,    4.2,    4.5,  999.0,  999.0,    5.6,    6.2
1987/09/09 15:45,  999.0,  999.0,  999.0,  999.0,  999.0,  999.0,  999.0,  999.0,  999.0,  999.0,  999.0,  999.0,  999.0,  999.0,  999.0,  999.0,  999.0,  999.0,  999.0,  999.0,  999.0,  999.0,    4.9,    4.6,    3.4,    3.0,    3.7,    2.1,    1.9,    1.5,    1.2,    1.7,    3.4,    5.6,    6.8,    7.7,    8.6,    9.1,    8.8,    8.8,    7.9,    7.9,    7.6,    6.9,    6.2,    6.0,    6.2,    7.1,    7.1,    6.8,    6.8,    7.8,    8.8,   10.7,   11.2,   10.5,   10.8,    8.4,    9.2,    8.9,    9.4,    8.9,    9.2,    9.3,    9.3,    8.3,    8.6,    8.5,    5.5,    6.0,    4.1,    3.3,    1.3,   -1.3,   -3.4,   -4.0,   -2.4,   -1.0,   -1.4,    0.4,    1.1,    0.9,    0.8,    0.6,    1.4,    0.1,    1.0,    3.0,    1.7,    2.5,    1.0,    0.4,    0.5,    4.3,    7.1,    6.4,    3.2,    3.5,    5.8,    6.5,  999.0,    1.6,    2.5,    7.4,    9.4,    6.2,    1.4,   -0.9,    0.8,    2.9,  999.0,  999.0,    2.5,    1.4,  999.0,    3.4,    5.6,  999.0,  999.0,    5.2
1987/09/09 15:55,  999.0,  999.0,  999.0,  999.0,  999.0,  999.0,  999.0,  999.0,  999.0,  999.0,  999.0,  999.0,  999.0,  999.0,  999.0,  999.0,  999.0,  999.0,  999.0,  999.0,  999.0,  999.0,    5.5,    5.1,    4.8,    4.4,    3.9,    3.1,    2.1,    1.3,    1.0,    1.4,    3.4,    4.5,    5.2,    5.8,    6.6,    7.8,    8.1,    7.9,    7.1,    7.5,    7.5,    7.2,    6.1,    6.3,    7.0,    7.0,    7.1,    6.7,    7.0,    7.7,    8.9,   10.3,   10.8,   10.9,    9.5,    8.3,    7.5,    8.8,    9.6,    9.3,    9.2,    9.7,    9.1,    8.9,    9.1,    8.0,  999.0,    4.4,    4.2,    2.7,    0.2,   -2.3,   -4.5,   -4.3,   -4.2,   -1.9,   -2.0,   -0.3,    0.3,   -0.2,    0.2,    0.4,    0.9,    0.4,   -0.1,    2.5,    2.5,    1.4,   -0.3,   -0.4,    0.2,    2.3,    5.9,    6.5,    2.2,    2.9,    4.7,    6.0,    5.2,    1.4,    2.3,    6.9,    8.3,    6.3,    0.7,   -1.6,   -0.5,  999.0,    0.8,  999.0,    2.3,    0.6,    2.0,    3.9,    4.4,    8.3,  999.0,    6.0
1987/09/09 16:05,  999.0,  999.0,  999.0,  999.0,  999.0,  999.0,  999.0,  999.0,  999.0,  999.0,  999.0,  999.0,  999.0,  999.0,  999.0,  999.0,  999.0,  999.0,  999.0,  999.0,  999.0,  999.0,    5.0,    4.7,    3.9,    3.2,    2.9,    2.3,    1.4,    0.9,    1.0,    1.9,    4.3,    5.0,    5.4,    6.0,    6.8,    7.6,    8.5,    9.0,    8.1,    8.1,    8.7,    8.1,    6.7,    7.6,    8.5,    8.8,    7.6,    8.1,    8.1,    9.1,   10.2,   11.1,   12.0,   10.9,   10.8,    8.3,    8.9,    9.5,   10.3,    9.8,   10.4,   10.3,    9.4,    9.9,   10.0,  999.0,    4.0,    4.8,    4.3,    3.2,    1.4,   -0.8,   -3.2,   -3.7,   -0.6,   -1.7,   -0.8,   -1.0,    1.4,    0.7,    0.1,    0.8,    1.3,    1.6,    0.6,    3.0,    3.5,  999.0,    0.2,   -0.9,   -0.8,    2.5,    6.1,    5.4,    2.4,    2.9,    4.7,    5.5,    5.7,    2.1,    3.1,    7.0,    8.9,    5.9,    0.5,    1.0,  999.0,  999.0,  999.0,  999.0,    2.3,    1.6,    1.7,  999.0,  999.0,  999.0,  999.0,  999.0
1987/09/09 16:15,  999.0,  999.0,  999.0,  999.0,  999.0,  999.0,  999.0,  999.0,  999.0,  999.0,  999.0,  999.0,  999.0,  999.0,  999.0,  999.0,  999.0,  999.0,  999.0,  999.0,  999.0,  999.0,    4.1,    4.0,    2.8,    2.8,    3.0,    2.1,    1.7,    1.5,    1.7,    2.9,    5.1,    5.9,    6.2,    6.7,    7.2,    7.9,    9.1,    9.5,    8.7,    8.1,    8.2,    8.0,    7.0,    7.9,    8.3,    7.9,    7.8,    7.7,    6.4,    7.7,    8.6,   10.2,   10.5,   11.1,   10.4,    8.5,    8.7,    9.5,   10.2,    9.2,    9.2,   10.2,    8.5,    9.3,    9.9,  999.0,    6.0,    4.7,    3.6,    2.5,    0.8,   -1.5,   -3.7,   -2.4,   -1.8,   -1.1,   -1.1,   -0.2,    0.3,    0.8,    1.0,    0.6,    2.3,    1.8,    1.4,    2.0,    3.5,    2.1,    0.7,   -1.1,   -1.3,    0.7,    5.5,    5.4,    3.1,    1.7,    4.4,    5.0,    3.1,  999.0,    3.2,    7.7,    8.6,    6.6,    2.1,   -0.2,  999.0,  999.0,   -0.5,  999.0,    1.7,  999.0,    1.7,  999.0,    2.8,  999.0,  999.0,    5.5
1987/09/09 16:25,  999.0,  999.0,  999.0,  999.0,  999.0,  999.0,  999.0,  999.0,  999.0,  999.0,  999.0,  999.0,  999.0,  999.0,  999.0,  999.0,  999.0,  999.0,  999.0,  999.0,  999.0,  999.0,    4.2,    4.0,    2.5,    2.7,    3.1,    2.2,    2.2,    1.8,    1.6,    2.6,    3.8,    4.7,    5.2,    5.4,    5.7,    7.1,    7.8,    8.2,    7.6,    7.3,    7.6,    7.2,    6.7,    7.3,    7.8,    7.6,    7.6,    8.0,    6.7,    7.3,    8.5,    9.6,   10.7,   10.5,   10.0,    8.8,    8.9,    9.4,   10.7,   10.1,    9.7,    9.8,    9.0,    9.6,    9.9,    6.7,    5.7,    4.4,    3.4,    2.5,    1.0,   -1.8,   -2.9,   -2.1,   -1.8,   -1.1,   -0.7,    1.1,    1.4,    1.6,    1.9,    1.3,    2.2,    2.4,    1.4,    2.7,    3.6,    1.9,    0.6,   -0.4,   -0.4,    0.4,    5.8,    5.8,    2.7,    3.1,    5.2,    5.2,    3.1,    1.4,    2.9,    7.6,    8.3,    7.0,  999.0,   -1.2,  999.0,  999.0,  999.0,    3.0,    3.0,    1.4,    2.3,    4.2,  999.0,    4.2,  999.0,    6.8
1987/09/09 16:35,  999.0,  999.0,  999.0,  999.0,  999.0,  999.0,  999.0,  999.0,  999.0,  999.0,  999.0,  999.0,  999.0,  999.0,  999.0,  999.0,  999.0,  999.0,  999.0,  999.0,  999.0,  999.0,    4.7,    3.9,    2.6,    2.8,    2.3,    1.5,    2.0,    1.4,    1.1,    2.2,    3.5,    4.1,    4.5,    4.8,    5.6,    6.2,    7.0,    6.9,    5.7,    5.8,    6.2,    6.2,    5.8,    6.1,    7.0,    7.4,    7.3,    7.5,    6.8,    6.6,    7.9,    9.4,   10.1,   10.4,    8.8,    8.5,    8.4,    9.1,    9.9,    9.8,   10.1,    9.3,    8.0,    8.9,    9.6,    6.8,    6.2,    4.8,    4.2,    2.4,    0.3,   -2.4,   -3.6,   -2.7,   -1.9,   -2.9,   -1.5,   -0.0,   -0.4,   -0.1,    0.9,    0.5,    1.3,    0.9,    1.1,    3.3,    3.5,  999.0,   -0.0,   -0.2,    0.0,    1.9,    6.0,    6.0,    3.0,    3.2,    4.2,    4.4,    0.5,    0.7,    1.8,    5.9,    7.6,    4.0,   -1.3,   -0.8,    1.3,  999.0,  999.0,  999.0,    1.8,    1.5,    2.0,    3.0,    5.1,    4.1,    5.1,    7.5
1987/09/09 16:45,  999.0,  999.0,  999.0,  999.0,  999.0,  999.0,  999.0,  999.0,  999.0,  999.0,  999.0,  999.0,  999.0,  999.0,  999.0,  999.0,  999.0,  999.0,  999.0,  999.0,  999.0,  999.0,    4.1,    3.0,    1.8,    2.0,    1.7,    1.7,    2.2,    1.4,    1.4,    2.5,    3.7,    4.4,    4.6,    4.5,    5.4,    5.7,    6.5,    6.7,    5.5,    5.8,    6.2,    6.4,    5.4,    5.9,    6.8,    7.5,    7.4,    7.9,    7.4,    7.0,    8.9,   10.1,   11.5,   10.2,   10.0,    8.5,    8.7,    9.3,   10.0,   11.3,    9.6,    9.5,    9.1,    9.0,    9.2,    6.0,    5.5,    4.1,    2.9,    1.8,   -1.0,   -4.1,   -4.1,   -3.5,   -2.8,   -2.5,   -2.0,   -1.9,   -0.9,    0.1,    0.6,    0.5,    0.8,    1.5,    1.7,    3.3,    3.0,    2.4,   -0.7,   -0.8,   -0.7,    2.7,    5.4,    6.3,    2.8,    2.9,  999.0,    3.9,  999.0,    0.3,    2.1,    5.1,    7.8,    2.1,    0.2,    0.3,    1.2,    2.1,    2.0,    2.8,    1.5,    0.3,    2.5,  999.0,    4.2,  999.0,    4.1,    2.6
1987/09/09 16:55,  999.0,  999.0,  999.0,  999.0,  999.0,  999.0,  999.0,  999.0,  999.0,  999.0,  999.0,  999.0,  999.0,  999.0,  999.0,  999.0,  999.0,  999.0,  999.0,  999.0,  999.0,  999.0,    4.2,    2.9,    2.6,    2.4,    1.9,    1.3,    2.0,    1.5,    1.9,    3.4,    4.7,    5.2,    5.5,    6.1,    6.5,    6.9,    7.4,    7.3,    7.0,    6.3,    6.2,    6.7,    6.1,    6.0,    6.2,    7.2,    7.5,    8.0,    6.6,    6.6,    6.9,    8.6,    9.0,    9.2,    8.9,    7.9,    8.7,    8.2,    9.6,  999.0,   10.0,    9.2,    9.6,    9.3,    8.6,    6.0,    4.4,    4.3,    2.8,    1.8,   -0.3,   -2.9,   -3.5,   -2.7,   -3.3,   -3.5,   -1.8,   -1.4,   -0.6,   -0.4,    0.1,   -0.3,    0.1,    1.8,    1.3,    3.0,    3.3,    1.9,    0.6,   -0.8,   -0.8,    2.0,    5.3,    5.1,    2.7,    2.8,    4.2,    3.4,  999.0,    0.6,    2.9,    6.7,    8.1,  999.0,   -0.5,   -0.7,    1.5,  999.0,    1.3,    2.9,    2.9,    3.3,    3.8,    0.9,    5.2,    4.7,    3.4,    4.9
1987/09/09 17:05,    1.3,    2.4,    3.1,    3.6,    3.6,    3.5,    3.0,    2.4,    1.9,    2.6,    2.6,    3.8,    4.6,    5.6,    2.7,    2.1,    2.1,    2.5,    3.2,    3.8,    3.8,    3.8,    4.1,    2.9,    2.1,    1.9,    1.2,    1.6,    1.3,    1.1,    2.2,    4.2,    4.6,    4.8,    4.9,    5.1,    6.0,    6.6,    7.0,    6.4,    6.4,    6.2,    6.0,    6.3,    5.5,    5.9,    6.2,    6.7,    7.5,    7.4,    6.8,    6.3,    6.7,    8.3,    9.4,    8.9,    8.3,    8.2,    7.3,    8.7,    9.1,    8.9,    8.7,    8.3,    8.8,    9.7,    6.1,    6.1,    5.2,    4.2,    3.0,    1.5,   -0.0,   -3.2,   -3.5,   -3.9,   -3.3,   -3.9,   -2.5,   -2.5,   -0.9,   -0.6,   -0.9,   -1.1,    0.9,    1.4,    1.5,    2.6,    3.2,  999.0,   -0.8,   -1.2,   -0.9,    0.6,    4.9,    5.3,    3.1,    4.1,    3.2,    2.3,    1.3,    0.8,    2.4,    7.0,    8.6,  999.0,   -1.1,   -0.9,  999.0,  999.0,    1.4,  999.0,    2.9,    2.4,    4.5,  999.0,    3.0,  999.0,    7.4,    3.5
1987/09/09 17:15,    0.7,    1.8,    2.5,    3.4,    3.9,    3.8,    3.5,    2.2,    2.2,    2.5,    2.5,    2.9,    4.0,    4.8,    1.8,    1.3,    1.7,    1.6,    2.7,    3.2,    3.3,    3.7,    4.0,    2.6,    2.6,    2.3,    1.7,    2.1,    2.0,    1.4,    2.2,    3.6,    4.1,    4.5,    4.3,    4.5,    5.3,    6.2,    6.8,    6.0,    6.8,    6.8,    6.8,    7.1,    5.3,    5.3,    5.9,    6.8,    8.0,    7.5,    7.2,    6.8,    7.1,    8.3,    9.6,    9.9,    9.4,    9.2,    9.3,    9.5,   10.7,    8.2,    8.6,    9.0,    9.1,    9.9,    7.2,    5.6,    6.0,    4.7,    3.7,    2.2,   -0.8,   -3.6,   -3.6,   -2.7,   -4.2,   -3.4,   -2.6,   -2.1,   -1.0,   -1.5,   -1.4,   -1.2,    0.2,    0.8,    1.0,    2.1,    3.3,    2.6,    0.0,   -1.4,   -2.1,   -0.6,    4.3,    5.3,    3.3,    3.5,    3.5,    4.1,    2.8,    2.3,    3.5,    7.1,    7.9,  999.0,   -1.3,   -1.0,   -0.0,    1.2,    2.4,    1.9,    2.4,    3.5,  999.0,    3.1,    3.2,  999.0,    3.6,    4.5
1987/09/09 17:25,    1.5,    2.3,    3.3,    5.2,    5.2,    4.6,    3.7,    2.4,    2.2,    2.0,    2.0,    3.0,    3.3,    3.3,    1.9,    1.7,    2.3,    2.5,    3.5,    4.0,    4.2,    4.8,    4.6,    3.6,    3.4,    3.6,    2.4,    2.8,    3.0,    2.4,    2.2,    3.2,    4.3,    4.4,    4.4,    3.6,    4.7,    5.6,    6.4,    5.8,    6.0,    6.4,    5.8,    5.9,    5.1,    5.1,    6.2,    7.0,    7.6,    7.2,    7.6,    6.4,    6.9,    8.5,    9.7,    9.9,   10.1,    9.8,    9.2,    9.3,   10.0,    9.5,    9.0,    9.2,    8.9,    9.2,    6.4,    7.0,    4.8,    4.4,    2.5,    0.4,   -1.2,   -2.7,   -3.0,   -3.8,   -3.4,   -3.9,   -1.9,   -2.6,   -1.8,   -1.5,   -0.6,   -0.7,    0.9,    1.3,    0.0,    1.5,    3.0,    2.2,    0.1,   -1.2,   -1.3,    0.2,    5.0,    5.8,    4.0,    3.8,    3.6,    4.6,    1.4,    2.1,    3.9,    7.8,    8.9,  999.0,   -0.6,   -1.5,  999.0,  999.0,    0.9,  999.0,    1.3,    3.1,  999.0,  999.0,    2.9,    3.4,    3.1,    4.6
1987/09/09 17:35,    1.8,    2.1,    2.6,    3.9,    4.0,    3.8,    3.2,    2.4,    2.8,    2.1,    2.7,    3.2,    3.3,    3.9,    2.0,    1.7,    2.7,    2.8,    3.6,    3.7,    4.2,    4.8,    5.2,    3.9,    3.4,    3.3,    2.8,    2.8,    3.2,    2.9,    2.5,    3.7,    4.5,    4.8,    4.2,    3.3,    4.2,    4.9,    5.5,    6.0,    5.6,    6.0,    5.7,    5.8,    5.5,    6.3,    6.8,    7.7,    7.9,    6.8,    6.9,    5.7,    6.5,    7.8,    8.8,    9.3,    7.8,    8.3,    7.5,    7.5,    8.6,    9.4,    9.1,    8.5,    8.7,    9.0,    7.9,    6.8,  999.0,    4.2,    3.3,    2.1,   -0.3,   -3.0,   -3.5,   -4.8,   -5.8,   -4.8,   -3.7,   -3.7,   -3.9,   -2.2,   -1.6,   -1.6,    0.2,    0.1,   -0.4,    1.2,    2.7,    2.2,    0.3,   -1.0,   -0.6,   -0.1,    4.9,    5.3,    2.8,    3.9,    5.1,    2.2,    0.4,    1.2,    3.7,    7.5,    8.4,    4.2,   -1.3,   -1.7,   -0.8,  999.0,  999.0,    0.5,    2.1,    1.5,    4.1,  999.0,    3.6,  999.0,  999.0,    4.7
1987/09/09 17:45,    1.9,    1.6,    1.8,    3.6,    4.1,    3.7,    3.1,    2.9,    2.9,    2.5,    2.8,    2.9,    3.0,    3.4,    2.6,    1.9,    2.3,    2.4,    2.7,    3.1,    2.9,    3.5,    4.0,    3.1,    2.4,    1.8,    2.0,    1.6,    2.8,    2.8,    1.9,    3.2,    4.0,    4.2,    2.9,    2.7,    3.9,    4.4,    5.2,    4.3,    4.6,    4.7,    4.9,    5.1,    5.2,    6.2,    6.6,    8.0,    7.7,    7.4,    6.3,    7.3,    7.6,    8.7,    9.3,    8.8,    8.2,    8.1,    7.6,    7.9,    8.0,    8.6,    9.1,    8.1,    8.5,    9.0,    7.2,    6.1,  999.0,    3.2,    3.4,    1.6,   -1.3,   -3.4,   -4.4,   -4.3,   -6.1,   -7.2,   -4.4,   -3.9,   -3.3,   -2.8,   -2.5,   -1.7,    0.4,   -0.2,   -0.4,    1.2,    2.7,    1.7,   -0.4,   -0.3,   -0.6,    0.6,    4.8,    5.9,    4.0,    4.2,    3.1,    3.3,    1.2,    1.5,    2.6,    7.5,    8.0,    4.0,   -1.1,   -1.0,    0.0,  999.0,  999.0,  999.0,  999.0,    1.8,  999.0,  999.0,  999.0,  999.0,    2.2,  999.0
1987/09/09 17:55,    1.9,    2.7,    4.0,    4.5,    4.3,    4.2,    3.4,    3.2,    3.1,    2.9,    3.2,    2.8,    3.2,    2.9,    1.8,    1.0,    1.3,    1.5,    1.7,    1.8,    1.5,    1.9,    2.1,    1.2,    0.9,    1.2,    1.4,    1.5,    2.2,    2.0,    1.6,    2.6,    3.7,    4.0,    3.0,    3.2,    4.3,    4.6,    5.7,    5.5,    5.9,    5.9,    6.4,    6.2,    6.2,    6.6,    7.2,    8.0,    8.3,    7.3,    6.8,    6.2,    6.5,    6.7,    8.2,    8.4,    7.9,    8.2,    7.5,    7.1,    7.7,    7.6,    8.7,    9.6,    8.0,    9.0,    7.6,    6.0,    3.4,    4.0,    3.3,    1.4,   -0.7,   -2.5,   -3.6,   -4.4,   -5.6,  999.0,   -4.1,   -3.7,   -2.6,   -1.9,   -1.4,    0.7,    1.4,   -0.1,    0.6,    0.7,    3.3,    2.5,   -0.1,  999.0,   -0.0,    0.2,    2.0,    5.0,    3.3,    3.8,    2.5,    0.7,   -0.2,    0.8,    2.8,    7.1,    7.6,    5.1,   -0.7,   -1.4,   -1.8,    1.4,  999.0,  999.0,  999.0,  999.0,    4.2,    0.8,    3.8,    2.9,  999.0,  999.0
1987/09/09 18:05,    2.3,    3.0,    4.4,    4.8,    4.5,    4.2,    3.5,    3.2,    3.1,    3.4,    3.2,    2.5,    2.7,    2.1,    1.2,    1.1,    1.4,    1.6,    2.5,    2.8,    3.5,    4.0,    4.4,    4.1,    3.1,    2.8,    2.9,    3.0,    3.3,    3.6,    1.9,    3.1,    4.1,    3.8,    3.6,    2.5,    3.2,    4.3,    5.1,    5.0,    5.9,    6.1,    6.0,    5.5,    5.8,    6.7,    7.3,    7.6,    8.5,    7.6,    6.8,    6.7,    7.5,    7.4,    7.9,    8.7,    9.1,    9.1,    7.5,    7.8,    8.2,    9.4,    9.4,    9.1,    8.7,   10.1,    7.2,    7.8,    2.2,    3.7,    3.6,    1.6,    0.5,   -1.8,   -3.7,   -3.0,   -4.5,   -4.5,   -3.5,   -3.7,   -3.3,   -1.4,   -1.7,    0.9,    2.2,    0.8,   -0.7,    0.6,    2.9,    2.8,    0.8,    1.3,    0.1,    0.4,    2.7,    4.4,    3.4,    4.4,    3.1,    2.0,    0.8,    1.3,    2.4,    7.0,    6.7,    5.5,   -0.8,   -1.2,    0.0,    2.1,  999.0,  999.0,  999.0,    1.7,  999.0,    1.8,  999.0,  999.0,  999.0,  999.0
1987/09/09 18:15,    2.5,    3.0,    4.4,    5.2,    5.5,    5.3,    4.3,    4.3,    3.9,    4.4,    3.9,    2.6,    2.3,    2.0,    1.2,    0.8,    1.1,    1.8,    2.2,    3.1,    3.4,    3.9,    4.6,    4.7,    2.8,    2.6,    2.1,    2.2,    2.1,    2.6,    1.9,    2.8,    3.5,    3.3,    2.4,    2.7,    3.1,    3.9,    4.2,    4.3,    5.0,    4.7,    4.6,    3.9,    4.5,    5.3,    6.0,    7.0,    7.3,    5.9,    5.6,    5.8,    6.7,    6.8,    7.4,    7.8,    7.6,    7.7,    6.3,    6.3,    7.4,    7.8,    9.2,  999.0,    8.3,    9.4,    7.1,  999.0,  999.0,    3.6,    4.1,    3.1,    1.3,   -0.3,   -3.3,   -3.8,   -3.8,   -5.6,   -6.1,   -4.6,   -4.2,   -2.5,   -1.8,   -0.2,    1.7,    0.6,   -1.1,   -0.8,    1.9,    3.2,    2.1,   -0.0,   -0.3,   -0.0,    1.0,    4.0,    3.9,    4.0,    2.2,    1.6,    0.3,    0.7,    3.7,    7.2,    7.7,  999.0,   -0.4,   -1.5,    0.5,    2.2,  999.0,  999.0,  999.0,  999.0,  999.0,    3.7,  999.0,  999.0,  999.0,  999.0
1987/09/09 18:25,    1.7,    1.9,    2.9,    3.9,    3.9,    3.7,    2.4,    2.3,    3.0,    3.8,    3.8,    2.8,    2.8,    2.0,    0.7,    0.5,    0.8,    1.2,    2.1,    2.1,    2.2,    2.7,    3.8,    2.6,    2.0,    1.4,    1.8,    2.4,    2.8,    3.0,    2.4,    3.3,    3.9,    4.0,    2.9,    3.1,    3.6,    4.4,    4.4,    4.5,    4.5,    4.7,    4.3,    4.5,    5.0,    5.2,    5.6,    6.1,    5.3,    3.2,    3.0,    3.2,    4.4,    5.0,    5.3,    6.2,    6.8,    7.3,    6.9,    5.8,    6.7,    7.6,    7.8,    8.2,    9.0,    9.4,    7.3,  999.0,  999.0,    4.3,    3.3,    2.9,    1.0,   -1.3,   -3.6,   -4.0,   -5.2,   -6.9,   -6.3,   -5.8,   -5.1,   -3.9,   -2.2,   -2.3,  999.0,    0.4,   -1.4,   -1.4,    1.7,    3.2,  999.0,   -0.6,    0.3,    1.0,    2.1,    4.6,    4.3,    4.1,    2.6,    0.2,    0.4,    1.3,    2.8,    6.9,    7.5,    6.4,  999.0,   -1.6,   -1.0,    1.8,  999.0,  999.0,    1.8,    1.7,    2.5,  999.0,  999.0,    2.5,    4.3,  999.0
1987/09/09 18:35,    1.9,    2.3,    3.3,    4.7,    5.1,    4.9,    3.0,    2.4,    2.6,    3.0,    2.7,    2.0,    2.6,    1.7,    0.6,    0.5,    0.7,    1.2,    2.0,    2.0,    1.7,    2.7,    3.8,    3.1,    2.2,    2.0,    2.7,    3.1,    3.2,    3.2,    3.1,    3.3,    4.0,    3.8,    2.5,    2.9,    4.0,    4.5,    5.2,    5.3,    5.1,    5.7,    6.3,    6.2,    7.2,    6.9,    7.0,    7.5,    6.9,    5.4,    4.5,    4.5,    5.1,    6.1,    7.2,    7.6,    8.5,    7.8,    7.3,    7.1,    7.1,    7.7,    8.4,    7.7,    7.6,    8.7,    5.7,  999.0,    5.6,    3.5,    3.7,    1.6,   -0.3,   -2.1,   -3.9,   -5.5,   -6.9,   -7.6,   -6.8,   -6.2,   -4.6,   -2.9,   -3.1,   -1.1,    1.2,    0.2,   -1.8,   -3.0,    1.9,    0.4,  999.0,   -0.7,    0.1,    0.6,    1.1,    4.1,    4.7,    4.4,    3.4,    0.8,    0.7,    1.7,    5.3,    7.0,    7.2,    6.9,  999.0,   -1.1,   -0.0,    0.3,  999.0,  999.0,  999.0,    1.9,    2.3,  999.0,  999.0,  999.0,    1.0,    1.2
1987/09/09 18:45,    2.3,    2.9,    4.1,    5.1,    5.7,    4.8,    2.7,    2.2,    2.6,    3.0,    3.2,    2.2,    2.7,    1.5,    0.4,    0.4,    0.6,    0.9,    1.5,    1.9,    1.8,    2.4,    3.4,    3.3,    2.3,    1.8,    2.3,    3.3,    3.7,    2.7,    3.3,    3.7,    3.5,    3.0,    1.9,    2.4,    3.3,    4.0,    4.5,    4.9,    5.9,    5.6,    6.2,    6.3,    6.6,    6.7,    7.6,    7.1,    6.8,    5.6,    4.6,    4.9,    5.7,    7.0,    8.1,    8.2,    8.9,    8.8,    7.5,    6.5,    7.5,    7.2,    7.6,    7.3,    7.7,    8.1,    6.8,  999.0,  999.0,    5.0,    2.7,    1.6,    0.8,   -2.1,   -3.6,   -3.2,   -3.1,   -3.6,   -5.0,   -2.9,   -2.0,   -1.4,    0.9,    1.5,    1.8,   -0.3,   -1.8,  999.0,    0.5,  999.0,   -2.3,   -1.6,   -0.3,   -0.1,    1.4,    4.2,    4.4,    5.4,    2.5,    2.3,    0.3,    1.4,    3.0,    6.7,    7.0,    6.8,   -0.4,   -1.3,   -0.3,    0.6,   -1.2,    3.4,    1.0,    0.1,  999.0,  999.0,    0.4,  999.0,  999.0,  999.0
1987/09/09 18:55,    2.8,    2.5,    3.0,    4.3,    4.3,    3.8,    2.2,    1.2,    1.6,    3.1,    2.4,    3.3,    2.8,    1.5,    1.1,    0.7,    0.9,    1.5,    2.5,    2.9,    2.6,    2.8,    3.2,    3.0,    2.2,    1.8,    1.7,    2.5,    3.1,    2.8,    2.8,    3.7,    4.2,    3.9,    3.1,    3.4,    4.0,    4.6,    5.4,    5.4,    5.8,    5.4,    5.2,    5.6,    6.0,    6.0,    6.3,    6.7,    5.1,    4.7,    3.5,    3.1,    5.0,    6.5,    7.2,    7.7,    8.2,    7.6,    6.9,    6.2,    6.1,    6.7,    7.1,    7.3,    7.5,    8.1,    6.3,  999.0,    6.5,    4.3,    3.9,    1.6,    0.2,   -1.5,   -3.7,   -4.5,   -5.0,   -5.3,   -5.4,   -3.9,   -4.1,   -1.3,   -1.8,    3.4,    2.3,    1.2,    0.1,  999.0,    1.8,  999.0,  999.0,    1.2,    1.0,    1.4,    1.2,    3.8,    4.6,    4.5,    3.4,    1.0,    0.6,    1.5,    2.9,    6.0,    6.5,    7.2,   -2.3,   -3.0,   -1.5,  999.0,  999.0,    1.1,    1.2,    1.1,  999.0,    0.8,  999.0,  999.0,  999.0,  999.0
1987/09/09 19:05,    3.6,    3.0,    3.4,    4.5,    4.7,    4.3,    3.5,    2.8,    2.4,    2.8,    3.2,    3.6,    3.1,    1.6,    1.4,    0.9,    1.0,    1.4,    2.0,    2.4,    2.2,    2.5,    3.5,    3.5,    2.4,    2.0,    1.7,    2.5,    2.9,    3.0,    2.7,    3.3,    3.5,    3.1,    2.5,    3.0,    3.7,    4.3,    4.9,    5.1,    5.5,    5.9,    5.0,    5.7,    5.9,    6.7,    6.9,    7.1,    5.7,    5.0,    4.7,    3.9,    4.9,    6.8,    8.0,    8.5,    9.2,    9.0,    7.9,    6.9,    7.2,    8.6,    7.9,    7.3,    7.8,    8.4,    8.1,  999.0,  999.0,    3.1,    3.4,    1.2,    0.4,   -1.5,   -3.4,   -3.7,   -4.6,   -6.3,   -5.7,   -4.4,   -3.5,   -1.6,   -1.0,    0.3,    0.8,    0.2,   -0.1,    0.5,  999.0,  999.0,  999.0,   -0.8,    1.1,    0.5,    1.4,    3.8,    3.9,    4.7,    3.3,    1.3,    0.1,    1.4,    3.7,    6.0,    6.8,    4.1,   -2.0,   -1.8,   -2.3,    2.0,  999.0,    1.2,  999.0,    0.9,    4.3,  999.0,  999.0,    1.5,  999.0,  999.0
1987/09/09 19:15,    4.1,    3.4,    3.4,    4.6,    4.4,    3.6,    2.5,    2.1,    2.5,    2.5,    1.4,    2.1,    1.5,    1.0,    1.1,    1.1,    1.0,    1.2,    1.7,    2.1,    2.1,    2.0,    2.6,    3.0,    2.3,    2.1,    3.2,    4.3,    4.8,    4.3,    4.1,    4.2,    3.5,    2.6,    1.8,    2.5,    3.6,    3.9,    5.1,    4.4,    5.0,    5.0,    5.4,    5.4,    5.7,    6.0,    7.1,    5.9,    5.9,    4.8,    3.9,    4.3,    5.7,    7.8,    8.6,    9.7,    9.8,    9.1,    8.3,    8.0,    8.4,    7.5,    8.0,    7.4,    8.1,    7.6,    6.6,  999.0,    3.6,    2.8,    2.0,    0.8,   -1.1,   -2.8,   -4.2,   -4.4,   -7.0,   -6.6,   -6.1,   -4.6,   -3.9,   -2.6,   -1.4,    0.3,    1.0,   -0.2,   -1.1,   -1.4,    2.2,  999.0,   -2.9,   -1.0,    0.9,    0.1,    0.4,    2.6,    2.9,    2.9,    2.0,    0.7,    0.0,    1.8,    2.9,    6.3,    7.0,    5.1,   -1.1,   -1.2,    0.1,  999.0,  999.0,    1.9,  999.0,    0.5,  999.0,  999.0,  999.0,  999.0,  999.0,  999.0
1987/09/09 19:25,    3.7,    3.4,    3.3,    3.4,    3.9,    3.7,    2.0,    2.0,    2.5,    2.6,    2.0,    2.4,    2.0,    1.3,    1.2,    1.2,    1.0,    1.5,    2.1,    2.2,    2.2,    2.4,    2.2,    2.4,    1.9,    1.8,    3.1,    3.9,    4.4,    3.6,    3.4,    3.5,    3.0,    2.3,    2.0,    2.5,    2.9,    4.0,    4.6,    4.1,    4.4,    5.1,    5.0,    5.1,    5.2,    5.5,    5.7,    5.4,    5.2,    3.8,    3.3,    3.8,    6.0,    7.7,    8.8,    9.4,    9.5,    7.8,    6.4,    6.7,    6.1,    6.1,    7.9,    6.7,    6.6,    6.7,    5.0,    5.2,    2.3,    3.6,  999.0,  999.0,   -0.2,   -2.9,   -4.5,   -5.6,   -6.7,   -6.3,   -6.0,   -4.9,   -3.6,   -3.0,   -2.0,   -0.7,   -1.1,   -1.1,   -0.5,   -0.0,    2.2,  999.0,   -1.2,   -0.8,   -0.1,   -0.8,    0.4,    2.7,    3.1,    2.9,    0.9,    1.5,   -0.3,    1.3,    3.1,    6.4,    7.4,    3.2,   -0.2,    0.4,    2.8,    2.3,    2.7,    2.0,    2.8,    0.5,  999.0,  999.0,  999.0,  999.0,  999.0,  999.0
1987/09/09 19:35,    3.2,    2.7,    2.6,    3.7,    3.6,    2.8,    1.9,    1.4,    1.1,    2.1,    1.6,    1.5,    2.2,    1.9,    1.6,    1.7,    1.8,    2.1,    3.5,    3.6,    3.9,    4.2,    4.3,    4.7,    3.8,    3.3,    3.5,    4.2,    4.3,    4.1,    3.7,    3.8,    2.8,    2.3,    1.5,    1.7,    2.7,    4.1,    4.4,    3.5,    3.4,    3.6,    4.0,    4.1,    4.0,    4.4,    5.1,    4.3,    4.1,    2.9,    2.9,    3.6,    6.1,    7.3,    7.6,    8.2,    9.7,    7.9,    7.2,    7.0,    7.7,    6.6,    7.4,    6.1,    5.3,    5.6,    4.9,  999.0,  999.0,  999.0,    0.9,    0.9,   -0.6,   -1.7,   -3.9,   -4.7,   -5.6,   -5.3,   -5.3,   -3.9,   -2.6,   -2.3,   -0.9,   -0.3,  999.0,    0.1,    0.4,    0.5,    2.5,    2.7,  999.0,   -2.2,   -0.6,   -1.1,   -0.4,    2.0,    3.5,    3.9,    2.2,    0.6,   -0.1,    1.3,    2.9,    5.6,    6.6,    1.2,    0.1,    0.7,  999.0,    4.0,    3.3,    2.7,    3.0,    1.8,  999.0,  999.0,  999.0,  999.0,  999.0,  999.0
1987/09/09 19:45,    3.1,    2.6,    1.8,    2.3,    3.2,    2.9,    2.2,    1.2,    1.0,    1.8,    2.0,    2.1,    2.8,    1.6,    0.7,    1.4,    1.4,    2.4,    2.3,    2.5,    2.7,    3.2,    3.1,    3.4,    2.8,    2.3,    2.5,    2.9,    2.7,    2.7,    3.0,    2.8,    2.2,    0.9,    1.1,    2.1,    3.3,    4.4,    3.6,    2.7,    3.1,    3.9,    4.2,    4.7,    4.5,    5.4,    5.9,    5.0,    5.3,    4.7,    4.1,    5.0,    7.0,    8.3,    9.0,    9.7,   10.7,    7.8,    7.7,    7.0,    5.9,    7.3,    6.7,    5.8,    5.2,    5.2,    5.2,  999.0,  999.0,    0.2,    1.8,   -0.1,   -0.1,   -2.6,   -4.1,   -5.1,   -5.9,   -5.5,   -5.1,   -4.1,   -2.0,   -1.4,   -1.1,  999.0,   -0.2,    0.4,    0.3,    1.0,    1.4,    0.8,   -1.2,   -1.5,   -1.1,   -1.3,   -1.0,    1.2,    2.8,    3.8,    3.5,    2.4,    0.1,    0.8,    3.2,    5.8,  999.0,   -1.0,    0.5,    1.9,  999.0,    2.5,  999.0,    2.3,    2.2,    1.5,  999.0,  999.0,  999.0,  999.0,  999.0,  999.0
1987/09/09 19:55,    2.8,    2.6,    2.2,    3.0,    4.2,    4.1,    2.9,    1.7,    1.7,    1.3,    1.8,    1.9,    2.2,    1.7,    1.3,    1.5,    1.5,    2.7,    3.5,    3.5,    4.3,    4.8,    4.9,    4.7,    4.2,    3.5,    3.3,    4.0,    4.2,    3.9,    4.2,    4.3,    3.0,    1.9,    2.1,    2.3,    3.1,    4.2,    3.5,    2.5,    2.8,    3.3,    4.1,    4.8,    4.3,    4.9,    5.8,    5.2,    5.1,    4.1,    4.2,    6.3,    8.9,   10.3,   10.2,   10.6,    9.1,    9.0,    8.7,    8.1,    7.8,    8.1,    7.8,    5.9,    6.5,    8.2,  999.0,  999.0,  999.0,  999.0,  999.0,    1.3,    0.4,   -1.6,   -3.7,   -5.0,   -6.1,   -6.4,   -5.4,   -4.2,   -1.7,   -1.1,   -1.3,   -1.2,    0.9,    0.8,    0.9,    1.9,    2.0,    1.6,   -3.4,   -1.8,   -1.0,   -1.1,   -1.2,    0.5,    3.1,    3.6,    2.7,    0.2,   -0.4,    1.6,    3.7,    6.5,    5.7,    1.2,   -0.4,    2.7,    3.9,  999.0,    3.9,    2.6,  999.0,    0.8,    0.1,  999.0,  999.0,  999.0,  999.0,  999.0
1987/09/09 20:05,    3.2,    2.5,    3.3,    3.5,    4.7,    3.9,    2.6,    1.6,    1.7,    1.1,    0.9,    1.0,    1.2,    0.9,    0.5,    0.9,    0.9,    1.3,    2.8,    3.2,    3.7,    4.2,    5.0,    5.3,    5.2,    3.8,    3.5,    3.4,    3.6,    4.0,    4.3,    4.4,    3.5,    2.5,    2.9,    2.9,    4.3,    4.4,    3.0,    2.5,    2.3,    3.0,    3.4,    4.4,    4.4,    4.5,    5.6,    5.3,    5.0,    5.0,    5.5,    7.8,    9.3,   10.0,   10.6,    9.6,    8.6,    8.3,    7.9,    7.4,    7.7,    7.0,    6.9,    6.9,    6.4,    7.1,  999.0,  999.0,  999.0,  999.0,  999.0,    1.3,   -0.2,   -2.2,   -3.9,   -4.8,   -5.8,   -5.9,   -5.3,   -3.7,   -1.6,   -0.4,   -1.3,   -0.8,    1.7,    0.8,    1.1,    1.6,    2.3,    1.3,   -1.7,   -2.4,   -1.5,   -0.6,   -0.4,    2.2,    3.4,    4.2,    3.6,  999.0,    0.0,    2.5,    4.1,    5.9,    7.0,    1.4,   -0.2,    0.0,    3.3,  999.0,    3.6,    2.7,    1.6,  999.0,  999.0,  999.0,  999.0,   -0.9,  999.0,  999.0
1987/09/09 20:15,    3.3,    2.6,    3.4,    4.3,    5.7,    4.8,    3.2,    1.4,    0.7,    0.5,    1.0,    0.9,    1.3,    1.2,    0.4,    0.5,    0.8,    2.6,    3.2,    3.5,    3.9,    4.5,    5.0,    5.0,    5.4,    4.5,    4.1,    3.7,    4.2,    4.7,    4.6,    4.8,    4.2,    3.1,    2.4,    3.1,    4.1,    3.5,    3.4,    2.9,    2.2,    2.0,    3.2,    4.1,    4.5,    4.9,    5.8,    5.7,    5.3,    5.1,    5.6,    7.6,    9.2,    9.2,    8.7,    7.3,    6.8,    6.4,    5.5,    6.0,    5.9,    6.3,    5.8,    5.5,    4.9,  999.0,  999.0,  999.0,  999.0,  999.0,  999.0,    0.4,   -1.9,   -2.2,   -4.0,   -5.0,   -5.9,   -6.5,   -6.8,   -5.0,   -3.2,   -3.4,   -2.2,   -1.2,  999.0,   -0.2,    0.8,    1.3,    1.6,    1.6,   -2.4,   -2.4,    1.3,   -1.9,   -0.6,    0.6,    3.8,    4.3,    3.7,    1.5,   -0.3,    2.0,    4.3,    6.0,    5.6,   -0.1,   -1.0,    0.3,    3.2,  999.0,  999.0,    2.6,    1.7,    1.4,  999.0,   -1.2,    1.0,  999.0,  999.0,  999.0
1987/09/09 20:25,    2.5,    2.1,    2.5,    3.2,    4.6,    5.4,    4.4,    2.5,    1.7,    1.6,    2.0,    2.1,    1.9,    1.5,    1.5,    1.7,    2.1,    2.8,    3.3,    4.1,    4.7,    5.0,    4.7,    4.7,    4.2,    3.3,    3.2,    3.3,    4.2,    4.6,    4.7,    4.9,    3.9,    2.7,    2.0,    2.7,    3.6,    3.4,    3.2,    3.3,    1.9,    2.3,    2.3,    2.8,    3.5,    3.9,    4.9,    4.7,    4.4,    4.3,    5.7,    7.7,    8.8,    9.3,    9.2,    8.3,    7.3,    6.4,    5.8,    6.5,    5.6,    5.9,    5.8,    5.1,    5.1,  999.0,  999.0,  999.0,  999.0,  999.0,  999.0,    1.3,    0.1,   -1.5,   -3.2,   -5.4,   -4.6,   -5.6,   -6.0,   -5.7,   -2.4,   -2.3,   -3.2,   -3.0,    1.4,    1.0,    1.3,    1.2,    2.4,  999.0,   -2.1,   -0.3,   -1.5,   -0.3,    0.0,    1.4,    4.3,    5.3,  999.0,  999.0,    0.2,    1.9,    3.4,    5.3,    2.6,   -1.1,   -1.0,    1.3,  999.0,  999.0,  999.0,  999.0,    1.8,    0.6,   -0.6,  999.0,  999.0,  999.0,  999.0,  999.0
1987/09/09 20:35,    3.3,    3.9,    3.5,    3.3,    3.6,    4.1,    3.9,    2.2,    2.1,    1.8,    2.2,    2.5,    2.1,    1.9,    1.5,    1.7,    1.5,    1.3,    1.9,    2.2,    3.3,    4.6,    4.3,    3.7,    3.3,    3.0,    3.5,    4.1,    4.3,    5.5,    6.1,    5.9,    4.9,    4.0,    2.6,    3.5,    4.1,    4.3,    4.5,    4.2,    2.6,    2.5,    2.5,    3.6,    3.8,    3.4,    4.5,    4.7,    4.4,    4.6,    6.0,    7.7,    8.5,    8.3,    8.2,    6.9,    6.1,    6.0,    4.0,    3.5,    3.4,    3.5,    3.1,    3.6,    4.3,    3.0,  999.0,  999.0,  999.0,  999.0,  999.0,  999.0,   -0.3,   -1.6,   -3.6,   -5.4,   -5.3,   -6.5,   -6.7,   -6.2,   -5.2,   -2.9,   -3.1,   -2.5,  999.0,    1.1,    1.4,    1.3,    1.7,    1.1,   -2.8,   -1.2,   -0.5,   -0.5,   -0.4,    2.1,    4.0,    4.2,  999.0,  999.0,    0.1,    2.3,    4.0,    5.3,    2.6,   -0.2,   -1.2,   -0.3,    2.5,  999.0,  999.0,  999.0,    1.9,    1.2,   -0.3,   -0.6,  999.0,  999.0,  999.0,  999.0
1987/09/09 20:45,    3.2,    3.1,    3.3,    2.1,    3.1,    3.6,    3.8,    2.6,    2.1,    1.9,    2.2,    2.7,    2.6,    1.9,    1.6,    2.0,    1.8,    1.6,    1.6,    2.0,    2.5,    3.8,    3.9,    3.9,    3.9,    3.5,    3.9,    4.2,    4.1,    4.8,    5.4,    5.1,    4.0,    2.2,    2.2,    3.0,    3.4,    3.7,    4.3,    4.3,    3.8,    4.0,    4.3,    5.4,    6.1,    5.2,    5.8,    6.1,    5.3,    5.0,    6.8,    8.5,    9.5,    9.0,    7.9,    6.9,    6.7,    5.5,    4.7,    4.5,    1.7,    4.9,    5.3,    5.3,    5.5,  999.0,  999.0,  999.0,  999.0,  999.0,  999.0,    2.5,    0.9,   -1.5,   -2.4,   -3.1,   -4.0,   -4.2,   -5.6,   -5.6,   -4.0,   -3.2,   -2.1,   -1.3,   -1.4,    1.7,    1.9,    1.8,    1.9,   -1.4,   -3.2,   -1.5,   -1.5,   -2.6,   -0.7,    2.2,    5.2,    5.0,    2.4,   -0.2,   -0.4,    1.7,    3.7,    5.8,    3.8,  999.0,   -1.5,   -1.4,    1.8,  999.0,    2.7,    2.5,    2.4,   -0.3,  999.0,  999.0,   -2.9,  999.0,  999.0,  999.0
1987/09/09 20:55,    3.3,    4.4,    4.0,    2.2,    2.8,    3.3,    3.3,    3.3,    2.4,    1.3,    2.2,    2.9,    3.0,    2.4,    1.8,    2.6,    2.4,    2.6,    2.9,    3.4,    3.9,    4.4,    4.4,    4.4,    4.3,    4.3,    3.7,    3.9,    4.0,    4.5,    5.0,    4.9,    4.0,    2.4,    2.6,    3.0,    3.5,    4.5,    5.3,    5.4,    3.9,    3.5,    3.5,    4.3,    5.0,    4.7,    5.4,    6.5,    5.6,    5.7,    6.8,    7.9,    9.2,    9.0,    7.5,    6.6,    6.2,    5.3,    5.0,    4.6,    4.8,    4.8,    5.0,    3.3,    3.5,  999.0,  999.0,    5.1,  999.0,  999.0,    1.8,    1.1,   -0.6,   -3.3,   -3.8,   -5.3,   -5.7,   -6.1,   -6.4,   -6.2,   -5.5,   -2.9,   -2.5,   -1.5,   -1.5,   -0.1,    1.5,  999.0,    2.3,  999.0,   -2.5,   -2.4,    0.1,   -0.6,    0.1,    3.5,    5.3,    6.0,  999.0,    1.5,   -0.9,    0.9,    2.7,    3.3,  999.0,   -1.2,   -2.4,    0.2,    2.3,    3.3,  999.0,    1.7,    2.1,  999.0,   -2.1,  999.0,  999.0,  999.0,  999.0,  999.0
1987/09/09 21:05,    1.7,    3.3,    2.5,    1.3,    2.0,    2.5,    4.0,    4.3,    3.1,    1.6,    1.3,    1.4,    2.5,    2.2,    1.5,    2.1,    2.5,    2.5,    2.7,    3.4,    4.1,    4.4,    5.4,    5.7,    5.0,    5.5,    5.4,    5.0,    5.0,    4.7,    5.4,    5.3,    4.6,    3.3,    3.6,    3.5,    3.8,    4.9,    5.5,    5.5,    2.7,    3.2,    3.5,    4.5,    4.6,    4.5,    5.4,    5.9,    5.1,    5.4,    6.1,    8.1,    8.5,    7.8,    6.9,    6.6,    4.9,    4.7,    4.6,    3.0,    2.7,    2.5,    3.4,    3.1,    2.6,  999.0,  999.0,  999.0,  999.0,  999.0,  999.0,    0.9,   -0.0,   -2.9,   -3.6,   -8.3,   -4.1,   -9.0,   -5.2,   -6.4,   -5.7,   -3.7,   -2.1,   -2.5,   -2.0,    0.1,  999.0,    1.2,    2.0,  999.0,   -2.7,   -0.4,   -0.2,   -0.7,    0.2,    4.0,    5.2,    4.8,    2.3,  999.0,   -1.8,    0.9,    2.8,    4.8,    0.3,   -1.6,   -2.4,   -0.5,    2.7,    2.8,    3.2,    1.8,    1.8,  999.0,  999.0,  999.0,  999.0,   -2.4,  999.0,  999.0
1987/09/09 21:15,    1.8,    3.2,    3.2,    2.4,    2.1,    2.4,    4.3,    5.1,    3.1,    1.6,    1.3,    1.5,    2.2,    2.3,    1.0,    0.8,    1.2,    1.8,    2.6,    2.7,    3.5,    4.6,    7.1,    7.4,    6.0,    5.8,    5.8,    5.6,    5.8,    6.3,    6.4,    5.9,    4.6,    4.3,    4.4,    4.4,    4.4,    5.3,    5.8,    6.0,    3.2,    3.6,    4.3,    5.1,    5.3,    5.6,    6.5,    6.2,    5.4,    5.2,    6.1,    7.8,    7.7,    6.9,    7.1,    5.2,    5.6,    5.6,    5.2,    3.7,    3.9,    2.9,    4.4,    4.7,    4.5,    3.8,  999.0,  999.0,  999.0,  999.0,    1.4,    1.3,    0.6,   -1.9,   -3.3,   -4.0,  999.0,   -6.4,   -6.8,   -5.0,   -5.5,   -4.8,   -3.5,   -3.4,   -2.1,    0.2,  999.0,    4.5,    3.1,   -1.6,   -3.2,   -2.0,   -0.8,   -0.7,    0.5,    3.2,    5.5,    5.6,    3.6,  999.0,   -2.0,    1.7,    3.9,    4.3,  999.0,   -1.3,   -3.1,   -1.0,    1.3,    4.2,  999.0,  999.0,    1.7,    1.0,   -3.0,  999.0,  999.0,  999.0,  999.0,  999.0
1987/09/09 21:25,    2.7,    3.2,    2.4,    3.5,    3.4,    3.1,    3.9,    4.1,    3.5,    2.0,    1.2,    1.1,    1.5,    1.8,    1.7,    1.7,    1.5,    1.4,    2.3,    2.9,    3.5,    4.9,    6.7,    7.2,    6.2,    5.9,    5.9,    7.2,    6.9,    7.0,    7.8,    7.3,    6.5,    4.8,    4.9,    4.6,    4.4,    4.7,    5.2,    4.6,    3.4,    3.5,    3.6,    4.3,    4.3,    4.1,    5.5,    5.5,    5.3,    5.3,    6.4,    7.5,    6.1,    6.1,    6.2,    5.0,    5.3,    4.8,    4.7,    3.6,    2.9,    3.0,    2.0,    3.0,    3.5,    2.4,  999.0,  999.0,  999.0,  999.0,    1.5,    1.6,    0.3,   -1.9,   -3.1,   -4.2,   -4.6,   -6.1,   -6.3,   -5.4,   -4.9,   -4.0,   -3.1,   -2.6,   -0.2,    0.7,  999.0,    3.4,    3.0,   -1.1,   -1.9,   -2.0,   -0.2,   -0.6,    0.3,    4.4,    5.0,    5.2,  999.0,    0.0,   -1.5,    1.1,    4.2,    5.1,    2.9,   -0.7,   -2.2,   -0.4,    2.2,    2.8,    1.5,    4.0,  999.0,  999.0,   -2.8,  999.0,  999.0,   -3.5,  999.0,  999.0
1987/09/09 21:35,    2.3,    3.2,    3.0,    2.5,    2.5,    2.3,    3.3,    3.3,    4.0,    2.1,    0.9,    1.4,    1.4,    1.4,    1.4,    2.3,    2.9,    2.4,    2.6,    2.2,    3.4,    4.9,    5.6,    5.9,    5.1,    5.2,    5.2,    6.7,    7.3,    7.1,    7.2,    7.3,    6.0,    5.1,    4.3,    5.3,    5.2,    5.8,    5.8,    5.4,    3.5,    4.0,    4.2,    4.5,    4.0,    4.5,    5.7,    5.2,    4.9,    4.7,    6.4,    7.1,    6.6,    6.6,    6.8,    6.4,    5.8,    4.7,    4.1,    3.6,    3.3,    3.0,  999.0,    2.1,    2.7,    2.9,    2.2,  999.0,  999.0,  999.0,    2.8,  999.0,   -0.6,   -2.2,   -3.2,   -4.6,   -6.0,   -6.2,   -6.8,   -5.9,   -5.4,   -4.1,   -3.5,   -3.2,   -0.5,    0.1,    3.4,    2.6,    2.0,  999.0,   -1.6,   -0.3,    1.6,    0.2,    0.9,    2.0,    5.7,    6.1,    4.5,  999.0,   -0.2,    0.4,    3.9,    5.0,  999.0,    0.2,   -3.3,   -1.1,    1.9,    2.7,  999.0,  999.0,    0.8,    0.7,   -2.2,  999.0,  999.0,  999.0,  999.0,  999.0
1987/09/09 21:45,    1.4,    2.0,    1.9,    1.8,    1.7,    2.1,    2.6,    2.8,    4.5,    2.8,    1.6,    1.0,    1.0,    1.1,    1.3,    2.0,    1.9,    1.7,    2.1,    3.5,    4.4,    5.2,    5.9,    5.7,    4.9,    4.8,    5.5,    6.2,    7.3,    6.9,    6.9,    7.1,    6.0,    5.2,    5.1,    5.6,    5.4,    6.2,    5.8,    5.7,    5.1,    4.7,    5.0,    5.2,    4.7,    5.3,    5.7,    6.1,    4.9,    4.1,    4.4,    5.6,    5.5,    5.0,    6.0,    6.3,    5.6,    4.9,    3.5,    3.2,    1.8,    1.0,    0.8,    1.7,    2.2,    3.0,    3.1,  999.0,  999.0,  999.0,  999.0,    0.5,    1.6,   -1.2,   -1.9,   -4.1,   -4.0,   -6.9,   -4.7,   -5.8,   -4.4,   -3.2,   -3.3,   -2.8,   -1.6,   -0.1,    1.7,    2.2,    0.7,  999.0,   -2.4,   -0.8,   -0.1,   -1.1,    0.2,    3.7,    5.6,    5.6,    4.0,  999.0,   -0.7,    1.1,    4.0,    3.4,    0.5,   -3.1,   -3.3,   -1.0,    2.5,    4.0,    2.4,  999.0,    0.3,  999.0,  999.0,  999.0,  999.0,  999.0,  999.0,  999.0
1987/09/09 21:55,    2.1,    2.4,    1.5,    1.9,    1.5,    2.5,    2.6,    4.5,    0.7,    3.3,    3.4,    1.3,    1.9,    1.3,    0.8,    1.1,    1.1,    1.0,    1.9,    3.4,    4.4,    5.0,    5.2,    5.1,    4.8,    5.0,    5.4,    5.9,    6.5,    6.7,    6.7,    6.6,    5.8,    5.4,    5.2,    5.2,    5.6,    5.9,    4.9,    5.1,    4.4,    4.3,    4.0,    4.3,    4.3,    4.7,    5.4,    5.0,    4.4,    4.3,    4.0,    4.8,    5.5,    5.4,    6.1,    6.4,    5.7,    4.2,    2.4,    0.0,   -0.3,    0.2,    0.1,    0.6,    1.8,    1.1,    1.7,    2.2,  999.0,  999.0,    0.0,  999.0,    0.8,   -0.7,   -2.4,   -3.6,   -5.4,   -5.7,   -4.7,   -4.9,   -3.4,   -3.0,   -2.2,   -2.5,   -0.7,    0.6,    1.5,    3.1,  999.0,   -1.9,   -3.0,   -1.4,   -1.7,   -2.1,   -0.1,    3.3,    5.0,    5.1,    0.5,  999.0,    0.5,    2.2,    4.4,    4.3,   -0.9,   -2.5,   -3.2,   -0.2,    2.9,    3.7,    2.7,   -0.7,  999.0,   -0.3,   -2.8,  999.0,  999.0,  999.0,  999.0,  999.0
1987/09/09 22:05,    2.3,    2.5,    1.8,    2.6,    3.0,    2.8,    2.2,    2.7,    3.6,    3.7,    0.6,   -0.0,    0.5,    0.4,    0.4,    0.5,    0.7,    1.0,    2.6,    4.3,    5.0,    4.9,    5.3,    4.6,    4.7,    5.3,    6.0,    6.2,    5.9,    6.3,    6.5,    6.8,    6.1,    5.3,    5.3,    5.6,    5.9,    6.1,    5.2,    5.2,    4.9,    4.3,    4.5,    4.7,    4.3,    4.7,    5.3,    4.5,    3.8,    3.5,    3.7,    4.7,    5.4,    5.0,    5.0,    5.6,    4.9,    3.1,    1.7,   -0.3,    0.5,    0.4,    0.6,    0.5,    1.4,    2.3,    3.1,    2.8,  999.0,    1.6,    2.3,    1.7,   -0.5,   -2.2,   -3.6,   -5.1,   -6.4,   -7.0,   -5.5,   -6.3,   -4.7,   -3.7,   -3.6,   -3.1,   -0.3,    0.7,    2.4,    3.0,    1.3,   -1.1,   -1.7,   -1.3,   -1.2,   -1.9,   -1.0,    4.5,    4.9,    4.1,    2.4,  999.0,   -1.3,    0.8,    4.2,    4.1,    0.9,   -2.9,   -3.6,   -2.0,    1.7,    3.5,    1.9,  999.0,   -0.5,    0.9,   -2.1,  999.0,  999.0,  999.0,  999.0,  999.0
1987/09/09 22:15,    2.6,    2.0,    1.3,    2.0,    2.7,    3.2,    3.9,    3.8,    3.7,    3.8,    3.0,    2.6,    1.4,    1.6,    1.8,    1.9,    1.9,    1.8,    2.8,    4.5,    5.4,    4.8,    5.4,    4.9,    4.8,    5.6,    6.6,    6.7,    6.1,    6.5,    6.6,    6.7,    6.6,    5.6,    4.8,    5.5,    5.8,    5.8,    5.2,    5.1,    4.7,    4.0,    4.4,    4.6,    4.7,    5.3,    5.9,    5.1,    4.2,    3.3,    3.4,    4.3,    4.9,    4.5,    5.0,    4.4,    3.6,    2.1,    1.0,    0.7,    0.6,    0.8,    1.2,    1.9,    2.2,    3.3,    3.2,    3.1,    2.2,  999.0,    1.8,    0.8,   -0.1,   -2.4,   -3.2,   -4.5,   -6.2,   -7.3,   -6.7,   -6.5,   -4.3,   -2.6,   -3.1,   -2.9,   -0.2,    1.9,    3.1,    4.0,    1.3,   -1.0,   -0.5,    0.8,   -0.6,   -0.8,   -0.2,    4.0,    4.7,    4.3,    1.5,   -0.4,   -1.2,   -0.1,    4.1,    3.3,    0.2,   -1.9,   -2.9,    0.1,    2.7,    4.4,  999.0,   -0.1,   -0.6,    1.7,   -1.1,  999.0,  999.0,  999.0,  999.0,  999.0
1987/09/09 22:25,    2.5,    2.1,    1.7,    2.6,    3.8,    3.9,    3.7,    3.7,    3.1,    3.1,    2.1,    1.3,   -0.2,   -0.5,   -0.7,   -0.8,    0.2,    0.4,    1.7,    2.9,    3.3,    3.1,    3.3,    4.0,    4.6,    5.9,    6.9,    6.9,    6.8,    7.3,    7.7,    7.6,    7.5,    6.0,    6.3,    6.9,    7.2,    7.1,    6.4,    5.9,    5.7,    4.4,    4.7,    4.9,    4.6,    4.9,    5.0,    4.4,    3.6,    3.2,    3.4,    4.4,    4.6,    4.7,    4.2,    3.5,    1.4,    0.6,    0.3,   -0.0,    0.9,    0.8,    0.5,    1.7,    2.1,    2.3,    3.3,    3.3,    3.2,    2.3,    1.6,    0.8,   -0.6,   -1.7,   -2.4,   -3.8,   -6.1,   -7.3,   -6.6,   -6.0,   -4.9,   -3.6,   -4.1,   -2.0,   -0.6,    2.2,    4.8,    3.9,    2.0,   -0.6,   -0.7,    0.4,   -0.0,   -1.7,   -1.1,    2.1,    4.8,    4.1,    0.9,    0.1,   -1.2,    0.6,    3.3,    3.1,    0.2,   -2.5,   -3.7,   -1.0,    4.0,    3.5,    0.1,   -1.0,   -0.9,  999.0,   -3.9,   -3.0,  999.0,  999.0,  999.0,  999.0
1987/09/09 22:35,    3.1,    2.1,    1.9,    1.5,    2.7,    3.7,    3.1,    3.7,    4.2,    2.9,    2.4,    2.1,    0.2,   -0.1,   -0.3,   -0.4,    0.4,    0.9,    3.0,    4.1,    4.4,    3.9,    3.5,    4.0,    4.6,    6.1,    6.5,    6.6,    6.4,    6.3,    6.8,    7.1,    6.7,    5.9,    5.6,    6.4,    6.7,    7.0,    6.4,    5.4,    5.2,    4.4,    4.8,    5.5,    4.8,    5.4,    5.9,    5.5,    3.6,    3.8,    4.0,    4.9,    4.9,    4.0,    3.8,    3.4,    2.4,    1.2,    1.1,    0.8,  999.0,    1.7,    0.7,    2.4,    3.4,    3.3,    4.1,    3.0,    2.8,    1.9,    1.6,    0.4,   -0.9,   -1.8,   -1.8,   -3.1,   -5.6,   -6.3,   -6.4,   -7.1,   -5.2,   -3.4,   -2.5,   -2.0,   -0.0,    2.6,    3.6,    3.5,    2.4,   -0.3,   -1.6,   -1.3,   -0.8,   -3.0,   -2.7,    1.5,    3.4,    2.6,    2.3,   -0.6,   -1.8,   -0.6,    2.6,    3.4,    0.8,   -2.5,   -3.5,   -3.2,    1.5,    2.4,    0.6,  999.0,   -1.5,   -0.6,   -3.3,   -2.4,  999.0,  999.0,  999.0,  999.0
1987/09/09 22:45,    3.5,    2.1,    1.6,    2.0,    2.3,    3.5,    3.8,    4.3,    4.3,    3.3,    1.8,    0.4,   -0.2,   -0.7,   -0.7,   -0.2,    0.6,    1.3,    3.2,    4.1,    3.9,    3.1,    2.3,    3.1,    3.8,    5.0,    5.7,    5.7,    5.2,    5.7,    6.6,    6.9,    6.7,    5.8,    5.3,    5.9,    6.6,    6.7,    5.9,    5.1,    4.8,    4.5,    5.1,    4.8,    4.7,    5.4,    5.5,    4.4,    3.8,    4.4,    5.4,    4.9,    4.1,    2.6,    2.9,    2.0,    1.1,    0.0,   -0.2,   -0.1,    1.5,    1.6,    1.6,    2.7,    3.7,    3.9,    4.0,    3.9,    2.8,    2.3,    1.1,    0.8,   -0.1,   -0.9,   -1.1,   -2.2,   -4.2,   -5.5,   -5.3,   -5.9,   -6.3,   -2.7,   -2.5,   -2.0,    0.2,    2.3,    4.0,    3.2,    1.4,    0.3,   -0.6,    0.0,    0.3,   -2.4,   -3.0,   -0.3,    3.1,    3.5,    2.7,   -0.4,   -1.9,   -0.2,    2.7,    2.8,   -0.1,   -3.6,   -3.4,   -2.1,    1.5,    2.7,  999.0,   -2.0,   -0.7,   -2.2,   -4.4,   -2.5,  999.0,  999.0,  999.0,  999.0
1987/09/09 22:55,    2.4,    2.8,    1.6,    2.0,    1.9,    2.8,    3.5,    4.5,    4.6,    4.3,    2.9,    1.5,    1.2,    0.2,   -0.0,   -0.1,    0.3,    1.1,    2.7,    3.6,    3.0,    3.0,    2.4,    2.9,    3.1,    4.1,    5.3,    5.7,    5.5,    6.0,    6.9,    7.3,    7.2,    6.6,    6.2,    6.6,    7.4,    7.7,    7.8,    5.5,    5.6,    5.5,    5.9,    5.8,    5.8,    6.4,    6.0,    4.8,    5.3,    5.7,    4.9,    3.6,    2.4,    0.7,   -0.6,   -0.6,    0.1,    0.0,    0.1,    0.1,  999.0,    1.9,    2.6,    3.5,    3.9,    4.1,    4.3,    2.6,    2.0,    2.0,    1.6,    1.7,    0.4,    0.0,   -0.5,   -2.1,   -3.0,   -4.2,   -5.5,   -6.3,   -6.0,   -3.6,   -3.1,   -1.6,    0.0,    1.9,    3.8,    3.3,    3.3,    0.2,    0.3,    1.1,    0.5,   -2.3,   -2.9,   -1.1,    3.7,    3.8,    2.9,    0.4,   -1.7,   -0.1,    2.2,    3.1,   -0.1,   -2.7,   -3.0,   -2.7,    1.9,    1.8,    1.5,   -0.6,   -0.2,   -4.9,   -3.5,   -2.5,  999.0,  999.0,  999.0,  999.0
1987/09/09 23:05,    2.3,    1.8,    1.6,    1.7,    2.6,    4.1,    4.4,    4.9,    5.1,    5.7,    1.9,    0.3,    0.8,    0.2,    0.2,    0.4,    1.0,    2.1,    3.4,    3.3,    2.2,    2.1,    2.7,    2.8,    3.0,    4.0,    4.9,    5.5,    5.2,    6.1,    6.6,    6.8,    6.8,    6.6,    5.2,    5.4,    5.9,    6.5,    7.0,    6.9,    5.3,    5.5,    5.9,    6.0,    5.6,    6.0,    6.4,    5.1,    5.5,    5.9,    4.8,    2.4,    1.1,   -0.2,   -1.2,    2.4,    0.2,    0.3,    0.9,   -0.0,    0.0,   -0.4,   -0.5,    0.6,    2.8,    2.7,    2.7,    2.3,    2.2,    2.1,    1.3,    0.8,    0.3,   -0.5,   -1.3,   -2.5,   -4.1,   -5.5,   -4.3,   -6.8,   -6.3,   -4.0,   -3.8,   -2.7,   -0.8,    0.9,    2.9,    3.5,    3.4,    0.4,    0.4,    1.0,    0.7,   -1.9,   -1.9,   -1.7,    2.8,    3.5,    2.8,  999.0,   -1.7,    0.4,    3.1,    2.9,    1.6,   -2.3,   -2.6,   -2.4,  999.0,    1.8,  999.0,   -1.4,    2.6,   -5.9,   -2.4,   -1.7,    0.3,  999.0,   -1.3,  999.0
1987/09/09 23:15,    2.5,    1.9,    1.6,    1.6,    2.4,    4.1,    4.5,    4.3,    4.6,    4.1,    3.4,    2.3,    1.4,    1.2,    0.9,    1.6,    2.6,    4.4,    4.6,    4.1,    3.6,    3.4,    3.5,    2.9,    4.1,    5.8,    6.8,    7.4,    6.4,    6.9,    7.1,    6.8,    6.4,    5.6,    5.0,    5.0,    5.5,    6.1,    6.7,    7.1,    6.2,    4.7,    5.8,    5.6,    5.2,    6.0,    6.2,    4.5,    4.8,    5.3,    4.1,    1.7,    1.0,    0.7,   -0.1,   -0.2,   -0.6,   -1.6,   -2.1,   -2.2,   -2.3,   -2.6,   -1.5,    0.3,    1.3,    2.4,    2.6,    2.2,    2.1,    1.9,    1.3,    0.2,    0.1,   -1.0,   -1.9,   -3.0,   -4.4,   -5.7,   -5.7,   -6.3,   -6.6,   -2.9,   -3.1,   -1.3,    0.0,    1.2,    3.3,    3.1,    2.6,   -0.0,    0.7,    2.1,    1.3,   -1.7,   -3.1,   -1.2,    3.1,    3.2,    2.7,    1.7,   -2.5,    0.1,    2.8,    1.8,   -0.1,   -3.9,   -3.2,   -2.4,    0.6,    2.4,    3.7,    2.1,    2.9,    0.7,   -2.4,   -1.5,  999.0,  999.0,   -1.2,  999.0
1987/09/09 23:25,    3.0,    1.9,    2.0,    1.8,    3.3,    4.6,    5.3,    4.9,    5.0,    4.8,    4.4,    4.0,    2.2,    1.2,    0.9,    1.6,    2.4,    3.7,    3.3,    2.9,    2.4,    2.1,    1.2,    2.1,    2.8,    4.6,    5.5,    6.1,    5.5,    6.2,    6.4,    6.0,    6.0,    4.8,    4.7,    5.0,    5.3,    5.9,    6.7,    6.5,    5.8,    5.0,    5.8,    5.9,    5.6,    6.4,    7.2,    4.9,    5.6,    6.2,    5.0,    2.6,    1.6,    0.8,    0.4,    0.7,    0.5,    0.3,   -0.1,   -0.1,   -0.1,   -0.2,    0.4,    0.7,    1.7,    2.1,    2.3,    2.3,    2.2,    1.7,    2.7,  999.0,    1.3,    0.5,    0.0,   -1.1,   -2.5,   -3.1,   -3.7,   -4.5,   -3.7,   -1.8,   -1.6,   -1.3,   -0.1,    1.0,    2.2,    3.5,    2.6,    1.9,    1.2,    1.8,    1.6,   -1.5,   -3.2,   -2.3,    2.2,    2.7,    3.4,    0.1,   -0.8,    1.0,    2.4,    1.5,    0.0,   -2.9,   -3.2,   -2.1,   -0.8,    1.1,    2.0,    1.0,    2.7,    0.5,   -2.4,    0.5,    1.8,  999.0,  999.0,    0.2
1987/09/09 23:35,    2.7,    2.3,    1.5,    1.4,    2.4,    3.7,    4.2,    4.5,    4.8,    5.2,    4.5,    3.3,    2.2,    1.6,    2.0,    3.2,    3.8,    4.5,    4.1,    3.8,    3.0,    1.4,    1.3,    2.3,    3.1,    3.9,    4.5,    5.0,    5.1,    5.7,    5.8,    5.2,    5.2,    4.2,    4.4,    4.5,    5.5,    6.3,    7.1,    6.1,    6.1,    5.4,    5.3,    5.3,    5.1,    5.6,    6.0,    5.6,    5.0,    5.6,    5.0,    4.1,    2.8,    2.3,    2.3,    1.9,    1.6,    1.6,    1.6,    0.3,    0.8,    0.7,    0.5,    1.0,    1.4,    2.4,    2.4,    3.1,    3.3,    3.6,    3.1,    1.9,    1.4,   -0.6,   -1.6,   -2.3,   -3.3,   -4.3,   -3.5,   -5.1,   -4.5,   -1.7,   -1.2,   -0.7,    0.2,    1.7,    1.6,    2.6,    3.1,    1.8,    1.5,    1.7,    1.4,   -1.4,   -3.3,   -2.6,    2.0,    2.7,    2.3,  999.0,   -0.5,    0.9,    3.1,    1.5,   -0.5,   -3.7,   -3.3,   -1.6,    1.3,    2.0,    1.4,    2.3,    2.4,    1.4,   -2.4,   -0.2,    0.9,  999.0,  999.0,  999.0
1987/09/09 23:45,    2.7,    2.2,    1.9,    1.9,    3.5,    3.9,    3.8,    4.7,    4.5,    4.6,    3.6,    1.7,    1.0,    1.3,    1.5,    2.2,    2.8,    3.6,    3.0,    2.3,    1.7,    1.1,    1.1,    2.9,    3.6,    4.4,    5.4,    6.0,    6.4,    7.1,    7.1,    6.3,    6.2,    5.4,    5.4,    5.8,    6.7,    7.6,    8.7,    7.6,    6.7,    6.8,    7.1,    7.0,    7.1,    7.5,    6.7,    5.9,    6.2,    5.4,    4.4,    3.8,    3.3,    3.1,    1.8,    0.7,    0.4,    0.4,   -0.8,   -0.4,   -0.8,   -1.2,   -1.2,    0.2,    0.7,    2.0,    2.8,    3.5,    3.5,    3.5,    3.1,    2.0,    0.8,   -0.2,   -1.2,   -2.2,   -2.9,   -2.0,   -3.7,   -4.3,   -2.9,   -1.9,   -1.1,   -1.6,   -0.0,    0.1,    0.2,    1.9,    2.9,    1.5,    1.5,    3.2,    0.8,   -1.3,   -2.8,   -2.4,    1.9,    2.5,    2.5,   -0.7,   -0.9,    1.2,    3.6,    0.9,   -1.5,   -2.8,   -2.6,   -1.4,    1.2,    3.5,  999.0,   -0.2,    2.4,    1.3,   -2.1,   -2.0,  999.0,  999.0,    0.1,   -0.7
1987/09/09 23:55,    1.4,    1.7,    1.7,    1.9,    2.6,    3.2,    2.6,    3.0,    3.6,    3.9,    4.0,    2.6,    1.4,    1.3,    1.7,    2.6,    3.4,    3.8,    2.9,    2.1,    1.5,    0.7,    1.1,    2.9,    3.4,    4.8,    5.7,    6.4,    7.1,    7.8,    7.9,    6.9,    6.2,    5.4,    5.1,    5.9,    6.6,    7.5,    8.2,    7.7,    6.0,    6.1,    6.4,    6.1,    5.6,    6.0,    6.7,    6.5,    6.3,    5.3,    5.6,    4.6,    3.3,    2.3,    0.9,    0.2,   -0.5,   -0.3,   -0.8,   -0.1,   -0.8,   -1.2,   -1.0,   -0.1,    0.5,    2.0,    3.0,    4.3,    3.9,    3.5,    2.3,    1.4,    0.5,   -0.7,   -1.3,   -2.2,   -4.5,   -5.3,   -4.8,   -5.6,   -4.2,   -2.8,   -1.7,   -2.1,   -1.5,   -0.8,   -0.2,    1.6,    0.9,    0.6,    0.5,    2.0,    1.1,   -2.0,   -3.4,   -2.2,    1.5,    2.4,    1.7,   -0.3,   -0.8,    1.9,    3.3,    1.1,   -2.7,   -3.9,   -2.8,   -1.4,   -0.2,    1.7,    0.8,  999.0,    1.8,    0.5,   -4.0,   -4.0,  999.0,  999.0,  999.0,  999.0
